[[{"header":{"parameterUnit":"m.s-1","parameterCategory":1,"la1":30.6,"la2":29.2853,"lo1":-89.7004,"lo2":-87.6739,"dx":0.0162,"dy":0.0183,"nx":112,"ny":82,"refTime":"2023-02-05T06:00:00:Z","depth":0,"parameterNumber":2,"parameterNumberName":"U-component_of_WINDS"},"data":[0.0,0.0,0.0,0.0,0.0,0.0,0.0,0.0,0.0,0.0,0.0,0.0,0.0,0.0,0.0,0.0,0.0,0.0,0.0,0.0,0.0,0.0,0.0,0.0,0.0,0.0,0.0,0.0,0.0,0.0,0.0,0.0,0.0,0.0,0.0,0.0,0.0,0.0,0.0,0.0,0.0,0.0,0.0,0.0,0.0,0.0,0.0,0.0,0.0,0.0,0.0,0.0,0.0,0.0,0.0,0.0,0.0,0.0,0.0,0.0,0.0,0.0,0.0,0.0,0.0,0.0,0.0,0.0,0.0,0.0,0.0,0.0,0.0,0.0,0.0,0.0,0.0,0.0,0.0,0.0,0.0,0.0,0.0,0.0,0.0,0.0,0.0,0.0,0.0,0.0,1.9562,2.186,2.2865,2.297,2.1984,2.0282,1.8069,1.5278,0.0,0.0,0.0,0.0,0.0,0.0,0.0,0.0,0.0,0.0,0.0,0.0,0.0,0.0,0.0,0.0,0.0,0.0,0.0,0.0,0.0,0.0,0.0,0.0,0.0,0.0,0.0,0.0,0.0,0.0,0.0,0.0,0.0,0.0,0.0,0.0,0.0,0.0,0.0,0.0,0.0,0.0,0.0,0.0,0.0,0.0,0.0,0.0,0.0,0.0,0.0,0.0,0.0,0.0,0.0,0.0,0.0,0.0,0.0,0.0,0.0,0.0,0.0,0.0,0.0,0.0,0.0,0.0,0.0,0.0,0.0,0.0,0.0,0.0,0.0,0.0,0.0,0.0,0.0,0.0,0.0,0.0,0.0,0.0,0.0,0.0,0.0,0.0,0.0,0.0,0.0,0.0,0.0,0.0,0.0,0.0,0.0,0.0,0.0,0.0,0.0,0.0,0.0,0.0,2.0409,2.2764,2.3235,2.3193,2.2761,1.8874,1.6409,1.6407,0.0,0.0,0.0,0.0,0.0,0.0,0.0,0.0,0.0,0.0,0.0,0.0,0.0,0.0,0.0,0.0,0.0,0.0,0.0,0.0,0.0,0.0,0.0,0.0,0.0,0.0,0.0,0.0,0.0,0.0,0.0,0.0,0.0,0.0,0.0,0.0,0.0,0.0,0.0,0.0,0.0,0.0,0.0,0.0,0.0,0.0,0.0,0.0,0.0,0.0,0.0,0.0,0.0,0.0,0.0,0.0,0.0,0.0,0.0,0.0,0.0,0.0,0.0,0.0,0.0,0.0,0.0,0.0,0.0,0.0,0.0,0.0,0.0,0.0,0.0,0.0,0.0,0.0,0.0,0.0,0.0,0.0,0.0,0.0,0.0,0.0,0.0,0.0,0.0,0.0,0.0,0.0,0.0,0.0,0.0,0.0,0.0,0.0,0.0,0.0,0.0,0.0,0.0,1.9623,2.0416,2.2501,2.2294,2.1724,2.0927,1.7734,1.5604,1.5307,1.4713,0.0,0.0,0.0,0.0,0.0,0.0,0.0,0.0,0.0,0.0,0.0,0.0,0.0,0.0,0.0,0.0,0.0,0.0,0.0,0.0,0.0,0.0,0.0,0.0,0.0,0.0,0.0,0.0,0.0,0.0,0.0,0.0,0.0,0.0,0.0,0.0,0.0,0.0,0.0,0.0,0.0,0.0,0.0,0.0,0.0,0.0,0.0,0.0,0.0,0.0,0.0,0.0,0.0,0.0,0.0,0.0,0.0,0.0,0.0,0.0,0.0,0.0,0.0,0.0,0.0,0.0,0.0,0.0,0.0,0.0,0.0,0.0,0.0,0.0,0.0,0.0,0.0,0.0,0.0,0.0,0.0,0.0,0.0,0.0,0.0,0.0,0.0,0.0,0.0,0.0,0.0,0.0,0.0,0.0,0.0,0.0,0.0,0.0,0.0,0.0,0.0,0.0,2.0083,2.0534,2.2041,2.1429,2.0441,1.9266,1.6788,1.5,1.4323,1.3358,0.0,0.0,0.0,0.0,0.0,0.0,0.0,0.0,0.0,0.0,0.0,0.0,0.0,0.0,0.0,0.0,0.0,0.0,0.0,0.0,0.0,0.0,0.0,0.0,0.0,0.0,0.0,0.0,0.0,0.0,0.0,0.0,0.0,0.0,0.0,0.0,0.0,0.0,0.0,0.0,0.0,0.0,0.0,0.0,0.0,0.0,0.0,0.0,0.0,0.0,0.0,0.0,0.0,0.0,0.0,0.0,0.0,0.0,0.0,0.0,0.0,0.0,0.0,0.0,0.0,0.0,0.0,0.0,0.0,0.0,0.0,0.0,0.0,0.0,0.0,0.0,0.0,0.0,0.0,0.0,0.0,0.0,0.0,0.0,0.0,0.0,0.0,0.0,0.0,0.0,0.0,0.0,0.0,0.0,0.0,0.0,0.0,0.0,0.0,0.0,0.0,0.0,2.0543,2.1311,2.1856,2.1294,2.0458,1.9373,1.6102,1.4332,1.4828,1.2856,0.0,0.0,0.0,0.0,0.0,0.0,0.0,0.0,0.0,0.0,0.0,0.0,0.0,0.0,0.0,0.0,0.0,0.0,0.0,0.0,0.0,0.0,0.0,0.0,0.0,0.0,0.0,0.0,0.0,0.0,0.0,0.0,0.0,0.0,0.0,0.0,0.0,0.0,0.0,0.0,0.0,0.0,0.0,0.0,0.0,0.0,0.0,0.0,0.0,0.0,0.0,0.0,0.0,0.0,0.0,0.0,0.0,0.0,0.0,0.0,0.0,0.0,0.0,0.0,0.0,0.0,0.0,0.0,0.0,0.0,0.0,0.0,0.0,0.0,0.0,0.0,0.0,0.0,0.0,0.0,0.0,0.0,0.0,0.0,0.0,0.0,0.0,0.0,0.0,0.0,0.0,0.0,0.0,0.0,0.0,0.0,0.0,0.0,0.0,0.0,0.0,0.0,2.0069,2.0376,0.0,2.0926,1.9767,1.8209,1.5606,1.4149,1.4412,0.0,0.0,0.0,0.0,0.0,0.0,0.0,0.0,0.0,0.0,0.0,0.0,0.0,0.0,0.0,0.0,0.0,0.0,0.0,0.0,0.0,0.0,0.0,0.0,0.0,0.0,0.0,0.0,0.0,0.0,0.0,0.0,0.0,0.0,0.0,0.0,0.0,0.0,0.0,0.0,0.0,0.0,0.0,0.0,0.0,0.0,0.0,0.0,0.0,0.0,0.0,0.0,0.0,0.0,0.0,0.0,0.0,0.0,0.0,0.0,0.0,0.0,0.0,0.0,0.0,0.0,0.0,0.0,0.0,0.0,0.0,0.0,0.0,0.0,0.0,0.0,0.0,0.0,0.0,0.0,0.0,0.0,0.0,0.0,0.0,0.0,0.0,0.0,0.0,0.0,0.0,0.0,0.0,0.0,0.0,0.0,0.0,0.0,0.0,0.0,0.0,0.0,1.9736,1.9614,1.9716,0.0,2.0241,1.8979,1.6961,1.4955,1.3909,1.4072,0.0,0.0,0.0,0.0,0.0,0.0,0.0,0.0,0.0,0.0,0.0,0.0,0.0,0.0,0.0,0.0,0.0,0.0,0.0,0.0,0.0,0.0,0.0,0.0,0.0,0.0,0.0,0.0,0.0,0.0,0.0,0.0,0.0,0.0,0.0,0.0,0.0,0.0,0.0,0.0,0.0,0.0,0.0,0.0,0.0,0.0,0.0,0.0,0.0,0.0,0.0,0.0,0.0,0.0,0.0,0.0,0.0,0.0,0.0,0.0,0.0,0.0,0.0,0.0,0.0,0.0,0.0,0.0,0.0,0.0,0.0,0.0,0.0,0.0,0.0,0.0,0.0,0.0,0.0,0.0,0.0,0.0,0.0,0.0,0.0,0.0,0.0,0.0,0.0,0.0,0.0,0.0,0.0,0.0,0.0,0.0,0.0,0.0,0.0,0.0,0.0,0.0,1.8537,1.9239,1.9535,1.9155,1.9125,1.8166,1.5913,1.4186,1.3458,0.0,0.0,0.0,0.0,0.0,0.0,0.0,0.0,0.0,0.0,0.0,0.0,0.0,0.0,0.0,0.0,0.0,0.0,0.0,0.0,0.0,0.0,0.0,0.0,0.0,0.0,0.0,0.0,0.0,0.0,0.0,0.0,0.0,0.0,0.0,0.0,0.0,0.0,0.0,0.0,0.0,0.0,0.0,0.0,0.0,0.0,0.0,0.0,0.0,0.0,0.0,0.0,0.0,0.0,0.0,0.0,0.0,0.0,0.0,0.0,0.0,0.0,0.0,0.0,0.0,0.0,0.0,0.0,0.0,0.0,0.0,0.0,0.0,0.0,0.0,0.0,0.0,0.0,0.0,0.0,0.0,0.0,0.0,0.0,0.0,0.0,0.0,0.0,0.0,0.0,0.0,0.0,0.0,0.0,0.0,0.0,0.0,0.0,0.0,0.0,0.0,0.0,0.0,1.9177,1.9221,1.9388,2.0207,1.9561,1.8323,1.6426,1.4362,1.3273,1.3458,0.0,0.0,0.0,0.0,0.0,0.0,0.0,0.0,0.0,0.0,0.0,0.0,0.0,0.0,0.0,0.0,0.0,0.0,0.0,0.0,0.0,0.0,0.0,0.0,0.0,0.0,0.0,0.0,0.0,0.0,0.0,0.0,0.0,0.0,0.0,0.0,0.0,0.0,0.0,0.0,0.0,0.0,0.0,0.0,0.0,0.0,0.0,0.0,0.0,0.0,0.0,0.0,0.0,0.0,0.0,0.0,0.0,0.0,0.0,0.0,0.0,0.0,0.0,0.0,0.0,0.0,0.0,0.0,0.0,0.0,0.0,0.0,0.0,0.0,0.0,0.0,0.0,0.0,0.0,0.0,0.0,0.0,0.0,0.0,0.0,0.0,0.0,0.0,0.0,0.0,0.0,0.0,0.0,0.0,0.0,0.0,0.0,0.0,0.0,0.0,0.0,0.0,1.9083,1.8622,1.8713,2.0311,1.9224,1.781,1.6325,1.4337,1.311,1.2885,0.0,0.0,0.0,0.0,0.0,0.0,0.0,0.0,0.0,0.0,0.0,0.0,0.0,0.0,0.0,0.0,0.0,0.0,0.0,0.0,0.0,0.0,0.0,0.0,0.0,0.0,0.0,0.0,0.0,0.0,0.0,0.0,0.0,0.0,0.0,0.0,0.0,0.0,0.0,0.0,0.0,0.0,0.0,0.0,0.0,0.0,0.0,0.0,0.0,0.0,0.0,0.0,0.0,0.0,0.0,0.0,0.0,0.0,0.0,0.0,0.0,0.0,0.0,0.0,0.0,0.0,0.0,0.0,0.0,0.0,0.0,0.0,0.0,0.0,0.0,0.0,0.0,0.0,0.0,0.0,0.0,0.0,0.0,0.0,0.0,0.0,0.0,0.0,0.0,0.0,0.0,0.0,0.0,0.0,0.0,0.0,0.0,0.0,0.0,0.0,0.0,0.0,1.8432,1.761,1.7693,1.9687,1.8388,1.6961,1.5944,1.4287,1.3035,1.2517,0.0,0.0,0.0,0.0,0.0,0.0,0.0,0.0,0.0,0.0,0.0,0.0,0.0,0.0,0.0,0.0,0.0,0.0,0.0,0.0,0.0,0.0,0.0,0.0,0.0,0.0,0.0,0.0,0.0,0.0,0.0,0.0,0.0,0.0,0.0,0.0,0.0,0.0,0.0,0.0,0.0,0.0,0.0,0.0,0.0,0.0,0.0,0.0,0.0,0.0,0.0,0.0,0.0,0.0,0.0,0.0,0.0,0.0,0.0,0.0,1.7307,0.0,0.0,0.0,0.0,0.0,0.0,0.0,0.0,0.0,0.0,0.0,0.0,0.0,0.0,0.0,0.0,0.0,0.0,0.0,0.0,0.0,0.0,0.0,0.0,0.0,0.0,0.0,0.0,0.0,0.0,0.0,0.0,0.0,0.0,0.0,0.0,0.0,0.0,0.0,0.0,0.0,1.756,1.6978,1.7157,1.9012,1.8122,1.7287,1.7049,1.513,1.3682,1.306,1.2128,0.0,0.0,0.0,0.0,0.0,0.0,0.0,0.0,0.0,0.0,0.0,0.0,0.0,0.0,0.0,0.0,0.0,0.0,0.0,0.0,0.0,0.0,0.0,0.0,0.0,0.0,0.0,0.0,0.0,0.0,0.0,0.0,0.0,0.0,0.0,0.0,0.0,0.0,0.0,0.0,0.0,0.0,0.0,0.0,0.0,0.0,0.0,0.0,0.0,0.0,0.0,0.0,0.0,0.0,0.0,0.0,0.0,0.0,0.0,0.0,1.8225,0.0,0.0,0.0,0.0,0.0,0.0,0.0,0.0,0.0,0.0,0.0,0.0,0.0,0.0,0.0,0.0,0.0,0.0,0.0,0.0,0.0,0.0,0.0,0.0,0.0,0.0,0.0,0.0,0.0,0.0,0.0,0.0,0.0,0.0,0.0,0.0,0.0,0.0,0.0,0.0,1.7327,1.6569,1.6514,1.8075,1.7476,1.6861,1.6597,1.5067,1.3846,1.3235,1.219,0.0,0.0,0.0,0.0,0.0,0.0,0.0,0.0,0.0,0.0,0.0,0.0,0.0,0.0,0.0,0.0,0.0,0.0,0.0,0.0,0.0,0.0,0.0,0.0,0.0,0.0,0.0,0.0,0.0,0.0,0.0,0.0,0.0,0.0,0.0,0.0,0.0,0.0,0.0,0.0,0.0,0.0,0.0,0.0,0.0,0.0,0.0,0.0,0.0,0.0,0.0,0.0,0.0,1.8804,1.8317,1.6945,1.8427,1.8078,1.6426,1.8427,1.8684,1.7693,1.7839,0.0,0.0,0.0,0.0,0.0,0.0,0.0,0.0,0.0,0.0,0.0,0.0,0.0,0.0,0.0,0.0,0.0,0.0,0.0,0.0,0.0,0.0,0.0,0.0,1.668,1.6774,0.0,0.0,0.0,0.0,0.0,0.0,0.0,0.0,0.0,0.0,0.0,0.0,1.698,1.6116,1.5931,1.7244,1.6861,1.6333,1.5881,1.4865,1.3959,1.3235,1.2291,1.1482,0.0,0.0,0.0,0.0,0.0,0.0,0.0,0.0,0.0,0.0,0.0,0.0,0.0,0.0,0.0,0.0,0.0,0.0,0.0,0.0,0.0,0.0,0.0,0.0,0.0,0.0,0.0,0.0,0.0,0.0,0.0,0.0,1.56,1.4891,0.0,0.0,0.0,0.0,0.0,0.0,0.0,0.0,0.0,0.0,0.0,0.0,0.0,1.8832,1.8465,1.8381,1.8016,1.7377,1.7973,1.777,1.6927,1.7839,1.8463,1.8831,1.9176,0.0,1.6059,1.6762,0.0,0.0,0.0,0.0,0.0,0.0,0.0,0.0,0.0,0.0,0.0,0.0,0.0,0.0,0.0,0.0,0.0,0.0,0.0,0.0,0.0,0.0,1.8324,1.7453,1.7596,1.7826,0.0,1.7194,1.6672,1.5942,1.6155,0.0,0.0,0.0,0.0,0.0,0.0,0.0,1.5475,1.521,1.5585,1.7244,1.6861,1.6484,1.6421,1.5392,1.4325,1.3261,1.2622,1.2073,1.1587,1.1573,0.0,0.0,0.0,0.0,0.0,0.0,0.0,0.0,0.0,0.0,0.0,0.0,0.0,0.0,0.0,0.0,0.0,0.0,0.0,0.0,0.0,0.0,0.0,0.0,0.0,0.0,0.0,0.0,0.0,1.7381,1.7252,1.5991,1.7479,1.8505,0.0,0.0,0.0,0.0,0.0,0.0,0.0,0.0,0.0,1.7619,1.7987,1.8122,1.7956,1.8319,1.8465,1.8402,1.9592,1.9491,1.828,1.9087,1.9638,1.995,1.9491,1.8959,1.8317,1.7312,1.6688,1.6321,0.0,0.0,0.0,0.0,1.6505,1.6963,1.7422,1.7876,0.0,0.0,0.0,0.0,0.0,0.0,0.0,0.0,0.0,0.0,0.0,0.0,0.0,1.856,1.8788,1.9022,1.8545,1.8166,1.771,0.0,1.7275,1.7497,1.7104,0.0,0.0,0.0,0.0,1.5145,1.5738,1.5544,1.5505,1.5973,1.6019,1.5932,1.5618,1.4903,1.4236,1.3722,1.2592,1.1708,1.1239,1.0967,1.1149,0.0,0.0,0.0,0.0,0.0,0.0,0.0,0.0,0.0,0.0,0.0,0.0,0.0,0.0,0.0,0.0,0.0,0.0,0.0,0.0,0.0,0.0,0.0,0.0,0.0,0.0,0.0,0.0,1.7748,1.7784,1.6156,1.7705,1.8767,0.0,0.0,0.0,0.0,0.0,0.0,1.9234,1.9145,1.876,1.808,1.8336,1.8381,1.8196,1.877,1.9242,1.962,2.1105,2.116,1.9966,2.0556,2.0924,2.109,2.028,2.0391,2.0943,1.8522,1.7385,1.7092,1.5881,1.5423,1.549,1.6096,1.6702,1.7293,1.7894,1.8482,1.8849,1.8082,0.0,1.799,1.7179,0.0,0.0,0.0,0.0,1.8294,1.7828,1.8841,1.9914,1.9589,2.0065,2.0424,1.9891,1.9773,1.9384,0.0,1.8165,1.8274,1.765,0.0,0.0,0.0,0.0,1.5253,1.5982,1.5834,1.5542,1.5167,1.5442,1.5417,1.4765,1.4198,1.3821,1.367,1.2479,1.1517,1.0851,1.0657,1.0614,1.069,0.0,0.0,0.0,0.0,0.0,0.0,0.0,0.0,0.0,0.0,0.0,0.0,0.0,0.0,0.0,0.0,0.0,0.0,0.0,0.0,0.0,0.0,0.0,0.0,0.0,0.0,0.0,0.0,0.0,1.3666,1.6032,0.0,0.0,0.0,0.0,1.9274,1.9448,1.9178,1.8403,1.9964,2.0471,1.9611,2.0408,2.0763,2.0639,2.0596,2.0548,2.0448,2.1363,2.1766,2.1692,2.1729,2.2152,2.2832,2.2024,2.2134,2.2685,2.0189,1.872,1.8041,1.795,1.7931,1.7931,1.7968,1.8005,1.806,1.8096,1.8133,1.8408,1.9842,2.0886,2.1382,2.0519,2.0283,0.0,0.0,1.9198,1.9005,1.7968,1.9197,2.0684,2.0408,2.1276,2.2175,2.2141,2.2141,2.1278,0.0,1.7512,1.7486,1.8151,0.0,1.6159,1.6457,1.5791,1.5331,1.5447,1.5578,1.568,1.5655,1.568,1.5266,1.4223,1.3584,1.3023,1.2529,1.2416,1.1919,1.0944,1.1374,1.1239,1.0446,1.0705,0.0,0.0,0.0,0.0,0.0,0.0,0.0,0.0,0.0,0.0,0.0,0.0,0.0,0.0,0.0,0.0,0.0,0.0,0.0,0.0,0.0,0.0,0.0,0.0,0.0,0.0,0.0,0.0,1.7229,1.855,0.0,1.8115,1.8261,1.8867,1.9989,1.9184,1.921,2.0486,2.0137,2.0299,2.1148,2.0994,2.1096,2.1578,2.2064,2.249,2.2887,2.3712,2.4373,2.485,2.3823,2.4061,2.5254,2.3914,2.4098,2.5144,2.2685,2.0886,1.9641,1.9641,1.9014,1.8298,1.9895,2.0134,1.9787,2.0886,2.1602,2.1951,2.1492,2.0813,2.0115,1.9822,2.0097,2.0429,2.0152,2.0695,2.1222,2.0626,2.1233,2.1948,2.1704,2.1959,2.231,2.231,2.231,2.1888,2.0489,1.9365,1.8647,1.8686,1.7251,1.6292,1.6815,1.6284,1.5882,1.6092,1.6191,1.5957,1.5241,1.5205,1.4903,1.4148,1.322,1.2584,1.2429,1.1511,1.0682,1.0019,0.9688,0.9493,0.9445,0.9269,0.9903,0.0,0.0,0.0,0.0,0.0,0.0,0.0,0.0,0.0,0.0,0.0,0.0,0.0,0.0,0.0,0.0,0.0,0.0,0.0,0.0,0.0,0.0,0.0,0.0,0.0,0.0,1.9601,1.9326,2.0262,2.0611,1.9785,1.9491,1.9785,2.0868,1.995,2.006,2.1711,2.0996,2.1099,2.2303,2.2078,2.2337,2.3135,2.3413,2.4026,2.5016,2.5254,2.5805,2.6557,2.5493,2.5585,2.6539,2.5474,2.5456,2.6062,2.4465,2.2997,2.1694,2.1161,2.0464,1.995,2.1602,2.184,2.1493,2.2593,2.3529,2.4025,2.296,2.1859,2.0941,2.0941,2.1327,2.1676,2.1279,2.2004,2.2686,2.1718,2.2282,2.298,2.2428,2.2496,2.275,2.2987,2.2517,2.2041,2.2002,2.0973,1.998,1.9462,1.8156,1.7344,1.7668,1.6975,1.6527,1.6789,1.6471,1.5894,1.5016,1.4739,1.4337,1.3594,1.2994,1.2422,1.1846,1.1155,1.0372,0.9548,0.9306,0.9109,0.894,0.8652,0.9357,1.1092,0.0,0.0,0.0,0.0,0.0,0.0,0.0,0.0,0.0,0.0,0.0,0.0,0.0,0.0,0.0,0.0,0.0,0.0,0.0,0.0,0.0,0.0,0.0,1.817,1.9531,2.0262,1.9455,2.0829,2.1492,2.0613,2.129,2.1821,2.1876,2.1858,2.1858,2.1913,2.263,2.3052,2.307,2.3823,2.4612,2.5403,2.4649,2.5034,2.6557,2.5786,2.5841,2.6612,2.6576,2.6594,2.6612,2.6576,2.6135,2.5439,2.5384,2.4925,2.408,2.252,2.2354,2.3015,2.307,2.307,2.3052,2.3052,2.3547,2.419,2.419,2.419,2.419,2.419,2.4189,2.4003,2.2867,2.3127,2.3253,2.1098,2.2228,2.365,2.2632,2.2919,2.363,2.4371,2.3009,2.1875,2.2551,2.2092,2.1323,2.0449,1.9787,1.928,1.8946,1.7903,0.0,1.7333,1.6396,1.5517,1.5016,1.4438,1.3672,1.2554,1.2897,1.2452,1.0806,1.1344,1.1029,0.9518,1.0396,1.0272,0.9004,0.8928,0.9617,1.1058,0.0,0.0,0.0,0.0,0.0,0.0,0.0,0.0,0.0,0.0,0.0,0.0,0.0,0.0,0.0,0.0,0.0,0.0,0.0,0.0,0.0,0.0,1.9842,1.9842,2.0776,2.1345,2.1141,2.2024,2.2354,2.151,2.1657,2.228,2.3437,2.2997,2.318,2.4356,2.4061,2.4135,2.4704,2.4942,2.5182,2.5403,2.575,2.5878,2.5713,2.6098,2.6392,2.6594,2.5988,2.6043,2.6576,2.597,2.5933,2.6172,2.4997,2.474,2.5035,2.4595,2.3823,2.3144,2.43,2.4373,2.3878,2.3878,2.4006,2.419,2.419,2.419,2.4151,2.3917,2.4212,2.4522,2.3975,2.4204,2.4506,2.389,2.403,2.4271,2.3964,2.4066,2.4239,2.4472,2.3762,2.2965,2.2378,2.2069,2.155,2.0494,1.9917,1.9316,1.8458,1.8025,0.0,1.6827,1.6484,1.6233,1.6082,1.5447,1.4643,1.3722,1.2877,1.1807,1.0423,0.9886,0.9338,0.8653,0.8633,0.8594,0.8555,0.8829,0.9403,0.0,0.0,0.0,0.0,0.0,0.0,0.0,0.0,0.0,0.0,0.0,0.0,0.0,0.0,0.0,0.0,0.0,0.0,0.0,0.0,0.0,0.0,2.1015,2.1658,2.2006,2.2483,2.2923,2.3272,2.4025,2.4318,2.3859,2.3804,2.419,2.5144,2.4777,2.4924,2.5841,2.5456,2.5419,2.5878,2.5897,2.5897,2.5897,2.6025,2.6025,2.5897,2.6374,2.6778,2.709,2.6612,2.6649,0.0,2.6245,2.597,2.6025,2.5089,2.4777,0.0,0.0,0.0,0.0,0.0,2.4593,2.419,2.419,2.419,2.419,2.419,2.4094,2.401,2.4129,2.4369,2.4593,2.4585,2.4781,2.4977,2.482,2.488,2.4949,2.4949,2.4949,2.5002,2.5095,2.4248,2.3282,2.275,0.0,0.0,2.062,2.0198,1.9611,1.8597,1.8218,1.7801,1.6966,1.6244,1.5776,1.5776,1.4813,1.3837,1.3105,1.2596,0.0,0.0,0.0,0.9358,0.8867,0.8612,0.0,0.0,0.0,0.8786,0.0,0.0,0.0,0.0,0.921,0.9125,0.0,0.0,0.0,0.0,0.0,0.0,0.0,0.0,0.0,0.0,0.0,0.0,0.0,0.0,0.0,0.0,2.2795,2.3584,2.4483,2.4612,2.4832,2.5476,2.6172,2.6612,2.6612,2.6612,2.6649,2.6741,2.6741,2.6741,2.6741,0.0,0.0,0.0,0.0,2.6612,2.6612,2.5878,2.5841,2.6465,2.6557,2.6979,2.7658,2.7658,2.7658,2.7622,2.6814,2.6062,2.5403,2.5311,2.4887,2.4263,2.3456,2.3566,2.419,2.419,2.4263,0.0,2.4337,0.0,0.0,2.4426,2.421,2.4068,2.4657,2.4668,2.4576,2.4964,2.5138,2.5119,2.4822,2.522,2.5727,2.5727,2.5727,2.5765,2.5971,2.4603,2.3358,2.339,2.2543,2.1575,2.0842,2.0497,1.9999,1.889,1.8356,0.0,1.7302,1.5891,1.501,1.5069,0.0,0.0,1.1981,1.2368,1.1897,1.0234,1.0315,1.0133,0.9452,0.9491,0.9592,0.9778,0.878,0.7812,0.6909,0.6222,0.5414,0.4587,0.6752,0.6907,0.0,0.0,0.0,0.0,0.0,0.0,0.0,0.0,0.0,0.0,0.0,0.0,0.0,0.0,0.0,2.4448,2.4833,2.5438,2.6888,2.709,2.6924,2.6429,2.6521,2.6612,2.6612,2.6612,2.6869,2.7512,2.7567,2.7567,2.7567,2.7567,2.7567,2.7567,2.6943,2.6612,2.6612,2.6447,2.6117,2.5642,0.0,0.0,2.6833,2.6833,2.6833,2.6796,2.597,2.555,2.5348,2.4685,2.4704,2.509,2.4281,2.4061,2.419,2.419,2.4612,2.5182,2.5182,2.5585,2.6075,2.576,2.5605,2.5482,2.5068,2.5327,0.0,2.5541,2.5892,2.6367,2.6301,2.637,2.6488,2.6488,2.6488,2.6421,2.6087,2.535,2.4541,2.3577,2.2924,2.2113,2.0917,2.0678,1.993,1.7908,1.791,1.7611,1.6223,1.6029,1.6184,1.6622,1.5388,1.4398,1.3972,1.3213,1.2006,1.0305,0.964,0.9052,0.8485,0.8794,0.859,0.778,0.7548,0.6723,0.5256,0.4754,0.3974,0.3066,0.4697,0.4688,0.0,0.0,0.0,0.0,0.0,0.0,0.0,0.0,0.0,0.0,0.0,2.2611,2.3456,0.0,2.5071,2.586,2.6337,2.7016,2.8227,2.876,2.8705,2.7915,2.7805,2.7805,2.7805,2.7805,2.797,2.8374,2.8411,2.8411,2.8411,2.8411,2.8227,2.7805,2.7402,2.7016,2.6612,2.6612,2.641,2.6007,2.6814,2.72,2.72,2.72,2.72,2.7126,2.5915,2.5403,2.5309,2.4344,2.4511,2.5346,2.4782,2.4639,2.474,2.4337,2.4704,2.5403,2.5403,2.5774,2.6277,2.6056,2.5772,2.5509,2.5542,2.5674,2.5883,2.6081,2.642,2.6691,2.6691,2.6691,2.6691,2.6691,2.6505,2.621,2.5726,2.5182,2.4523,2.3672,2.3326,2.2832,2.1859,2.1425,2.0415,1.8061,1.7688,1.7244,1.5881,1.5516,1.5441,1.5487,1.458,1.3828,1.3403,1.2416,1.1261,0.9924,0.9487,0.8913,0.8123,0.8218,0.7921,0.7124,0.6382,0.5407,0.4169,0.3464,0.2502,0.1326,0.2054,0.2127,0.0,0.0,0.0,0.0,0.0,0.0,0.0,2.0915,2.1473,2.2318,2.3657,2.485,2.5493,2.6539,2.7255,2.709,2.786,2.8668,2.914,2.9787,2.9971,2.9329,2.9214,2.9214,2.9214,2.9214,2.931,2.9457,2.9305,2.9214,2.9214,2.892,2.8484,2.7824,2.764,2.7255,2.6612,2.6612,2.6686,2.6851,2.7493,2.7879,2.8026,2.8026,2.8026,2.7934,2.6258,2.5541,2.5427,2.4295,2.4483,2.5481,2.5208,2.5292,2.5447,2.4886,2.5031,2.5539,2.5685,2.6014,2.6361,2.6287,2.5896,2.553,2.6061,2.6019,2.5947,2.6522,2.6691,2.6691,2.6691,2.6691,2.6691,2.6691,2.6301,2.5796,2.5303,2.476,2.4194,2.3694,2.3595,2.34,2.2787,2.2233,2.1045,1.8461,1.7626,1.6862,1.5657,1.4838,1.4294,1.4049,1.3346,1.2705,1.2219,1.133,1.0397,0.9585,0.9367,0.8785,0.773,0.7581,0.7168,0.6306,0.5127,0.4027,0.2973,0.2274,0.1204,-0.0178,-0.0314,-0.0353,1.6102,1.6301,1.7623,2.0138,2.056,2.1221,0.0,2.45,2.4025,2.4833,2.5713,2.6355,2.6447,2.8301,2.9567,2.8847,3.0008,3.0779,3.0155,3.0136,3.0173,3.0081,3.0081,3.0081,3.0081,3.0081,3.0356,3.1072,3.0467,3.0081,3.0081,2.8705,2.7879,2.7787,2.7108,2.6704,2.6612,2.6612,2.6961,2.7658,2.775,2.8172,2.8888,2.8888,2.8888,2.8755,2.6863,2.5977,2.5834,2.4699,2.489,2.593,2.5888,2.5888,2.5977,2.6231,2.6166,2.6044,2.673,2.7305,2.7632,2.7267,2.7087,2.6999,2.6737,2.6606,2.659,2.6674,2.6691,2.6691,2.6691,2.6691,2.6691,2.6691,2.6168,2.5581,2.5266,2.4627,2.4029,2.3688,2.3595,2.34,2.2787,2.2664,2.1575,1.8528,1.7658,1.6711,1.502,1.432,1.4105,1.4381,1.3532,1.2705,1.2219,1.0973,1.0059,0.9704,0.8837,0.7781,0.6541,0.6594,0.5733,0.3746,0.3666,0.2822,0.1206,0.1112,0.04,-0.0806,-0.1484,-0.2067,1.7941,1.9042,2.0655,2.1475,2.2529,2.3805,2.5437,2.5709,2.597,2.7236,2.8503,2.9255,2.8778,3.0301,3.1182,0.0,3.065,3.1439,3.1586,3.1201,3.0723,3.0265,3.021,3.021,3.021,3.021,3.0522,3.1329,3.065,3.0008,2.9549,2.887,2.8081,2.7126,2.7236,2.7291,2.7291,2.7291,2.7695,2.8503,2.8503,2.8686,2.8994,2.8994,2.8741,2.8242,2.7175,2.6471,2.5949,2.5273,2.5401,2.5991,2.6056,2.5768,2.5425,2.6027,2.6315,2.6462,2.6791,2.7197,2.753,2.7348,2.7147,2.6939,2.6758,2.6691,2.6691,2.6691,2.6691,2.6691,2.6691,2.6387,2.6065,2.6065,2.5262,2.4496,2.4542,2.4049,2.3639,2.3588,2.3595,2.3634,2.3697,2.3356,2.2415,2.0385,1.9082,1.7479,1.5125,1.4125,1.3238,1.2344,1.1435,1.0976,1.1134,1.0206,0.9392,0.8822,0.7882,0.6924,0.5881,0.5328,0.4498,0.3314,0.2692,0.1893,0.0881,0.0095,-0.072,-0.1535,-0.2291,-0.303,1.9143,2.0776,2.2443,2.2949,2.4597,2.6291,2.7177,2.765,2.8319,2.9714,3.0742,3.1146,3.0356,3.1329,3.1806,3.043,3.1054,3.1935,3.2522,3.1916,3.1091,3.0301,2.9806,2.9641,2.9861,3.0081,3.0522,3.1329,3.065,2.9953,2.9365,2.8925,2.8136,2.6979,2.7493,2.7787,2.7787,2.8026,2.8429,2.8994,2.8994,2.8994,2.8994,2.8905,2.8511,2.7926,2.7011,2.6415,2.6007,2.5332,2.5258,2.5566,2.5942,2.5523,2.4836,2.5566,2.6019,2.6272,2.6483,2.6812,2.7147,2.7147,2.6939,2.6691,2.6691,2.6691,2.6691,2.6691,2.6691,2.664,2.6437,2.5998,2.5558,2.5338,2.4426,2.372,2.4204,2.3739,2.3382,2.3948,2.3921,2.3991,2.4552,2.421,2.3465,2.2133,2.0831,1.8772,1.528,1.3607,1.2069,1.0308,0.9724,0.9596,0.9943,0.9177,0.8388,0.7695,0.6751,0.5806,0.5009,0.4154,0.3388,0.2771,0.1883,0.1153,0.0667,-0.0545,-0.1411,-0.2012,-0.2792,-0.3519,1.8572,1.9913,2.1377,2.4742,2.6668,2.8386,3.0936,3.137,3.1494,3.232,3.1916,3.1146,3.0356,3.087,3.1164,3.0338,3.1531,3.2577,3.2614,3.1916,3.1091,3.0301,2.8815,2.8172,0.0,2.9751,3.0522,3.1329,3.065,3.0191,3.0173,2.8686,2.7805,2.7769,2.7787,2.7787,2.7787,2.8576,2.8975,2.8994,2.8994,2.8994,2.8994,2.8608,2.8402,2.8268,2.6098,2.557,2.6097,2.4566,2.4112,2.4456,2.5566,2.5314,2.4413,2.5224,2.5304,2.5172,2.5947,2.645,2.6725,2.6725,2.6725,2.6691,2.6691,2.6691,2.6691,2.6691,2.6691,2.6539,2.5828,2.5625,2.5423,2.4678,2.3951,2.3647,2.4578,2.3829,2.3422,2.4872,2.4736,2.4552,2.5089,2.5166,2.467,2.3243,2.2608,2.0458,1.5351,1.2533,1.0447,0.9084,0.9182,0.9199,0.8954,0.7814,0.6922,0.658,0.5373,0.4364,0.3698,0.3178,0.2449,0.1371,0.1071,0.0619,0.0048,-0.0743,-0.1411,-0.2014,-0.2913,-0.36,1.9488,2.2281,2.513,2.7547,2.9181,3.0594,3.2201,3.2373,3.2284,3.2559,3.1549,3.0356,2.9549,2.9641,2.9898,3.0173,3.1549,3.2614,3.2614,3.2375,3.1513,2.9641,2.9402,0.0,0.0,0.0,0.0,3.1256,3.0173,2.9402,2.9402,2.8906,2.8356,2.7824,2.8319,2.8613,2.8613,2.8847,2.8863,2.859,2.859,2.859,2.8608,2.8446,2.8113,2.759,2.636,2.5687,2.5438,2.4906,2.4531,2.4367,2.5015,2.4569,2.3589,2.3879,2.4251,2.4791,2.5541,2.6213,2.6691,2.6691,2.6691,2.6691,2.6691,2.6691,2.6691,2.6691,2.6353,2.5913,2.5676,2.4881,2.4086,2.3816,2.3207,2.2849,2.3481,2.3295,2.3317,2.4445,2.4511,2.4657,2.5577,2.5726,2.5127,2.3417,2.0172,1.6828,1.3882,1.0713,0.8333,0.7355,0.6725,0.6538,0.6945,0.6233,0.5484,0.4868,0.4155,0.3378,0.2584,0.2103,0.1556,0.0894,0.0813,0.025,-0.0718,-0.1486,-0.2212,-0.2965,-0.4183,-0.4858,2.1148,2.4373,2.7518,2.9591,3.0978,3.2077,3.3068,3.2926,3.2522,3.2228,3.0668,2.9108,2.8301,2.7457,2.7328,2.8705,2.9549,3.054,3.1971,3.1696,3.0962,2.9971,2.9824,2.9365,0.0,0.0,0.0,3.0375,2.9586,2.8994,2.8994,2.8994,2.8778,2.8246,2.8741,2.8994,2.8994,2.8994,2.8797,2.8394,2.829,2.8237,2.8192,2.7799,2.7362,2.6845,2.5703,2.493,2.4477,2.4323,2.4051,2.3741,2.3856,2.3382,2.2676,2.2915,2.35,2.4205,2.4949,2.5862,2.6691,2.6691,2.6691,2.6691,2.6691,2.6691,2.6691,2.6691,2.6353,2.5879,2.5338,2.4492,2.3684,2.3217,2.2768,2.2607,2.3269,2.3249,2.3469,2.4728,2.4831,2.5012,2.6068,2.5509,2.4457,2.3099,1.8543,1.4761,1.325,1.0101,0.7567,0.6396,0.555,0.5241,0.5596,0.4957,0.423,0.3595,0.2748,0.1949,0.1245,0.0601,0.0135,-0.0095,-0.025,-0.0726,-0.1484,-0.2249,-0.3007,-0.3779,-0.4933,-0.5686,2.3473,2.6153,2.8539,3.0925,3.21,3.2852,3.3568,3.3091,3.2247,3.1384,2.9255,2.7328,2.6536,2.4519,2.3804,2.6264,2.608,2.7019,3.0907,3.0191,2.9787,3.1219,3.0099,2.914,0.0,0.0,0.0,2.8883,0.0,2.8902,2.8994,2.8994,2.8994,2.8994,2.8994,2.8994,2.8994,2.8952,2.8749,2.8324,2.802,2.7851,2.778,2.6685,2.6172,2.5987,2.4164,2.3376,2.3304,2.2865,2.2678,2.2625,2.2224,2.1879,2.1645,2.24,2.299,2.3465,2.4242,2.5473,2.6691,2.6691,2.6691,2.6691,2.6691,2.6691,2.6691,2.6691,2.6657,2.6269,2.4867,2.4478,2.4135,2.2913,2.2621,2.2867,2.3855,2.3669,2.3834,2.5595,2.554,2.5561,2.6539,2.4577,2.2753,2.2456,1.8016,1.4367,1.3427,1.0612,0.7989,0.611,0.5595,0.5237,0.4839,0.3951,0.3175,0.2606,0.1178,0.0125,-0.0292,-0.1179,-0.1612,-0.1661,-0.1997,-0.2229,-0.2281,-0.3016,-0.3727,-0.4491,-0.5273,-0.6216,2.6112,2.8631,3.0907,3.2724,3.333,3.3385,3.2999,3.1825,3.0363,2.8755,2.6176,2.4095,2.368,2.3287,2.3988,2.6998,2.8319,2.9751,3.199,3.2467,3.2284,3.1476,3.1568,3.1219,3.0008,2.9531,0.0,0.0,2.7897,2.775,2.8938,2.8994,2.8994,2.8994,2.8994,2.8994,2.8994,2.8456,2.7964,2.7572,2.75,2.716,2.6632,2.6323,2.56,2.4535,2.375,2.3088,2.2564,2.2445,2.2201,2.1871,2.1777,2.1335,2.0934,2.2235,2.2745,2.2992,2.4282,2.5581,2.6691,2.6691,2.6691,2.6691,2.6691,2.6691,2.6691,2.6691,2.6034,2.5193,2.4812,2.4063,2.3296,2.2964,2.2897,2.3016,2.3405,2.3413,2.3599,2.4611,2.5335,2.5997,2.659,2.4282,2.2374,2.242,1.8019,1.409,1.2338,0.9478,0.6944,0.5233,0.4484,0.3909,0.3439,0.259,0.1675,0.0729,-0.0087,-0.1018,-0.2007,-0.1973,-0.2102,-0.256,-0.2311,-0.2475,-0.3025,-0.3759,-0.4598,-0.5624,-0.6931,-0.7745,2.8682,3.087,3.2669,3.3568,3.3807,3.3403,3.1898,3.0595,2.8952,2.6498,2.4112,2.2319,2.1789,2.1515,2.2318,2.5217,2.6759,2.8503,3.1182,3.1935,3.2155,3.1953,3.2008,3.1586,3.032,2.9879,2.9494,0.0,2.815,2.8062,2.8938,2.8994,2.8851,2.8484,2.8484,2.8398,2.8202,2.7656,2.7361,2.7286,2.6788,2.6333,2.5905,2.5266,2.4511,2.3732,0.0,2.2682,2.231,2.231,2.1946,2.1387,2.1044,2.055,2.0196,2.1644,2.2252,2.2589,2.4359,2.5439,2.6052,2.6052,2.6052,2.6087,2.6332,2.6401,2.6401,2.6401,2.5876,2.5198,2.4658,2.3999,2.3438,2.318,2.3142,2.3179,2.3386,2.3416,2.3631,2.4271,2.5067,2.5628,2.5603,2.3286,2.1437,2.1316,1.69,1.2986,1.1209,0.8972,0.6773,0.4899,0.3852,0.3032,0.2488,0.1472,0.0291,-0.1086,-0.1819,-0.2682,-0.3799,-0.3729,-0.3906,-0.4351,-0.4071,-0.429,-0.4986,-0.5374,-0.6145,-0.7165,-0.8366,-0.9202,3.098,3.2816,3.4082,3.3862,3.3807,3.3146,3.0613,2.9182,2.749,2.4463,2.2483,2.109,2.0381,1.9827,2.0299,2.285,2.3969,2.5915,2.9953,3.0522,3.1035,3.2449,3.1971,3.1201,3.0283,2.9586,2.9104,2.8994,2.8994,2.8994,2.8994,2.8883,2.8484,2.7658,2.764,2.7429,2.6975,2.6677,2.6672,2.693,2.5936,2.5406,2.527,2.3985,2.3342,2.3224,0.0,0.0,2.231,2.231,2.187,2.1109,2.0433,1.9887,1.9701,2.1114,2.1811,2.2306,2.4366,2.5067,2.5012,2.5128,2.5221,2.5297,2.5762,2.5888,2.5888,2.5888,2.5852,2.5505,2.4318,2.397,2.3795,2.3323,2.3218,2.329,2.3561,2.3595,2.3752,2.4307,2.4792,2.4898,2.4313,2.224,2.0452,1.987,1.5446,1.1658,1.0064,0.855,0.6874,0.4767,0.3538,0.2562,0.1738,0.0517,-0.0994,-0.2715,-0.3566,-0.4426,-0.5394,-0.5656,-0.5927,-0.6294,-0.6257,-0.6546,-0.7089,-0.7234,-0.7827,-0.8828,-0.9615,-1.053,3.2284,3.41,3.5532,3.4156,3.3807,3.2999,2.9916,2.7053,2.4444,2.2315,2.0202,1.8778,1.8914,1.9684,2.124,2.4187,2.5515,2.7603,3.1623,3.2192,3.2302,3.2577,3.2485,3.1825,3.0338,3.0081,0.0,0.0,2.8994,2.8994,2.8994,2.8374,2.764,2.6833,2.6814,2.6477,2.5806,2.5746,2.5439,2.4972,2.4791,2.4357,2.3765,2.3511,2.3071,2.2496,2.2361,0.0,2.231,2.231,2.187,2.1204,2.1068,2.0671,2.041,2.1851,2.2303,2.2399,2.3997,2.4225,2.4032,2.491,2.5221,2.5221,2.5297,2.5335,2.5335,2.5335,2.5028,2.4505,2.3777,2.327,2.2908,2.2834,2.279,2.2952,2.3478,2.3595,2.3752,2.4307,2.4471,2.4474,2.4215,2.2585,2.0813,1.9373,1.5262,1.145,0.8855,0.7305,0.575,0.3965,0.3161,0.228,0.1157,-0.0498,-0.2029,-0.3298,-0.4431,-0.5351,-0.6007,-0.5741,-0.5893,-0.6693,-0.6592,-0.6708,-0.7089,-0.7913,-0.8893,-1.0033,-1.0702,-1.1659,3.3615,3.4724,3.544,3.4633,3.3476,3.1715,2.8484,2.5915,2.3474,2.0859,1.9465,1.877,1.8925,1.9804,2.1257,2.3576,2.4734,2.6612,3.0204,3.0742,3.0864,3.1311,3.1347,3.0889,2.9696,2.9586,2.9439,2.9012,2.8613,2.8374,2.8374,2.6814,2.5933,2.597,2.5162,2.4762,2.488,2.488,2.4766,2.4506,2.4103,2.3731,2.3376,2.3004,2.2632,2.231,2.231,0.0,2.231,2.231,2.187,2.117,2.0737,2.06,2.0747,2.1376,2.1961,2.2606,2.3629,2.3837,2.3666,2.4184,2.4389,2.443,2.4712,2.4776,2.4776,2.4776,2.4592,2.421,2.3318,2.2891,2.2603,2.2253,2.2193,2.2239,2.256,2.2606,2.2682,2.2951,2.2996,2.2878,2.2512,2.115,1.9669,1.8275,1.4413,1.0837,0.8513,0.6281,0.4341,0.2815,0.1803,0.0742,-0.0398,-0.2054,-0.3581,-0.4831,-0.5585,-0.6182,-0.6611,-0.6552,-0.6816,-0.7373,-0.7482,-0.7836,-0.8483,-0.9349,-1.022,-1.1085,-1.2242,-1.3126,3.4605,3.5247,3.5459,3.5082,3.3311,3.076,2.7383,2.5089,2.285,1.9911,1.9161,1.9072,1.9225,1.979,2.0833,2.2612,2.3491,2.5126,2.8517,2.8994,2.931,3.0099,3.021,2.9879,2.9067,2.8828,0.0,2.8741,2.7842,0.0,2.7273,2.5493,2.4667,2.5146,2.3914,2.3549,2.4158,2.4085,2.4069,2.4105,2.3456,2.3156,2.3139,2.2564,2.231,2.231,2.231,0.0,0.0,2.2141,2.1748,2.1221,2.0562,2.0606,2.0984,2.1025,2.1763,2.2783,2.3236,2.349,2.3595,2.3595,2.3595,2.3681,2.4116,2.4133,2.4056,2.4194,2.4035,2.361,2.2727,2.2406,2.2175,2.1615,2.1615,2.1697,2.1697,2.1588,2.1479,2.1479,2.1322,2.1077,2.0624,1.9822,1.8777,1.7371,1.3874,1.0514,0.8061,0.5112,0.2607,0.0951,0.0232,-0.0698,-0.1966,-0.3485,-0.4944,-0.6322,-0.6717,-0.6961,-0.7184,-0.7442,-0.7709,-0.8023,-0.8459,-0.9123,-0.9962,-1.081,-1.1608,-1.232,-1.3597,-1.4264,3.4752,3.6119,3.689,3.5385,3.3725,3.1476,2.7512,2.4226,2.1509,1.969,1.872,1.8386,1.8942,1.9237,2.0105,2.2295,2.2903,2.4502,2.8425,2.8994,2.931,3.0099,3.021,2.9879,2.9067,2.8338,2.7915,2.7915,2.6484,0.0,2.5623,2.5421,2.4999,2.4318,2.4171,2.3979,2.3757,2.3453,2.3161,2.2851,2.2562,2.2412,2.2412,2.2344,2.231,2.231,2.231,0.0,0.0,2.1566,2.1407,2.1543,2.1404,2.1327,2.1357,2.192,2.24,2.2724,2.2742,2.3131,2.3595,2.3595,2.3595,2.3595,2.3681,2.329,2.296,2.3516,2.2847,2.1902,2.1806,2.1403,2.0944,2.0894,2.1293,2.1697,2.1697,2.1151,2.0722,2.0722,2.0176,1.9712,1.9775,2.0117,1.9574,1.7364,1.4613,1.1202,0.6756,0.3379,0.0355,-0.2172,-0.0989,-0.08,-0.2827,-0.4109,-0.5445,-0.6931,-0.7484,-0.7781,-0.7802,-0.7829,-0.8029,-0.833,-0.9213,-1.0052,-1.0793,-1.1797,-1.2856,-1.3965,-1.4145,-1.4569,3.366,3.5128,3.5844,3.5155,3.2339,2.9035,2.6447,2.3364,2.0556,1.8904,1.8702,1.8907,1.9143,1.9261,1.9916,2.1808,2.177,2.274,2.6337,2.6429,2.6778,2.8539,2.876,2.8815,2.8975,0.0,2.6484,2.5016,2.4318,0.0,2.3272,2.3235,2.3309,2.3474,2.3015,2.2972,2.3374,2.3715,2.3597,2.313,2.2994,2.319,2.3596,2.3156,2.297,2.297,2.297,0.0,0.0,2.1989,2.1764,2.1549,2.1075,2.1055,2.1286,2.109,2.1728,2.2664,2.2218,2.2757,2.3535,2.3161,2.3295,2.3595,2.3595,2.3714,2.3819,2.3655,2.3245,2.2715,2.1927,2.0953,2.0207,2.0207,2.0383,2.0445,1.9965,1.9634,1.9411,1.9251,1.8975,1.8861,1.9156,1.9132,1.8496,1.6961,1.3932,1.0416,0.6519,0.2874,-0.0417,-0.3142,-0.2838,-0.3029,-0.4533,-0.5514,-0.6486,-0.7535,-0.7786,-0.7882,-0.7882,-0.8476,-0.8868,-0.8997,-1.0459,-1.1407,-1.1904,-1.3024,-1.3939,-1.4626,-1.4809,-1.5252,3.1816,3.3395,3.4302,3.4436,3.1013,2.7141,2.5417,2.2501,1.9767,1.839,1.8739,1.9305,1.9305,1.9305,1.9856,2.1527,2.1272,2.1932,2.498,2.4704,2.4924,2.6851,2.6869,2.7145,2.8191,2.7053,2.5236,2.2832,2.2648,0.0,2.1123,2.129,2.1785,2.263,2.2097,2.2227,2.3141,2.3466,2.3535,2.3333,2.317,2.346,2.4137,2.341,2.319,2.3376,2.3173,0.0,0.0,2.1692,2.1574,2.1644,2.0758,2.0699,2.1069,2.0752,2.1265,2.2054,2.1799,2.2274,2.3008,2.2756,2.2834,2.3024,2.3024,2.3466,2.3866,2.3274,2.2728,2.2109,2.1138,2.0237,1.961,1.9761,1.9631,1.9307,1.8821,1.8457,1.8114,1.764,1.7472,1.7554,1.8052,1.8006,1.7497,1.6512,1.3466,0.9754,0.5559,0.1662,-0.1784,-0.4751,-0.5245,-0.5543,-0.5911,-0.6428,-0.7133,-0.8001,-0.8063,-0.8193,-0.847,-0.916,-0.9718,-1.0171,-1.1639,-1.272,-1.333,-1.425,-1.4902,-1.5241,-1.5369,-1.5644,2.9206,3.1088,3.2731,3.3124,3.0143,2.6598,2.4642,2.1657,1.9069,1.828,1.8739,1.9305,1.9305,1.9305,1.9856,2.1527,2.1803,2.2629,2.5072,2.4704,2.4502,2.5329,2.4722,2.4869,2.6484,2.5878,2.4411,2.2005,0.0,0.0,1.9433,2.0079,2.0923,2.1784,2.1803,2.2189,2.2997,2.2353,2.2417,2.3206,2.2588,2.2699,2.3376,2.2649,2.2716,0.0,0.0,0.0,0.0,2.0317,2.0489,2.1866,2.0662,2.0406,2.0797,2.144,2.1276,2.0827,2.147,2.173,2.183,2.2493,2.2253,2.1697,2.1697,2.2114,2.2443,2.2033,2.0589,1.9107,1.9065,1.9032,1.9171,1.9673,1.9254,1.8715,1.8715,1.7913,1.6915,1.6017,1.5582,1.556,1.6296,1.687,1.6914,1.6135,1.3496,0.9466,0.352,-0.0596,-0.4248,-0.7702,-0.8399,-0.8098,-0.6714,-0.6612,-0.7117,-0.833,-0.837,-0.8795,-0.974,-0.9806,-1.0484,-1.2061,-1.2749,-1.3732,-1.5047,-1.531,-1.5635,-1.6055,-1.5615,-1.5644,2.5099,2.6483,2.7576,2.8261,2.5778,2.2944,2.1898,1.9586,1.7587,1.733,1.7931,1.8647,1.9198,1.9305,1.9638,2.0739,2.0923,2.1584,2.3492,2.4006,2.4704,2.6062,2.6979,2.7034,0.0,0.0,2.3566,2.1106,0.0,0.0,1.9341,1.9528,2.006,2.0886,2.0923,2.1115,2.157,2.1856,2.2205,2.2571,2.2405,2.3079,2.4471,2.3493,2.3028,0.0,0.0,0.0,0.0,1.9841,2.009,2.0963,2.0879,2.0857,2.0989,2.1698,2.161,2.1069,2.0824,2.0914,2.1225,2.1757,2.1854,2.1862,2.2605,2.279,2.2428,2.1458,2.0745,2.0057,1.9218,1.9296,1.9597,1.9761,1.9254,1.8555,1.807,1.7073,1.6064,1.5557,1.5112,1.4926,1.5514,1.5713,1.5394,1.4105,1.1055,0.7238,0.2584,-0.187,-0.5502,-0.7873,-0.9145,-0.9299,-0.786,-0.7586,-0.765,-0.8036,-0.8482,-0.9004,-0.952,-1.1352,-1.2619,-1.3148,-1.4621,-1.5793,-1.6517,-1.6343,-1.6387,-1.6523,-1.6689,-1.6836,2.174,2.3066,2.4082,2.4508,2.2625,2.0494,1.976,1.7954,1.6523,1.6835,1.7532,1.8353,1.9143,1.9305,1.9565,2.0356,2.0794,2.1473,2.2813,2.3694,2.4575,2.5585,2.7126,0.0,0.0,2.4318,2.318,2.0686,0.0,0.0,1.9305,1.9305,1.9528,2.0042,2.006,2.0243,2.0626,2.0962,2.1348,2.1764,2.1626,2.2365,2.378,2.2867,2.2392,0.0,0.0,0.0,0.0,1.9757,2.0223,2.1292,2.1423,2.144,2.1471,2.2208,2.1805,2.093,2.1023,2.0935,2.0868,2.1431,2.1158,2.0636,2.1095,2.1548,2.1794,2.0762,2.0291,1.9973,1.9447,1.9723,2.0175,2.0388,1.9504,1.84,1.7634,1.6485,1.5223,1.3983,1.3986,1.4042,1.3569,1.3829,1.3479,1.1673,0.8224,0.434,0.013,-0.4253,-0.7756,-0.9789,-1.0844,-1.0866,-0.968,-0.8867,-0.8491,-0.858,-0.8966,-0.9739,-1.0937,-1.2868,-1.4398,-1.5447,-1.6856,-1.7579,-1.7756,-1.7036,-1.6665,-1.6685,-1.7178,-1.7383,0.0,2.0597,2.1822,2.1645,2.0389,1.8953,1.8109,1.6738,0.0,1.6725,1.7495,1.828,1.9143,1.9305,1.9528,2.0283,2.1143,2.1987,2.2813,2.3768,2.4355,0.0,2.5658,0.0,2.3162,2.3584,2.3052,0.0,0.0,0.0,1.9305,1.9305,1.9305,1.9305,1.9305,1.9561,2.0102,1.9822,2.0038,2.0799,2.0488,2.0842,2.1814,2.1088,2.0964,0.0,0.0,0.0,0.0,1.983,2.0595,2.2408,2.2134,2.2018,2.2063,2.2801,2.1951,2.0612,2.1753,2.1459,2.0721,2.1369,2.0295,1.8607,1.7854,1.9032,2.0434,1.9888,1.9383,1.9146,1.9633,2.0235,2.0786,2.1188,1.9871,1.8187,1.7313,1.6061,1.4345,1.1655,1.2367,1.2764,1.0793,1.1243,1.1059,0.8563,0.5069,0.1055,-0.3609,-0.7379,-1.0552,-1.2983,-1.3085,-1.2644,-1.1894,-1.0378,-0.9542,-0.9715,-0.979,-1.0974,-1.3501,-1.4284,-1.5858,-1.8487,-1.903,-1.9055,-1.8606,-1.7366,-1.6763,-1.6826,-1.7236,-1.7432,0.0,0.0,1.7711,1.779,1.692,1.6104,0.0,1.5509,1.5166,1.6615,1.7055,1.7605,1.9032,1.9305,1.9344,1.9546,2.028,2.1106,2.1951,2.4355,0.0,2.5201,2.6007,2.5419,2.2373,2.2244,2.184,0.0,0.0,1.9305,1.9305,1.9305,1.9305,1.9305,1.9305,1.9287,1.9272,1.9201,1.9449,1.9979,1.9687,2.0109,2.111,2.0476,2.0089,0.0,0.0,0.0,1.9393,1.8539,1.9293,2.1026,2.126,2.1487,2.1773,2.2507,2.2296,2.1518,2.1029,2.0833,2.0683,2.027,1.9682,1.9057,1.8442,1.8324,1.8424,1.8821,1.9209,1.9462,1.9516,1.9881,2.0199,1.9656,1.8714,1.7735,1.6817,1.4994,1.3119,1.176,1.0846,0.9943,0.8623,0.8614,0.7488,0.3841,0.1253,-0.1933,-0.6427,-0.9086,-1.1414,-1.3599,-1.3564,-1.3233,-1.2947,-1.1688,-1.0593,-0.9885,-1.0841,-1.2209,-1.3841,-1.5923,-1.7551,-1.8809,-1.8953,-1.8862,-1.8606,-1.7975,-1.7705,-1.7715,-1.7812,-1.7861,0.0,1.6792,1.6706,1.6145,1.5834,1.569,1.5702,1.5086,1.4964,1.6578,1.6908,1.7385,1.8996,1.9305,1.9418,1.9785,2.0556,0.0,0.0,2.3529,2.4502,2.4795,2.4905,2.4263,0.0,0.0,0.0,0.0,0.0,1.9305,1.9305,1.9305,1.9305,1.9305,1.8941,1.8768,1.8807,1.8807,1.893,1.9184,1.9044,1.9356,2.0019,1.9679,1.9473,0.0,0.0,0.0,1.9917,1.9522,2.0003,2.1072,2.1626,2.1614,2.1436,2.2508,2.2371,2.1628,2.1385,2.0854,2.0169,1.9347,1.8589,1.7843,1.7024,1.6673,1.6842,1.8124,1.9242,1.9883,1.9622,2.0252,2.077,1.9907,1.8938,1.7685,1.591,1.4212,1.2158,0.9464,0.8723,0.7804,0.5328,0.5319,0.4218,0.0076,-0.2622,-0.5391,-0.8827,-1.1544,-1.37,-1.5139,-1.486,-1.4697,-1.4877,-1.3882,-1.266,-1.1358,-1.2551,-1.4023,-1.5656,-1.7863,-1.9634,-2.0802,-1.9876,-1.9437,-1.949,-1.8339,-1.7822,-1.8008,-1.8008,-1.8008,1.7211,1.7346,1.7553,1.5872,1.5893,1.6255,1.5953,1.5362,1.5294,1.678,1.7073,1.7532,1.9032,1.9399,1.9711,2.0393,0.0,0.0,2.3749,2.3125,2.2887,2.3896,2.3419,0.0,2.2299,0.0,0.0,0.0,0.0,1.9106,1.9106,1.8996,1.8922,1.8922,1.8232,1.7998,1.8287,1.8393,1.8464,1.8464,1.8408,1.8554,1.8878,1.8843,1.89,0.0,0.0,0.0,2.0928,2.0975,2.1204,2.1556,2.2115,2.1794,2.1151,2.2359,2.2236,2.1547,2.2185,2.1115,1.9279,1.8667,1.7492,1.6126,1.5127,1.5127,1.5869,1.7513,1.8964,1.9959,1.9733,2.058,2.1227,2.0246,1.9103,1.752,1.4537,1.314,1.1056,0.6519,0.6256,0.5631,0.2017,0.1934,0.0999,-0.3153,-0.6084,-0.867,-1.0979,-1.3895,-1.6036,-1.6729,-1.6321,-1.6235,-1.6746,-1.5992,-1.4893,-1.3457,-1.4541,-1.6184,-1.8372,-2.0082,-2.1685,-2.319,-2.1134,-2.0274,-2.0782,-1.8856,-1.8035,-1.8395,-1.8269,-1.8202,1.6651,1.7992,1.934,1.6387,1.5605,1.5773,1.6538,1.6615,1.6798,1.7715,1.7931,1.8207,1.9124,1.9858,2.0356,2.0484,0.0,2.4832,0.0,0.0,2.5199,2.34,0.0,2.1914,0.0,0.0,0.0,0.0,0.0,1.828,1.828,1.7642,1.7275,1.7275,1.6984,1.6833,1.6817,1.7513,1.7836,1.7836,1.7505,1.7683,1.831,1.81,1.7995,0.0,0.0,1.9807,1.9712,1.9994,2.0507,2.1071,2.0793,2.081,2.107,2.1443,2.1802,2.2179,2.2483,2.0501,1.7975,1.8397,1.7148,1.5448,1.4968,1.5332,1.6037,1.6337,1.7386,1.8545,1.9157,1.9509,1.9278,1.758,1.7064,1.5904,1.2089,1.0481,0.8718,0.5451,0.3555,0.2017,0.0545,-0.0388,-0.2241,-0.6395,-0.8027,-0.9986,-1.3035,-1.4836,-1.6036,-1.6729,-1.6579,-1.6488,-1.678,-1.629,-1.585,-1.5645,-1.6481,-1.8295,-2.1258,-2.2236,-2.3067,-2.3853,-2.1886,-2.1148,-2.169,-2.064,-2.0138,-2.0204,-1.9431,-1.911,1.6325,1.6879,1.7844,1.7156,1.7252,1.7625,1.81,1.7858,1.7784,1.8574,1.8739,1.8996,1.9803,2.0647,2.162,2.2942,0.0,2.5052,2.5676,2.4759,2.3584,0.0,0.0,0.0,0.0,0.0,0.0,0.0,0.0,0.0,1.744,1.7092,1.6908,1.6908,1.6383,1.6064,1.5901,1.6138,1.6469,1.6949,1.7044,1.7277,1.7604,1.748,1.7674,1.8159,0.0,1.9144,1.9211,1.9752,2.0035,2.0129,2.0242,2.0296,2.0366,2.0813,2.1418,2.1961,2.1719,1.9872,1.7711,1.8215,1.6711,1.4718,1.4531,1.4529,1.4666,1.4666,1.6027,1.7624,1.7764,1.7765,1.7387,1.6131,1.4993,1.3267,0.984,0.7788,0.5587,0.2116,0.0615,-0.0622,-0.2257,-0.3418,-0.5254,-0.8755,-1.0402,-1.2214,-1.4924,-1.6602,-1.7755,-1.8274,-1.8486,-1.8566,-1.8438,-1.7846,-1.7389,-1.7144,-1.7718,-1.9346,-2.2246,-2.2406,-2.296,-2.3991,-2.2347,-2.1628,-2.1877,-2.1049,-2.059,-2.059,-2.0204,-1.9759,1.6153,1.6078,1.6695,1.7831,1.8427,1.8996,1.995,1.9693,1.9491,2.028,2.0446,2.0519,2.0758,2.1345,0.0,2.5017,2.5403,2.5089,2.4245,2.3272,2.2574,2.239,0.0,0.0,0.0,0.0,0.0,0.0,0.0,0.0,1.6615,1.6431,1.6248,1.6065,1.5543,1.5137,1.4841,1.4872,1.5239,1.5955,1.6323,1.6574,1.6747,1.692,1.7335,1.7906,1.8442,1.8632,1.8658,1.9347,1.9452,1.9215,1.9734,2.0025,2.0199,2.0596,2.1107,2.1615,2.1028,1.9374,1.7634,1.7776,1.6201,1.4136,1.3859,1.3612,1.341,1.3418,1.4586,1.5936,1.5894,1.5635,1.5113,1.4011,1.2347,1.0225,0.6985,0.4656,0.2124,-0.1425,-0.2601,-0.3565,-0.5134,-0.6213,-0.788,-1.065,-1.2274,-1.4017,-1.6116,-1.8144,-1.9344,-1.9404,-2.0079,-2.0393,-2.0048,-1.9391,-1.8871,-1.8333,-1.8733,-2.0084,-2.2626,-2.2282,-2.271,-2.3991,-2.28,-2.2199,-2.2199,-2.1479,-2.1164,-2.1164,-2.0974,-2.0462,1.6089,1.6879,1.7982,1.8078,1.7568,1.8064,2.1877,2.2703,2.2887,2.3676,0.0,0.0,0.0,2.1766,2.2592,2.5017,2.5403,2.588,2.7255,0.0,2.487,0.0,0.0,0.0,0.0,0.0,0.0,0.0,0.0,0.0,1.5784,1.5086,1.4334,1.3574,1.3879,1.3757,1.3191,1.4069,1.4657,1.4899,1.4758,1.5039,1.5736,1.6414,1.6601,1.6482,1.8524,1.8658,1.749,1.822,1.85,1.8486,1.8743,1.9951,2.1481,2.0915,2.1107,2.1615,2.1028,1.9374,1.7457,1.6768,1.5458,1.3963,1.2848,1.2992,1.3537,1.341,1.2832,1.2417,1.3408,1.3026,1.1899,0.9834,0.8694,0.6985,0.2876,0.0441,-0.1551,-0.391,-0.594,-0.7331,-0.7487,-0.8353,-0.9728,-1.1784,-1.3164,-1.4572,-1.6198,-1.8578,-1.9778,-1.8881,-2.006,-2.086,-2.0565,-2.047,-2.0073,-1.927,-1.9702,-2.0785,-2.2586,-2.2691,-2.3086,-2.3991,-2.3366,-2.3005,-2.3005,-2.2944,-2.2944,-2.2884,-2.2125,-2.1365,1.5887,1.6675,1.7808,1.8636,1.861,1.9326,2.2923,2.3749,2.3969,2.4777,2.5346,0.0,0.0,0.0,2.4376,2.5355,2.5444,2.5439,2.5548,2.4612,0.0,0.0,0.0,0.0,0.0,0.0,0.0,0.0,0.0,0.0,1.3453,1.3178,1.2866,1.2564,1.2695,1.2572,1.2133,1.2507,1.2621,1.2521,1.3871,1.4646,1.4952,1.568,1.5966,1.5967,1.7261,1.7278,1.6408,1.7076,1.7349,1.7394,1.79,1.9331,2.0965,1.9877,2.0446,2.1554,2.0534,1.8867,1.7165,1.6695,1.4965,1.2974,1.2567,1.2206,1.1891,1.1587,1.079,1.0366,1.2059,1.0957,0.8969,0.757,0.5486,0.294,-0.0358,-0.2842,-0.4978,-0.7009,-0.8112,-0.8878,-0.9445,-1.0439,-1.1777,-1.372,-1.5189,-1.6466,-1.777,-1.9315,-2.0325,-2.0441,-2.1126,-2.1528,-2.1416,-2.091,-2.0462,-2.0139,-1.9788,-2.0279,-2.1847,-2.156,-2.219,-2.3991,-2.3427,-2.3078,-2.3078,-2.3078,-2.3078,-2.3078,-2.2823,-2.1928,1.568,1.6058,1.6809,1.8503,1.9106,2.0241,2.3768,2.4575,2.5016,2.6576,2.6602,2.5834,2.4264,0.0,0.0,0.0,2.4137,2.408,2.3511,2.296,0.0,0.0,0.0,0.0,0.0,0.0,0.0,0.0,0.0,0.0,0.0,1.1856,1.1728,1.1728,1.19,1.175,1.1229,1.1411,1.1373,1.1113,1.2686,1.3565,1.3819,1.4489,1.499,1.54,1.6051,1.6126,1.5829,1.6263,1.6532,1.6756,1.7204,1.8609,2.024,1.9169,1.9912,2.1232,1.9914,1.8382,1.6844,1.5953,1.4138,1.2173,1.1802,1.129,1.0771,1.0353,0.9542,0.9005,0.9901,0.8452,0.6284,0.4569,0.2129,-0.0714,-0.3639,-0.5988,-0.7992,-0.9332,-1.0222,-1.092,-1.1556,-1.2701,-1.4063,-1.5756,-1.7337,-1.852,-1.9194,-2.033,-2.1281,-2.1732,-2.194,-2.214,-2.2553,-2.2001,-2.1545,-2.1277,-2.084,-2.093,-2.1552,-2.122,-2.1843,-2.3654,-2.3339,-2.3078,-2.3078,-2.3078,-2.3078,-2.3078,-2.3078,-2.2372,1.5472,1.5123,1.5105,1.7509,1.872,2.0388,2.4484,2.5403,2.6303,2.9494,2.7777,2.5152,2.3345,2.2467,0.0,2.0662,2.1235,2.1784,2.1784,0.0,0.0,0.0,0.0,0.0,0.0,0.0,0.0,0.0,0.0,0.0,0.0,1.1297,1.0875,1.0893,1.1463,1.1316,1.0408,1.0974,1.1212,1.1079,1.1079,1.1502,1.2298,1.2788,1.3556,1.4615,1.5068,1.548,1.5784,1.5784,1.6144,1.6697,1.6666,1.7905,1.9615,1.899,1.961,2.0597,1.9178,1.7949,1.6618,1.4417,1.2884,1.168,1.0432,1.0327,1.0483,1.0015,0.934,0.8349,0.65,0.5327,0.3799,0.0574,-0.1637,-0.3806,-0.7017,-0.9218,-1.064,-1.081,-1.2412,-1.3673,-1.3745,-1.523,-1.6793,-1.7784,-1.9544,-2.0594,-2.0262,-2.1614,-2.2531,-2.2292,-2.2297,-2.2774,-2.3891,-2.3991,-2.3653,-2.2791,-2.3215,-2.3036,-2.1925,-2.1889,-2.2261,-2.3065,-2.3078,-2.3078,-2.3078,-2.3078,-2.3078,-2.3078,-2.3078,-2.2689,1.5648,1.6146,1.6899,1.8652,2.0083,2.1969,2.5456,2.5364,2.5038,0.0,2.6321,2.5237,2.3771,2.318,0.0,2.1078,2.0859,2.0684,0.0,0.0,0.0,0.0,0.0,0.0,0.0,0.0,0.0,0.0,0.0,0.0,0.0,0.8798,0.889,1.0021,0.9588,0.943,0.962,0.9715,0.9675,0.9552,0.9552,1.0229,1.1485,1.204,1.2608,1.3188,1.4178,1.4525,1.4423,1.4887,1.5186,1.5382,1.5521,1.7011,1.8871,1.7426,1.8244,1.9775,1.8078,1.6557,1.5127,1.3478,1.2074,1.0838,0.9567,0.9301,0.9267,0.8472,0.7952,0.736,0.5521,0.3251,0.0811,-0.1652,-0.3717,-0.5915,-0.9093,-1.0244,-1.0923,-1.1681,-1.2865,-1.3882,-1.4665,-1.6296,-1.7957,-1.9468,-2.1163,-2.2185,-2.195,-2.2296,-2.223,-2.1277,-2.1845,-2.2598,-2.3326,-2.3389,-2.3604,-2.4122,-2.3961,-2.3252,-2.1975,-2.2234,-2.2636,-2.3078,-2.3078,-2.3078,-2.3078,-2.3078,-2.3078,-2.3078,-2.3078,-2.2689,1.5303,1.6071,1.7195,1.9053,2.0907,2.2868,2.5126,2.5897,2.6195,0.0,2.6098,2.522,2.3697,2.2813,0.0,2.0116,1.9401,0.0,0.0,0.0,0.0,0.0,0.0,0.0,0.0,0.0,0.0,0.0,0.0,0.0,0.0,0.7237,0.739,0.8713,0.8205,0.8206,0.8824,0.8741,0.8781,0.8891,0.8891,0.9365,1.0233,1.0735,1.1528,1.255,1.3628,1.4004,1.3829,1.4323,1.4534,1.4567,1.4996,1.6104,1.7382,1.6645,1.7158,1.7961,1.6732,1.5426,1.3905,1.2138,1.0925,0.9847,0.8616,0.8397,0.8385,0.7504,0.7053,0.6324,0.4031,0.1137,-0.1552,-0.3308,-0.5548,-0.7973,-1.0719,-1.1359,-1.162,-1.215,-1.3375,-1.4522,-1.5092,-1.7328,-1.938,-2.0687,-2.2439,-2.3523,-2.3366,-2.2924,-2.2269,-2.1441,-2.192,-2.2623,-2.3414,-2.3678,-2.4092,-2.4782,-2.4921,-2.4327,-2.2811,-2.3028,-2.3194,-2.309,-2.3078,-2.3078,-2.3078,-2.3078,-2.3078,-2.3078,-2.3078,-2.2823,1.4819,1.5394,1.6581,1.9008,2.1426,2.3437,2.4245,2.6576,2.8301,2.7371,0.0,2.5021,2.316,2.1665,2.0122,1.8411,0.0,0.0,0.0,0.0,0.0,0.0,0.0,0.0,0.0,0.0,0.0,0.0,0.0,0.0,0.0,0.635,0.6332,0.7267,0.7224,0.7449,0.8003,0.7987,0.8221,0.0,0.8716,0.8688,0.8711,0.913,1.0398,1.2356,1.3143,1.3525,1.3623,1.3807,1.3884,1.397,1.4754,1.5186,1.5447,1.6219,1.6143,1.56,1.5039,1.4163,1.2869,1.059,0.9485,0.8795,0.7581,0.7417,0.7611,0.681,0.6299,0.518,0.2165,-0.0834,-0.3432,-0.4771,-0.7265,-0.9913,-1.1998,-1.2372,-1.2305,-1.2445,-1.3947,-1.5234,-1.5234,-1.8218,-2.0939,-2.1908,-2.3616,-2.4727,-2.4512,-2.35,-2.2625,-2.2299,-2.2284,-2.2774,-2.3904,-2.4456,-2.4808,-2.4958,-2.5862,-2.5711,-2.4205,-2.4104,-2.3778,-2.3078,-2.3078,-2.3078,-2.3078,-2.3078,-2.3078,-2.3078,-2.3078,-2.3078,1.5644,1.6239,1.7417,1.9843,2.2679,2.5089,2.5897,2.564,2.4688,2.2704,2.3622,2.4081,2.1915,2.06,1.9511,1.849,0.0,0.0,0.0,0.0,0.0,0.0,0.0,0.0,0.0,0.0,0.0,0.0,0.0,0.0,0.6235,0.5497,0.574,0.7248,0.6578,0.6562,0.7301,0.7157,0.714,0.0,0.719,0.7145,0.7132,0.8149,0.9436,1.0858,1.1045,1.1583,1.2312,1.2361,1.2375,1.2441,1.3141,1.3989,1.4749,1.3843,1.4135,1.4609,1.2392,1.1388,1.084,0.911,0.8229,0.7699,0.6616,0.6037,0.555,0.4831,0.4212,0.3106,0.0225,-0.2338,-0.5055,-0.8215,-0.9697,-1.0906,-1.294,-1.2806,-1.2519,-1.3237,-1.4378,-1.5234,-1.5234,-1.8218,-2.1483,-2.4173,-2.5937,-2.6352,-2.4727,-2.4281,-2.3487,-2.1863,-2.2058,-2.2774,-2.3904,-2.4104,-2.4732,-2.6025,-2.59,-2.5624,-2.5272,-2.4858,-2.4167,-2.309,-2.3078,-2.3078,-2.3078,-2.3078,-2.3078,-2.3078,-2.3078,-2.3078,1.5525,1.5959,1.717,1.9922,2.3032,2.5311,2.4961,2.4226,2.307,2.1065,2.2023,2.2611,2.0611,1.9494,1.8369,0.0,0.0,0.0,0.0,0.0,0.0,0.0,0.0,0.0,0.0,0.0,0.0,0.0,0.0,0.4831,0.5343,0.4975,0.5174,0.6075,0.5633,0.5746,0.6514,0.6423,0.6511,0.6797,0.6773,0.6761,0.6837,0.7978,0.9022,0.9953,1.0441,1.0843,1.1139,1.1281,1.1173,1.1088,1.1931,1.2456,1.2686,1.2532,1.2323,1.1925,1.0725,0.982,0.8947,0.7809,0.7231,0.6719,0.5373,0.4769,0.4425,0.3621,0.2531,0.1067,-0.1196,-0.3922,-0.6776,-0.9635,-1.1181,-1.2518,-1.4053,-1.4019,-1.381,-1.4314,-1.5234,-1.586,-1.586,-1.9055,-2.2418,-2.4627,-2.6489,-2.7056,-2.5653,-2.5171,-2.4395,-2.2972,-2.2756,-2.305,-2.3916,-2.4593,-2.5282,-2.6043,-2.6633,-2.6713,-2.608,-2.5749,-2.4958,-2.3577,-2.3276,-2.3078,-2.3078,-2.3078,-2.3078,-2.3078,-2.3078,-2.3078,1.548,1.5775,1.6917,1.9617,2.2446,2.4208,2.2868,2.2557,2.2135,2.0594,2.0978,2.107,1.9399,1.8445,1.716,0.0,0.0,0.0,0.0,0.0,0.0,0.0,0.0,0.0,0.0,0.0,0.0,0.0,0.0,0.4552,0.467,0.4675,0.4715,0.4761,0.4765,0.5057,0.5674,0.5674,0.5917,0.6417,0.6387,0.6529,0.6842,0.7709,0.8531,0.9312,1.0079,1.027,1.0059,1.0212,0.9985,0.9623,1.0616,1.0611,1.0154,1.1148,1.0393,0.8877,0.9118,0.8385,0.7159,0.6407,0.6073,0.5694,0.4095,0.3582,0.3374,0.2477,0.0998,-0.0684,-0.2732,-0.5467,-0.8216,-1.0509,-1.2585,-1.4171,-1.5021,-1.5234,-1.5234,-1.5438,-1.6201,-1.6954,-1.7406,-2.0597,-2.3412,-2.4652,-2.6396,-2.7357,-2.6616,-2.596,-2.5287,-2.4567,-2.4021,-2.3914,-2.4502,-2.5713,-2.6288,-2.5826,-2.7533,-2.7871,-2.6395,-2.6471,-2.5774,-2.4305,-2.3715,-2.3265,-2.3078,-2.3178,-2.3226,-2.3078,-2.3078,-2.3078,1.6915,1.7331,1.807,1.9194,2.0317,2.109,2.0869,2.0833,2.0558,0.0,2.0115,2.0189,1.8555,1.7587,1.6505,0.0,0.0,0.0,0.0,0.0,0.0,0.0,0.0,0.0,0.0,0.0,0.0,0.0,0.4496,0.4532,0.4606,0.4611,0.4615,0.4625,0.4625,0.4673,0.477,0.477,0.4808,0.4892,0.4714,0.5136,0.6052,0.6078,0.7048,0.8697,0.8478,0.8609,0.8989,0.8662,0.8206,0.7712,0.8343,0.8384,0.8164,0.8075,0.7747,0.7202,0.638,0.5908,0.5483,0.4523,0.4248,0.4082,0.2999,0.2183,0.1473,0.0455,-0.0473,-0.1908,-0.5227,-0.6773,-0.8568,-1.2766,-1.4393,-1.5021,-1.5163,-1.5234,-1.5446,-1.628,-1.7142,-1.8435,-2.0624,-2.2635,-2.4423,-2.598,-2.7027,-2.7357,-2.6616,-2.6404,-2.6068,-2.5342,-2.5697,-2.6188,-2.6731,-2.7454,-2.7591,-2.6801,-2.7854,-2.7676,-2.5816,-2.6189,-2.6113,-2.5398,-2.4858,-2.4117,-2.3078,-2.364,-2.3627,-2.3078,-2.3078,-2.3078,1.5993,1.6546,1.7403,1.7307,1.8225,1.9036,1.8595,1.8485,1.8375,1.8041,1.8229,1.8119,1.6977,1.6114,1.5019,0.0,0.0,0.0,0.0,0.0,0.0,0.0,0.0,0.0,0.0,0.0,0.0,0.0,0.4504,0.4514,0.4542,0.4542,0.4562,0.4596,0.4601,0.4615,0.4652,0.4652,0.486,0.5278,0.5258,0.5554,0.6106,0.5646,0.6335,0.7912,0.7633,0.7611,0.7758,0.744,0.698,0.6521,0.6584,0.644,0.6122,0.5851,0.5375,0.4895,0.4514,0.4068,0.3657,0.3283,0.2965,0.2463,0.1513,0.063,-0.0266,-0.1229,-0.2165,-0.3474,-0.5953,-0.7522,-0.915,-1.1997,-1.3538,-1.4474,-1.4759,-1.5861,-1.707,-1.7939,-1.8392,-1.9381,-2.1572,-2.3122,-2.4525,-2.585,-2.6916,-2.7458,-2.7152,-2.6774,-2.6404,-2.6068,-2.6218,-2.6602,-2.7152,-2.8226,-2.8657,-2.8085,-2.8833,-2.8599,-2.7307,-2.7031,-2.6653,-2.6088,-2.5259,-2.4418,-2.3615,-2.3879,-2.3703,-2.3078,-2.3078,-2.3078,1.5217,1.549,1.6031,1.5276,1.6107,1.6904,1.6156,0.0,1.623,0.0,1.5991,1.5747,1.4921,1.4628,1.3901,0.0,0.0,0.0,0.0,0.0,0.0,0.0,0.0,0.0,0.0,0.0,0.0,0.0,0.4499,0.4499,0.4492,0.4492,0.4518,0.457,0.457,0.4599,0.4643,0.4871,0.5333,0.6024,0.6029,0.6101,0.6201,0.5438,0.5694,0.6712,0.6586,0.6543,0.6538,0.6195,0.5756,0.5334,0.4943,0.4635,0.4348,0.3936,0.3364,0.2745,0.2815,0.2461,0.1919,0.18,0.1392,0.0842,-0.0118,-0.0858,-0.1546,-0.255,-0.3609,-0.4836,-0.6567,-0.8204,-0.9779,-1.1487,-1.2841,-1.3958,-1.4808,-1.6696,-1.8388,-1.9145,-1.9792,-2.0705,-2.2339,-2.3774,-2.508,-2.6017,-2.6994,-2.7625,-2.7625,-2.7247,-2.7021,-2.7021,-2.7281,-2.7569,-2.7977,-2.9174,-2.9604,-2.8816,-2.9559,-2.9321,-2.7808,-2.7583,-2.7168,-2.6546,-2.5661,-2.4833,-2.4004,-2.4142,-2.3841,-2.3078,-2.3078,-2.3153,1.5698,1.4994,1.4197,1.3578,1.3907,1.4234,1.3633,0.0,1.4407,1.3647,1.3482,1.3243,1.2444,1.3508,1.3684,0.0,0.0,0.0,0.0,0.0,0.0,0.0,0.0,0.0,0.0,0.0,0.0,0.0,0.4499,0.4499,0.4505,0.4505,0.4505,0.4511,0.4511,0.4504,0.4506,0.5325,0.6041,0.6641,0.6276,0.6063,0.5978,0.5193,0.4833,0.4853,0.495,0.516,0.5335,0.4748,0.4285,0.385,0.3383,0.3126,0.2926,0.2357,0.1752,0.1223,0.1062,0.0706,0.0168,-0.0636,-0.0759,-0.0759,-0.1756,-0.1999,-0.2195,-0.3423,-0.4397,-0.5581,-0.7769,-0.9149,-1.0596,-1.2675,-1.3427,-1.4235,-1.6114,-1.7598,-1.871,-1.9215,-2.1209,-2.3081,-2.3838,-2.5342,-2.664,-2.7363,-2.7545,-2.7625,-2.7625,-2.8143,-2.8495,-2.8495,-2.9545,-3.0306,-3.0335,-3.0962,-3.047,-2.8371,-2.9725,-2.9121,-2.587,-2.7218,-2.7557,-2.6546,-2.6471,-2.5598,-2.4004,-2.4519,-2.4217,-2.3078,-2.3078,-2.3427,1.4921,1.4581,1.4277,1.3802,1.3593,1.3431,1.3163,1.2968,1.2764,1.2562,1.2527,1.2278,1.148,1.1792,1.1863,0.0,0.0,0.0,0.0,0.0,0.0,0.0,0.0,0.0,0.0,0.0,0.0,0.0,0.0,0.4499,0.4499,0.4499,0.4499,0.4499,0.4499,0.4754,0.5266,0.6516,0.726,0.7466,0.7287,0.7004,0.6592,0.5274,0.4499,0.4139,0.3288,0.3423,0.4246,0.3866,0.3721,0.3726,0.2747,0.2333,0.2064,0.1073,0.0573,0.0318,-0.0103,-0.0362,-0.0631,-0.1414,-0.2245,-0.3014,-0.3477,-0.4349,-0.5262,-0.5858,-0.6345,-0.7021,-0.8777,-1.0153,-1.1627,-1.3987,-1.4331,-1.4665,-1.6227,-1.788,-1.9404,-2.0595,-2.1993,-2.3566,-2.5315,-2.6147,-2.6774,-2.7509,-2.7625,-2.7625,-2.7625,-2.8173,-2.8607,-2.8607,-2.9744,-3.0507,-3.0507,-3.1135,-3.1102,-3.0145,-2.9756,-2.8942,-2.7491,-2.7682,-2.7644,-2.7297,-2.7367,-2.6516,-2.4519,-2.472,-2.4243,-2.3078,-2.3514,-2.3803,1.4805,0.0,1.4185,1.3716,1.3226,1.2675,1.1933,1.138,1.0971,1.0822,1.062,1.0355,1.0057,0.9834,0.9725,0.9843,0.0,0.0,0.0,0.0,0.0,0.0,0.0,0.0,0.0,0.0,0.0,0.0,0.0,0.0,0.4493,0.4493,0.4499,0.4499,0.4766,0.5287,0.6098,0.7295,0.7968,0.8126,0.7906,0.7416,0.6639,0.5239,0.4183,0.3398,0.2288,0.2302,0.3103,0.271,0.2766,0.297,0.1971,0.1524,0.1333,0.0154,-0.0313,-0.0424,-0.1274,-0.1709,-0.2021,-0.2826,-0.3874,-0.4896,-0.5325,-0.6059,-0.6875,-0.747,-0.7809,-0.8378,-0.9934,-1.1574,-1.3224,-1.4828,-1.5283,-1.5644,-1.6401,-1.8148,-1.992,-2.144,-2.283,-2.4292,-2.5863,-2.6576,-2.696,-2.7225,-2.7475,-2.77,-2.7889,-2.8502,-2.9101,-2.9535,-3.0342,-3.0941,-3.1165,-3.139,-3.1338,-3.0859,-2.9862,-2.8937,-2.8264,-2.7795,-2.7613,-2.767,-2.7857,-2.712,-2.5512,-2.5256,-2.4557,-2.3439,-2.4004,-2.4368,0.0,0.0,0.0,0.0,0.0,0.0,0.9844,0.0,0.9117,0.8379,0.7709,0.7425,0.8055,0.7685,0.7482,0.8037,0.0,0.0,0.0,0.0,0.0,0.0,0.0,0.0,0.0,0.0,0.0,0.0,0.4575,0.4577,0.4496,0.453,0.4538,0.4533,0.5338,0.6133,0.6926,0.7596,0.8143,0.8603,0.8057,0.719,0.6059,0.5057,0.386,0.255,0.2004,0.1841,0.1921,0.1345,0.1311,0.1519,0.0926,0.0772,0.0744,-0.0479,-0.0958,-0.1165,-0.2492,-0.3357,-0.4019,-0.5054,-0.5705,-0.6302,-0.7356,-0.7136,-0.6812,-0.8063,-0.8771,-0.9544,-1.1276,-1.3485,-1.5234,-1.5305,-1.6305,-1.7206,-1.6788,-1.8434,-2.0369,-2.1504,-2.3729,-2.5423,-2.5529,-2.6695,-2.735,-2.6692,-2.7156,-2.7814,-2.8502,-2.916,-3.0043,-3.1345,-3.1422,-3.1734,-3.2377,-3.1854,-3.1146,-3.0358,-3.0031,-2.9195,-2.7802,-2.7524,-2.748,-2.7749,-2.771,-2.7498,-2.6993,-2.6285,-2.5236,-2.4042,-2.4594,-2.5121,1.4432,0.0,0.0,0.0,0.0,0.0,0.0,0.0,0.9788,0.9189,0.8496,0.7893,0.7538,0.7259,0.6943,0.6532,0.0,0.0,0.0,0.0,0.0,0.0,0.0,0.0,0.0,0.0,0.0,0.0,0.4156,0.4564,0.451,0.5151,0.545,0.5308,0.6537,0.7336,0.7549,0.8158,0.8537,0.8665,0.7936,0.7009,0.5918,0.4819,0.359,0.2254,0.1494,0.1025,0.0869,0.1035,0.1292,0.1479,0.0363,0.0,-0.0051,-0.1365,-0.217,-0.2833,-0.4111,-0.5022,-0.5828,-0.7098,-0.7993,-0.8602,-0.8994,-0.9328,-0.9844,-1.1073,-1.1491,-1.2101,-1.4279,-1.5437,-1.6408,-1.7842,-1.8682,-1.9264,-1.9473,-2.1192,-2.2653,-2.2552,-2.4063,-2.5586,-2.6167,-2.7026,-2.735,-2.6692,-2.7156,-2.7814,-2.8502,-2.8757,-2.919,-3.0043,-3.0118,-3.0193,-3.0387,-3.0627,-3.0835,-3.0888,-3.0825,-3.0257,-2.9032,-2.9188,-2.9037,-2.8634,-2.8761,-2.8806,-2.8743,-2.7309,-2.5908,-2.4607,-2.5134,-2.5686,0.0,0.0,0.0,0.0,0.0,0.0,1.1616,1.0501,0.9394,0.0,0.7445,0.6671,0.6565,0.625,0.5841,0.5343,0.0,0.0,0.0,0.0,0.0,0.0,0.0,0.0,0.0,0.2022,0.1943,0.351,0.4198,0.4279,0.3655,0.5072,0.6,0.622,0.7161,0.7619,0.7465,0.8209,0.845,0.8198,0.7607,0.6626,0.5283,0.4317,0.3066,0.1611,0.0979,0.0384,-0.0129,0.0139,0.0386,0.0434,-0.0647,-0.1223,-0.1538,-0.262,-0.3675,-0.473,-0.5873,-0.7122,-0.8343,-0.9219,-1.0222,-1.1064,-1.1291,-1.1478,-1.1867,-1.3186,-1.4135,-1.52,-1.6944,-1.7789,-1.8445,-1.9596,-2.0193,-2.0621,-2.1008,-2.2488,-2.3615,-2.3403,-2.4703,-2.603,-2.6495,-2.7141,-2.735,-2.6692,-2.7395,-2.8248,-2.8921,-2.9235,-2.9654,-3.0328,-3.0392,-3.0357,-3.0357,-3.0691,-3.1121,-3.1619,-3.1387,-3.0623,-2.9362,-2.9184,-2.8981,-2.8692,-2.8774,-2.9137,-2.9752,-2.8154,-2.6698,-2.5511,-2.5812,-2.6138,0.0,0.0,0.0,0.0,0.0,0.0,1.0842,0.981,0.8885,0.0,0.6045,0.5225,0.589,0.5383,0.4859,0.4862,0.4777,0.0,0.0,0.0,0.0,0.0,0.0,0.0,0.4009,0.1573,0.1264,0.4305,0.451,0.3966,0.2716,0.4737,0.6278,0.7076,0.7335,0.7348,0.7123,0.7903,0.8022,0.7457,0.7142,0.6089,0.4384,0.3635,0.2389,0.0791,0.0417,-0.0179,-0.0949,-0.1046,-0.1029,-0.1078,-0.1924,-0.263,-0.3352,-0.4219,-0.5401,-0.6699,-0.7753,-0.9338,-1.0998,-1.1384,-1.2206,-1.3181,-1.3736,-1.3387,-1.315,-1.4738,-1.6666,-1.8441,-1.9244,-2.0233,-2.1003,-2.1003,-2.138,-2.1846,-2.2077,-2.312,-2.409,-2.4341,-2.5535,-2.6518,-2.6594,-2.7141,-2.735,-2.6692,-2.7739,-2.8831,-2.949,-2.9998,-3.0552,-3.124,-3.108,-3.1019,-3.1056,-3.1133,-3.1504,-3.2237,-3.1664,-3.0754,-2.9387,-2.857,-2.8248,-2.846,-2.8507,-2.9153,-3.0329,-2.8834,-2.7608,-2.6658,-2.6714,-2.6714,0.0,0.0,0.0,0.0,0.0,0.0,1.2837,1.2177,1.1437,0.0,0.9344,0.8347,0.8541,0.7462,0.6671,0.7089,0.6163,0.0,0.0,0.0,0.0,0.0,0.0,0.0,0.088,0.0338,0.1318,0.4497,0.4642,0.4459,0.4191,0.5365,0.6378,0.7076,0.7211,0.7462,0.7889,0.775,0.7503,0.7173,0.6645,0.5486,0.3822,0.3031,0.1759,0.0147,-0.0302,-0.077,-0.1279,-0.1938,-0.1955,-0.1753,-0.3223,-0.3834,-0.4207,-0.6233,-0.7471,-0.8423,-0.9818,-1.0933,-1.1953,-1.3477,-1.3552,-1.3302,-1.4729,-1.4429,-1.4155,-1.6442,-1.8635,-2.0435,-2.1039,-2.2298,-2.3398,-2.3398,-2.4347,-2.5135,-2.4778,-2.5672,-2.6442,-2.6085,-2.6269,-2.6518,-2.6594,-2.7141,-2.735,-2.6692,-2.7739,-2.8831,-2.949,-2.922,-2.922,-2.9894,-2.9019,-2.8521,-2.9002,-2.9546,-3.0381,-3.1519,-3.1971,-3.1764,-3.0821,-3.0192,-2.9832,-2.99,-3.0528,-3.0646,-3.0329,-2.9316,-2.8319,-2.7484,-2.8182,-2.8117,0.0,0.0,0.0,1.3429,0.0,0.0,0.0,1.2246,1.154,1.1011,0.9985,0.9208,0.9237,0.832,0.7602,0.7769,0.6554,0.5589,0.0,0.0,0.0,0.0,0.0,0.0,0.006,0.1353,0.2952,0.4676,0.474,0.471,0.471,0.4294,0.4553,0.5618,0.6531,0.7073,0.7209,0.7062,0.6747,0.6252,0.5501,0.4244,0.254,0.1797,0.0653,-0.0777,-0.1241,-0.182,-0.2441,-0.3011,-0.3371,-0.3619,-0.4359,-0.5065,-0.5873,-0.7516,-0.9023,-1.0418,-1.1675,-1.2626,-1.3552,-1.4951,-1.5042,-1.485,-1.597,-1.657,-1.7352,-1.9522,-2.1148,-2.2429,-2.3335,-2.4147,-2.4743,-2.4743,-2.531,-2.5827,-2.5907,-2.6458,-2.6909,-2.7041,-2.7034,-2.7049,-2.7076,-2.74,-2.7505,-2.7126,-2.7949,-2.8727,-2.9056,-2.9086,-2.9086,-2.9086,-2.8767,-2.8541,-2.8494,-2.9407,-3.0397,-3.1334,-3.1763,-3.1599,-3.0823,-3.017,-2.9838,-2.9838,-3.0925,-3.1278,-3.0896,-3.045,-2.9566,-2.8363,-2.8812,-2.8556,0.0,0.0,0.0,0.0,0.0,1.3244,0.0,0.0,0.0,1.1031,0.0,0.0,0.0,0.0,0.0,0.0,0.0,0.0,0.0,0.0,0.0,0.0,0.0,0.0,0.0,0.3026,0.458,0.474,0.4939,0.4871,0.45,0.3204,0.3071,0.4345,0.5766,0.6384,0.6186,0.6198,0.5831,0.5092,0.4166,0.2815,0.1096,0.0399,-0.0544,-0.1678,-0.2272,-0.2988,-0.3798,-0.4216,-0.4878,-0.5588,-0.555,-0.6288,-0.751,-0.874,-1.0362,-1.2138,-1.3165,-1.3947,-1.4731,-1.58,-1.6371,-1.6675,-1.7006,-1.8507,-2.044,-2.2021,-2.3188,-2.4225,-2.5176,-2.5618,-2.5837,-2.5837,-2.5837,-2.6,-2.6549,-2.6721,-2.6878,-2.7458,-2.7625,-2.758,-2.7445,-2.7535,-2.758,-2.7445,-2.8083,-2.8607,-2.8607,-2.9175,-2.9325,-2.8667,-2.9027,-2.9123,-2.8525,-2.9593,-3.0521,-3.0979,-3.1232,-3.1051,-3.044,-3.0177,-2.9959,-2.9842,-3.1056,-3.1601,-3.1482,-3.1482,-3.0718,-2.9254,-2.9254,-2.8876,0.0,0.0,0.0,0.0,1.3396,0.0,0.0,0.0,1.3174,1.3208,0.0,0.0,0.0,0.0,0.0,0.0,0.0,0.0,0.7747,0.696,0.0,0.0,0.0,0.0,0.0,0.4092,0.4532,0.4612,0.5448,0.5174,0.3393,0.3889,0.4488,0.507,0.528,0.5502,0.5759,0.5373,0.4772,0.398,0.2864,0.1561,0.012,-0.071,-0.1474,-0.2188,-0.3242,-0.4054,-0.4724,-0.5522,-0.622,-0.6745,-0.702,-0.7491,-0.8219,-1.0217,-1.1691,-1.2821,-1.3566,-1.3942,-1.4313,-1.5779,-1.6917,-1.7653,-1.7381,-1.8906,-2.0914,-2.1562,-2.3478,-2.5369,-2.5383,-2.6375,-2.7357,-2.7357,-2.7357,-2.7357,-2.7458,-2.7473,-2.7509,-2.7575,-2.7625,-2.738,-2.6797,-2.7186,-2.743,-2.6782,-2.7784,-2.8607,-2.8607,-2.9175,-2.9325,-2.8667,-2.8644,-2.8652,-2.8525,-2.9159,-2.9623,-2.9701,-3.0299,-3.0578,-3.047,-3.1573,-3.1886,-3.1304,-3.2004,-3.2123,-3.1482,-3.1482,-3.1029,-3.0133,-3.0133,-3.0072,0.0,0.0,0.0,0.0,0.0,0.0,1.3363,0.0,1.3429,0.0,0.0,0.0,0.0,0.0,0.0,0.0,0.9857,0.0,0.0,0.0,0.6678,0.0,0.0,0.0,0.0,0.0,0.0,0.0,0.4961,0.4823,0.402,0.4157,0.4318,0.4436,0.4822,0.4907,0.4664,0.4274,0.3484,0.2332,0.0994,-0.0328,-0.1649,-0.253,-0.3307,-0.4072,-0.5251,-0.6113,-0.6792,-0.7923,-0.8457,-0.8662,-0.9527,-0.9763,-0.981,-1.1122,-1.2365,-1.3449,-1.3772,-1.3687,-1.3633,-1.487,-1.6527,-1.8173,-1.8999,-2.0782,-2.2757,-2.4118,-2.5313,-2.6262,-2.6585,-2.7137,-2.7625,-2.7625,-2.7874,-2.8053,-2.7664,-2.7889,-2.8053,-2.77,-2.7625,-2.7245,-2.6198,-2.6886,-2.735,-2.6692,-2.7395,-2.8143,-2.8547,-2.8846,-2.8906,-2.8622,-2.8607,-2.8576,-2.8581,-2.8809,-2.9143,-2.9522,-3.016,-3.0483,-3.0492,-3.1435,-3.1824,-3.1482,-3.1809,-3.1809,-3.1482,-3.1482,-3.1351,-3.1029,-3.1029,-3.0777,1.2399,0.0,0.0,0.0,0.0,0.0,0.0,0.0,0.0,0.0,0.0,0.0,0.0,0.0,0.0,0.0,0.0,0.0,0.0,0.0,0.0,0.0,0.0,0.0,0.0,0.0,0.0,0.458,0.4715,0.4703,0.4503,0.4261,0.4038,0.3817,0.4299,0.4224,0.3529,0.2979,0.2006,0.0569,-0.0951,-0.2237,-0.3315,-0.4156,-0.4857,-0.5451,-0.6804,-0.7743,-0.8447,-0.9781,-1.0401,-1.0597,-1.164,-1.1968,-1.1871,-1.2014,-1.2738,-1.3678,-1.3828,-1.3707,-1.3579,-1.4286,-1.6137,-1.8418,-2.0191,-2.2203,-2.4209,-2.5823,-2.656,-2.6912,-2.7238,-2.7458,-2.767,-2.7814,-2.8233,-2.8472,-2.7964,-2.8248,-2.8397,-2.7709,-2.7625,-2.7156,-2.5839,-2.6692,-2.729,-2.6437,-2.7036,-2.7814,-2.8502,-2.8757,-2.8801,-2.8622,-2.8906,-2.8906,-2.8368,-2.8793,-2.9229,-2.9531,-3.0003,-3.0328,-3.0492,-3.1345,-3.1735,-3.1735,-3.1735,-3.1661,-3.1482,-3.1482,-3.1482,-3.1482,-3.1278,-3.097,0.0,0.0,0.0,1.2924,0.0,0.0,0.0,0.0,1.3396,0.0,0.0,0.0,0.0,0.0,0.0,0.0,0.0,0.0,0.0,0.0,0.0,0.0,0.0,0.0,0.0,0.0,0.0,0.455,0.5172,0.5163,0.4268,0.4195,0.4016,0.3625,0.3697,0.3352,0.2543,0.1512,0.0247,-0.1244,-0.285,-0.3929,-0.4558,-0.5315,-0.5631,-0.5675,-0.7345,-0.8419,-0.9085,-1.0563,-1.161,-1.2388,-1.2937,-1.3693,-1.433,-1.2915,-1.2729,-1.329,-1.3759,-1.4187,-1.4525,-1.4499,-1.6137,-1.8418,-2.0191,-2.2532,-2.4683,-2.5371,-2.6505,-2.7393,-2.6721,-2.7034,-2.7739,-2.8412,-2.8577,-2.8592,-2.8577,-2.8577,-2.8397,-2.7709,-2.7625,-2.7156,-2.5839,-2.6692,-2.7126,-2.5839,-2.6737,-2.7814,-2.8502,-2.916,-2.931,-2.8667,-2.9699,-2.9669,-2.7769,-2.9363,-3.0196,-2.9562,-2.9576,-2.9879,-3.0477,-3.1779,-3.2482,-3.2482,-3.2482,-3.2168,-3.1482,-3.1482,-3.1482,-3.1467,-3.0703,-3.0718,0.0,0.0,1.1571,1.203,0.0,0.0,0.0,0.0,0.0,0.0,0.0,0.0,0.0,0.0,0.0,0.0,0.0,0.0,0.0,0.0,0.0,0.0,0.0,0.0,0.0,0.0,0.0,0.5436,0.5116,0.4743,0.0,0.3845,0.3333,0.2753,0.2371,0.1641,0.0524,-0.0498,-0.1744,-0.3168,-0.452,-0.5397,-0.5877,-0.6666,-0.7078,-0.7288,-0.8957,-0.993,-1.0444,-1.2117,-1.2922,-1.3204,-1.3826,-1.4246,-1.4459,-1.3606,-1.3886,-1.4605,-1.4117,-1.4317,-1.4854,-1.5074,-1.6852,-1.9312,-2.1391,-2.355,-2.5508,-2.6594,-2.7229,-2.756,-2.7306,-2.7328,-2.7482,-2.7715,-2.8429,-2.871,-2.7285,-2.7763,-2.8024,-2.6469,-2.6549,-2.6469,-2.5107,-2.6382,-2.7126,-2.5809,-2.7111,-2.8487,-2.916,-2.9804,-3.0103,-2.9879,-2.9879,-2.9624,-2.8951,-2.9102,-2.9364,-2.9576,-2.9606,-3.0268,-3.1764,-3.1854,-3.2273,-3.314,-3.2302,-3.1973,-3.2183,-3.1749,-3.1482,-3.1482,-3.1219,-3.1219,0.9813,1.0436,0.0,1.1571,1.1636,0.0,1.2439,0.0,0.0,0.0,0.0,0.0,0.0,0.0,0.0,0.0,0.0,0.0,0.0,1.0805,0.0,0.0,0.0,0.0,0.0,0.0,0.6263,0.6363,0.5854,0.5343,0.0,0.0,0.3339,0.1882,0.1252,0.0125,-0.1556,-0.2507,-0.3594,-0.4795,-0.5926,-0.6607,-0.6878,-0.7615,-0.8008,-0.8204,-0.9901,-1.0781,-1.118,-1.2843,-1.3728,-1.4113,-1.4544,-1.4884,-1.5072,-1.4586,-1.4978,-1.5615,-1.4585,-1.4764,-1.5516,-1.5945,-1.7644,-1.9996,-2.2058,-2.3894,-2.548,-2.6572,-2.6871,-2.6867,-2.6891,-2.6753,-2.6734,-2.6903,-2.7641,-2.7894,-2.659,-2.7002,-2.7258,-2.5703,-2.5783,-2.5781,-2.468,-2.5776,-2.6542,-2.5699,-2.732,-2.8831,-2.949,-3.0118,-3.0417,-3.0193,-3.0013,-2.9823,-2.9607,-2.8763,-2.8606,-2.9531,-2.9606,-3.0253,-3.1734,-3.1854,-3.2392,-3.3469,-3.2437,-3.2213,-3.2856,-3.2198,-3.1884,-3.1884,-3.1884,-3.2003]},{"header":{"parameterUnit":"m.s-1","parameterCategory":1,"la1":30.6,"la2":29.2853,"lo1":-89.7004,"lo2":-87.6739,"dx":0.0162,"dy":0.0183,"nx":112,"ny":82,"refTime":"2023-02-05T06:00:00:Z","depth":0,"parameterNumber":3,"parameterNumberName":"V-component_of_WINDS"},"data":[0.0,0.0,0.0,0.0,0.0,0.0,0.0,0.0,0.0,0.0,0.0,0.0,0.0,0.0,0.0,0.0,0.0,0.0,0.0,0.0,0.0,0.0,0.0,0.0,0.0,0.0,0.0,0.0,0.0,0.0,0.0,0.0,0.0,0.0,0.0,0.0,0.0,0.0,0.0,0.0,0.0,0.0,0.0,0.0,0.0,0.0,0.0,0.0,0.0,0.0,0.0,0.0,0.0,0.0,0.0,0.0,0.0,0.0,0.0,0.0,0.0,0.0,0.0,0.0,0.0,0.0,0.0,0.0,0.0,0.0,0.0,0.0,0.0,0.0,0.0,0.0,0.0,0.0,0.0,0.0,0.0,0.0,0.0,0.0,0.0,0.0,0.0,0.0,0.0,0.0,1.0511,1.3594,1.631,1.8027,1.8284,1.8831,1.8307,1.6384,0.0,0.0,0.0,0.0,0.0,0.0,0.0,0.0,0.0,0.0,0.0,0.0,0.0,0.0,0.0,0.0,0.0,0.0,0.0,0.0,0.0,0.0,0.0,0.0,0.0,0.0,0.0,0.0,0.0,0.0,0.0,0.0,0.0,0.0,0.0,0.0,0.0,0.0,0.0,0.0,0.0,0.0,0.0,0.0,0.0,0.0,0.0,0.0,0.0,0.0,0.0,0.0,0.0,0.0,0.0,0.0,0.0,0.0,0.0,0.0,0.0,0.0,0.0,0.0,0.0,0.0,0.0,0.0,0.0,0.0,0.0,0.0,0.0,0.0,0.0,0.0,0.0,0.0,0.0,0.0,0.0,0.0,0.0,0.0,0.0,0.0,0.0,0.0,0.0,0.0,0.0,0.0,0.0,0.0,0.0,0.0,0.0,0.0,0.0,0.0,0.0,0.0,0.0,0.0,1.3002,1.7076,1.7748,1.8532,2.0049,1.7447,1.6267,1.7441,0.0,0.0,0.0,0.0,0.0,0.0,0.0,0.0,0.0,0.0,0.0,0.0,0.0,0.0,0.0,0.0,0.0,0.0,0.0,0.0,0.0,0.0,0.0,0.0,0.0,0.0,0.0,0.0,0.0,0.0,0.0,0.0,0.0,0.0,0.0,0.0,0.0,0.0,0.0,0.0,0.0,0.0,0.0,0.0,0.0,0.0,0.0,0.0,0.0,0.0,0.0,0.0,0.0,0.0,0.0,0.0,0.0,0.0,0.0,0.0,0.0,0.0,0.0,0.0,0.0,0.0,0.0,0.0,0.0,0.0,0.0,0.0,0.0,0.0,0.0,0.0,0.0,0.0,0.0,0.0,0.0,0.0,0.0,0.0,0.0,0.0,0.0,0.0,0.0,0.0,0.0,0.0,0.0,0.0,0.0,0.0,0.0,0.0,0.0,0.0,0.0,0.0,0.0,1.2381,1.4429,1.7422,1.8215,1.8801,1.96,1.7427,1.6372,1.7151,1.7151,0.0,0.0,0.0,0.0,0.0,0.0,0.0,0.0,0.0,0.0,0.0,0.0,0.0,0.0,0.0,0.0,0.0,0.0,0.0,0.0,0.0,0.0,0.0,0.0,0.0,0.0,0.0,0.0,0.0,0.0,0.0,0.0,0.0,0.0,0.0,0.0,0.0,0.0,0.0,0.0,0.0,0.0,0.0,0.0,0.0,0.0,0.0,0.0,0.0,0.0,0.0,0.0,0.0,0.0,0.0,0.0,0.0,0.0,0.0,0.0,0.0,0.0,0.0,0.0,0.0,0.0,0.0,0.0,0.0,0.0,0.0,0.0,0.0,0.0,0.0,0.0,0.0,0.0,0.0,0.0,0.0,0.0,0.0,0.0,0.0,0.0,0.0,0.0,0.0,0.0,0.0,0.0,0.0,0.0,0.0,0.0,0.0,0.0,0.0,0.0,0.0,0.0,1.4325,1.5686,1.769,1.8546,1.9061,1.9266,1.7537,1.6586,1.6919,1.5919,0.0,0.0,0.0,0.0,0.0,0.0,0.0,0.0,0.0,0.0,0.0,0.0,0.0,0.0,0.0,0.0,0.0,0.0,0.0,0.0,0.0,0.0,0.0,0.0,0.0,0.0,0.0,0.0,0.0,0.0,0.0,0.0,0.0,0.0,0.0,0.0,0.0,0.0,0.0,0.0,0.0,0.0,0.0,0.0,0.0,0.0,0.0,0.0,0.0,0.0,0.0,0.0,0.0,0.0,0.0,0.0,0.0,0.0,0.0,0.0,0.0,0.0,0.0,0.0,0.0,0.0,0.0,0.0,0.0,0.0,0.0,0.0,0.0,0.0,0.0,0.0,0.0,0.0,0.0,0.0,0.0,0.0,0.0,0.0,0.0,0.0,0.0,0.0,0.0,0.0,0.0,0.0,0.0,0.0,0.0,0.0,0.0,0.0,0.0,0.0,0.0,0.0,1.548,1.7257,1.9422,1.9258,1.9414,2.0415,1.7192,1.5848,1.7516,1.5321,0.0,0.0,0.0,0.0,0.0,0.0,0.0,0.0,0.0,0.0,0.0,0.0,0.0,0.0,0.0,0.0,0.0,0.0,0.0,0.0,0.0,0.0,0.0,0.0,0.0,0.0,0.0,0.0,0.0,0.0,0.0,0.0,0.0,0.0,0.0,0.0,0.0,0.0,0.0,0.0,0.0,0.0,0.0,0.0,0.0,0.0,0.0,0.0,0.0,0.0,0.0,0.0,0.0,0.0,0.0,0.0,0.0,0.0,0.0,0.0,0.0,0.0,0.0,0.0,0.0,0.0,0.0,0.0,0.0,0.0,0.0,0.0,0.0,0.0,0.0,0.0,0.0,0.0,0.0,0.0,0.0,0.0,0.0,0.0,0.0,0.0,0.0,0.0,0.0,0.0,0.0,0.0,0.0,0.0,0.0,0.0,0.0,0.0,0.0,0.0,0.0,0.0,1.533,1.6796,0.0,1.9686,1.951,1.9527,1.7408,1.6349,1.7024,0.0,0.0,0.0,0.0,0.0,0.0,0.0,0.0,0.0,0.0,0.0,0.0,0.0,0.0,0.0,0.0,0.0,0.0,0.0,0.0,0.0,0.0,0.0,0.0,0.0,0.0,0.0,0.0,0.0,0.0,0.0,0.0,0.0,0.0,0.0,0.0,0.0,0.0,0.0,0.0,0.0,0.0,0.0,0.0,0.0,0.0,0.0,0.0,0.0,0.0,0.0,0.0,0.0,0.0,0.0,0.0,0.0,0.0,0.0,0.0,0.0,0.0,0.0,0.0,0.0,0.0,0.0,0.0,0.0,0.0,0.0,0.0,0.0,0.0,0.0,0.0,0.0,0.0,0.0,0.0,0.0,0.0,0.0,0.0,0.0,0.0,0.0,0.0,0.0,0.0,0.0,0.0,0.0,0.0,0.0,0.0,0.0,0.0,0.0,0.0,0.0,0.0,1.4339,1.5532,1.7063,0.0,1.9891,1.9739,1.892,1.7356,1.6502,1.6697,0.0,0.0,0.0,0.0,0.0,0.0,0.0,0.0,0.0,0.0,0.0,0.0,0.0,0.0,0.0,0.0,0.0,0.0,0.0,0.0,0.0,0.0,0.0,0.0,0.0,0.0,0.0,0.0,0.0,0.0,0.0,0.0,0.0,0.0,0.0,0.0,0.0,0.0,0.0,0.0,0.0,0.0,0.0,0.0,0.0,0.0,0.0,0.0,0.0,0.0,0.0,0.0,0.0,0.0,0.0,0.0,0.0,0.0,0.0,0.0,0.0,0.0,0.0,0.0,0.0,0.0,0.0,0.0,0.0,0.0,0.0,0.0,0.0,0.0,0.0,0.0,0.0,0.0,0.0,0.0,0.0,0.0,0.0,0.0,0.0,0.0,0.0,0.0,0.0,0.0,0.0,0.0,0.0,0.0,0.0,0.0,0.0,0.0,0.0,0.0,0.0,0.0,1.353,1.6359,1.8457,1.8906,1.9978,2.0175,1.8798,1.6907,1.6039,0.0,0.0,0.0,0.0,0.0,0.0,0.0,0.0,0.0,0.0,0.0,0.0,0.0,0.0,0.0,0.0,0.0,0.0,0.0,0.0,0.0,0.0,0.0,0.0,0.0,0.0,0.0,0.0,0.0,0.0,0.0,0.0,0.0,0.0,0.0,0.0,0.0,0.0,0.0,0.0,0.0,0.0,0.0,0.0,0.0,0.0,0.0,0.0,0.0,0.0,0.0,0.0,0.0,0.0,0.0,0.0,0.0,0.0,0.0,0.0,0.0,0.0,0.0,0.0,0.0,0.0,0.0,0.0,0.0,0.0,0.0,0.0,0.0,0.0,0.0,0.0,0.0,0.0,0.0,0.0,0.0,0.0,0.0,0.0,0.0,0.0,0.0,0.0,0.0,0.0,0.0,0.0,0.0,0.0,0.0,0.0,0.0,0.0,0.0,0.0,0.0,0.0,0.0,1.4983,1.6709,1.8723,2.1294,2.1069,2.0349,1.9489,1.7193,1.5888,1.6039,0.0,0.0,0.0,0.0,0.0,0.0,0.0,0.0,0.0,0.0,0.0,0.0,0.0,0.0,0.0,0.0,0.0,0.0,0.0,0.0,0.0,0.0,0.0,0.0,0.0,0.0,0.0,0.0,0.0,0.0,0.0,0.0,0.0,0.0,0.0,0.0,0.0,0.0,0.0,0.0,0.0,0.0,0.0,0.0,0.0,0.0,0.0,0.0,0.0,0.0,0.0,0.0,0.0,0.0,0.0,0.0,0.0,0.0,0.0,0.0,0.0,0.0,0.0,0.0,0.0,0.0,0.0,0.0,0.0,0.0,0.0,0.0,0.0,0.0,0.0,0.0,0.0,0.0,0.0,0.0,0.0,0.0,0.0,0.0,0.0,0.0,0.0,0.0,0.0,0.0,0.0,0.0,0.0,0.0,0.0,0.0,0.0,0.0,0.0,0.0,0.0,0.0,1.5384,1.6767,1.8713,2.1972,2.1351,2.0308,1.937,1.7163,1.5694,1.5424,0.0,0.0,0.0,0.0,0.0,0.0,0.0,0.0,0.0,0.0,0.0,0.0,0.0,0.0,0.0,0.0,0.0,0.0,0.0,0.0,0.0,0.0,0.0,0.0,0.0,0.0,0.0,0.0,0.0,0.0,0.0,0.0,0.0,0.0,0.0,0.0,0.0,0.0,0.0,0.0,0.0,0.0,0.0,0.0,0.0,0.0,0.0,0.0,0.0,0.0,0.0,0.0,0.0,0.0,0.0,0.0,0.0,0.0,0.0,0.0,0.0,0.0,0.0,0.0,0.0,0.0,0.0,0.0,0.0,0.0,0.0,0.0,0.0,0.0,0.0,0.0,0.0,0.0,0.0,0.0,0.0,0.0,0.0,0.0,0.0,0.0,0.0,0.0,0.0,0.0,0.0,0.0,0.0,0.0,0.0,0.0,0.0,0.0,0.0,0.0,0.0,0.0,1.5194,1.6711,1.8644,2.1485,2.1152,2.0213,1.9001,1.7026,1.5604,1.4917,0.0,0.0,0.0,0.0,0.0,0.0,0.0,0.0,0.0,0.0,0.0,0.0,0.0,0.0,0.0,0.0,0.0,0.0,0.0,0.0,0.0,0.0,0.0,0.0,0.0,0.0,0.0,0.0,0.0,0.0,0.0,0.0,0.0,0.0,0.0,0.0,0.0,0.0,0.0,0.0,0.0,0.0,0.0,0.0,0.0,0.0,0.0,0.0,0.0,0.0,0.0,0.0,0.0,0.0,0.0,0.0,0.0,0.0,0.0,0.0,0.6299,0.0,0.0,0.0,0.0,0.0,0.0,0.0,0.0,0.0,0.0,0.0,0.0,0.0,0.0,0.0,0.0,0.0,0.0,0.0,0.0,0.0,0.0,0.0,0.0,0.0,0.0,0.0,0.0,0.0,0.0,0.0,0.0,0.0,0.0,0.0,0.0,0.0,0.0,0.0,0.0,0.0,1.602,1.7353,1.9139,2.2162,2.1406,2.0602,2.0318,1.7951,1.6234,1.5634,1.4453,0.0,0.0,0.0,0.0,0.0,0.0,0.0,0.0,0.0,0.0,0.0,0.0,0.0,0.0,0.0,0.0,0.0,0.0,0.0,0.0,0.0,0.0,0.0,0.0,0.0,0.0,0.0,0.0,0.0,0.0,0.0,0.0,0.0,0.0,0.0,0.0,0.0,0.0,0.0,0.0,0.0,0.0,0.0,0.0,0.0,0.0,0.0,0.0,0.0,0.0,0.0,0.0,0.0,0.0,0.0,0.0,0.0,0.0,0.0,0.0,0.6633,0.0,0.0,0.0,0.0,0.0,0.0,0.0,0.0,0.0,0.0,0.0,0.0,0.0,0.0,0.0,0.0,0.0,0.0,0.0,0.0,0.0,0.0,0.0,0.0,0.0,0.0,0.0,0.0,0.0,0.0,0.0,0.0,0.0,0.0,0.0,0.0,0.0,0.0,0.0,0.0,1.63,1.7233,1.8665,2.1446,2.0827,2.0094,1.9779,1.7876,1.6428,1.5844,1.4528,0.0,0.0,0.0,0.0,0.0,0.0,0.0,0.0,0.0,0.0,0.0,0.0,0.0,0.0,0.0,0.0,0.0,0.0,0.0,0.0,0.0,0.0,0.0,0.0,0.0,0.0,0.0,0.0,0.0,0.0,0.0,0.0,0.0,0.0,0.0,0.0,0.0,0.0,0.0,0.0,0.0,0.0,0.0,0.0,0.0,0.0,0.0,0.0,0.0,0.0,0.0,0.0,0.0,0.6521,0.6667,0.6209,0.6707,0.658,0.5979,0.6707,0.68,0.644,0.6493,0.0,0.0,0.0,0.0,0.0,0.0,0.0,0.0,0.0,0.0,0.0,0.0,0.0,0.0,0.0,0.0,0.0,0.0,0.0,0.0,0.0,0.0,0.0,0.0,0.8776,0.9539,0.0,0.0,0.0,0.0,0.0,0.0,0.0,0.0,0.0,0.0,0.0,0.0,1.6184,1.6909,1.8086,2.046,2.0094,1.9465,1.8927,1.7637,1.6562,1.5844,1.4648,1.3745,0.0,0.0,0.0,0.0,0.0,0.0,0.0,0.0,0.0,0.0,0.0,0.0,0.0,0.0,0.0,0.0,0.0,0.0,0.0,0.0,0.0,0.0,0.0,0.0,0.0,0.0,0.0,0.0,0.0,0.0,0.0,0.0,0.5678,0.5457,0.0,0.0,0.0,0.0,0.0,0.0,0.0,0.0,0.0,0.0,0.0,0.0,0.0,0.3533,0.3967,0.4668,0.5124,0.5354,0.6233,0.6512,0.6203,0.6493,0.672,0.6854,0.6932,0.0,0.5845,0.6142,0.0,0.0,0.0,0.0,0.0,0.0,0.0,0.0,0.0,0.0,0.0,0.0,0.0,0.0,0.0,0.0,0.0,0.0,0.0,0.0,0.0,0.0,0.8063,0.8139,0.8917,0.9779,0.0,0.9827,0.9481,0.9066,0.8681,0.0,0.0,0.0,0.0,0.0,0.0,0.0,1.5543,1.6818,1.841,2.046,2.0094,1.9645,1.957,1.8343,1.7071,1.5873,1.5109,1.4777,1.4964,1.4227,0.0,0.0,0.0,0.0,0.0,0.0,0.0,0.0,0.0,0.0,0.0,0.0,0.0,0.0,0.0,0.0,0.0,0.0,0.0,0.0,0.0,0.0,0.0,0.0,0.0,0.0,0.0,0.0,0.0,0.6326,0.6279,0.586,0.6622,0.7057,0.0,0.0,0.0,0.0,0.0,0.0,0.0,0.0,0.0,0.3625,0.3578,0.3893,0.4519,0.4908,0.547,0.6247,0.6986,0.7094,0.6653,0.6947,0.7148,0.7261,0.7094,0.6901,0.6667,0.6344,0.6115,0.5981,0.0,0.0,0.0,0.0,0.6048,0.6216,0.6384,0.6506,0.0,0.0,0.0,0.0,0.0,0.0,0.0,0.0,0.0,0.0,0.0,0.0,0.0,0.9304,1.0095,1.0762,1.0653,1.0488,1.0225,0.0,0.9724,0.9849,1.0328,0.0,0.0,0.0,0.0,1.4626,1.673,1.7724,1.8478,1.8952,1.9091,1.8986,1.8612,1.7682,1.6891,1.6353,1.5007,1.4394,1.4714,1.3912,1.4142,0.0,0.0,0.0,0.0,0.0,0.0,0.0,0.0,0.0,0.0,0.0,0.0,0.0,0.0,0.0,0.0,0.0,0.0,0.0,0.0,0.0,0.0,0.0,0.0,0.0,0.0,0.0,0.0,0.646,0.6473,0.592,0.6576,0.697,0.0,0.0,0.0,0.0,0.0,0.0,0.6157,0.5853,0.5291,0.4424,0.436,0.4668,0.5347,0.5471,0.6067,0.7141,0.7629,0.7649,0.7218,0.7482,0.7668,0.7728,0.7381,0.7422,0.7674,0.6787,0.6371,0.6263,0.582,0.5652,0.5638,0.5858,0.6079,0.6337,0.6513,0.6727,0.686,0.6626,0.0,0.6592,0.6253,0.0,0.0,0.0,0.0,0.684,0.7385,0.8487,0.9605,1.0252,1.1179,1.1851,1.1484,1.1416,1.1191,0.0,1.0646,1.1035,1.119,0.0,0.0,0.0,0.0,1.5186,1.7595,1.8377,1.8523,1.7996,1.8403,1.8373,1.7518,1.6846,1.6398,1.6219,1.4872,1.4222,1.4664,1.4078,1.4085,1.4782,0.0,0.0,0.0,0.0,0.0,0.0,0.0,0.0,0.0,0.0,0.0,0.0,0.0,0.0,0.0,0.0,0.0,0.0,0.0,0.0,0.0,0.0,0.0,0.0,0.0,0.0,0.0,0.0,0.0,0.494,0.6356,0.0,0.0,0.0,0.0,0.7063,0.6507,0.6139,0.5935,0.5772,0.5629,0.5439,0.5708,0.6101,0.6507,0.6642,0.6975,0.7493,0.7776,0.7868,0.7842,0.7855,0.8063,0.831,0.8016,0.8056,0.8257,0.7348,0.6814,0.6567,0.6533,0.6526,0.6526,0.654,0.6553,0.6573,0.6587,0.66,0.67,0.7271,0.7602,0.7782,0.7468,0.7432,0.0,0.0,0.6987,0.7058,0.7351,0.8648,1.0032,1.0624,1.1854,1.2803,1.2783,1.2783,1.2285,0.0,1.0784,1.1301,1.1675,0.0,1.2911,1.3932,1.4855,1.5876,1.7156,1.8159,1.8687,1.8657,1.8687,1.8194,1.6876,1.6189,1.5589,1.4932,1.4797,1.5051,1.5703,1.5371,1.5469,1.6085,1.4939,0.0,0.0,0.0,0.0,0.0,0.0,0.0,0.0,0.0,0.0,0.0,0.0,0.0,0.0,0.0,0.0,0.0,0.0,0.0,0.0,0.0,0.0,0.0,0.0,0.0,0.0,0.0,0.0,0.6228,0.6936,0.0,0.6593,0.6873,0.7148,0.7325,0.6793,0.6661,0.7154,0.6787,0.6546,0.6516,0.6418,0.6551,0.6907,0.7116,0.7634,0.833,0.8631,0.8871,0.9045,0.8671,0.8758,0.9192,0.8704,0.8771,0.9152,0.8257,0.7602,0.7197,0.7197,0.6921,0.666,0.7241,0.7328,0.7251,0.7602,0.7862,0.7989,0.7822,0.7575,0.7321,0.7214,0.7315,0.7486,0.7335,0.7892,0.8682,0.9183,1.0242,1.1304,1.1969,1.2551,1.2881,1.2881,1.2881,1.2829,1.2617,1.2278,1.2167,1.2604,1.2707,1.349,1.5818,1.6143,1.6809,1.8593,1.9125,1.9016,1.8164,1.8041,1.7682,1.6786,1.5755,1.5064,1.4812,1.4152,1.3984,1.4443,1.4031,1.414,1.4825,1.3938,1.4143,0.0,0.0,0.0,0.0,0.0,0.0,0.0,0.0,0.0,0.0,0.0,0.0,0.0,0.0,0.0,0.0,0.0,0.0,0.0,0.0,0.0,0.0,0.0,0.0,0.0,0.0,0.7134,0.7034,0.7375,0.7502,0.7201,0.7094,0.7201,0.7595,0.7261,0.7301,0.7848,0.7642,0.7472,0.7516,0.7387,0.7474,0.7797,0.7891,0.8332,0.9105,0.9192,0.9392,0.9666,0.9279,0.9312,0.9659,0.9272,0.9265,0.9486,0.8905,0.837,0.7896,0.7702,0.7448,0.7261,0.7862,0.7949,0.7876,0.8279,0.8564,0.8744,0.8357,0.7956,0.7622,0.7622,0.7762,0.7943,0.8115,0.8834,0.9688,1.0359,1.1292,1.2154,1.2754,1.2988,1.3135,1.3271,1.3263,1.3375,1.3882,1.3426,1.3162,1.3882,1.3682,1.4425,1.7438,1.7274,1.7569,1.9745,1.963,1.8942,1.7817,1.7488,1.701,1.6129,1.5485,1.4869,1.418,1.3962,1.3827,1.37,1.4194,1.4506,1.4588,1.3778,1.4137,1.5695,0.0,0.0,0.0,0.0,0.0,0.0,0.0,0.0,0.0,0.0,0.0,0.0,0.0,0.0,0.0,0.0,0.0,0.0,0.0,0.0,0.0,0.0,0.0,0.6613,0.7157,0.7375,0.7081,0.753,0.7822,0.7553,0.7749,0.7888,0.7908,0.7902,0.7902,0.7922,0.8237,0.839,0.8397,0.8671,0.8958,0.9183,0.8971,0.9112,0.9666,0.9385,0.9406,0.9686,0.9673,0.9679,0.9686,0.9673,0.9512,0.9196,0.9176,0.901,0.8764,0.8196,0.8136,0.8377,0.8397,0.8397,0.839,0.839,0.8571,0.8804,0.8804,0.8804,0.8804,0.8804,0.8864,0.8915,0.9355,0.9698,1.005,1.0692,1.1695,1.2641,1.287,1.3232,1.3643,1.4,1.3962,1.3936,1.4366,1.4142,1.4247,1.541,1.5183,1.5823,1.8618,1.806,0.0,2.0385,1.954,1.8493,1.7817,1.7206,1.6293,1.4962,1.5439,1.4971,1.2936,1.4261,1.4702,1.3721,1.5932,1.6681,1.5595,1.4641,1.4668,1.5719,0.0,0.0,0.0,0.0,0.0,0.0,0.0,0.0,0.0,0.0,0.0,0.0,0.0,0.0,0.0,0.0,0.0,0.0,0.0,0.0,0.0,0.0,0.7271,0.7271,0.7562,0.7769,0.7643,0.8016,0.8136,0.7829,0.7882,0.8054,0.853,0.837,0.8437,0.8805,0.8758,0.8784,0.8991,0.9078,0.9103,0.9183,0.9372,0.9419,0.9359,0.9499,0.9606,0.9679,0.9459,0.9479,0.9673,0.9452,0.9439,0.9526,0.9098,0.9005,0.905,0.8891,0.8671,0.8424,0.8844,0.8871,0.8691,0.8691,0.8738,0.8804,0.8804,0.8804,0.891,0.9361,0.9782,1.0158,1.0737,1.1545,1.2218,1.2437,1.3047,1.3662,1.3766,1.3824,1.3994,1.4058,1.449,1.4842,1.5023,1.5026,1.5159,1.5513,1.5842,1.657,1.8139,1.8104,0.0,1.9789,1.9645,1.9346,1.9166,1.9333,1.8575,1.6353,1.6261,1.5387,1.3222,1.3239,1.3275,1.3198,1.402,1.459,1.4817,1.5064,1.5495,0.0,0.0,0.0,0.0,0.0,0.0,0.0,0.0,0.0,0.0,0.0,0.0,0.0,0.0,0.0,0.0,0.0,0.0,0.0,0.0,0.0,0.0,0.7649,0.7936,0.8009,0.8183,0.8343,0.8413,0.8744,0.8851,0.8684,0.8664,0.8804,0.9152,0.9018,0.9072,0.9406,0.9265,0.9252,0.9419,0.9426,0.9426,0.9426,0.9472,0.9472,0.9426,0.9599,0.9746,0.986,0.9686,0.9699,0.0,0.9552,0.9452,0.9472,0.9132,0.9018,0.0,0.0,0.0,0.0,0.0,0.8951,0.8804,0.8804,0.8804,0.8804,0.8804,0.9008,0.9337,0.9933,1.047,1.1078,1.1925,1.2627,1.3141,1.3476,1.3933,1.4404,1.4404,1.4404,1.4508,1.5004,1.5373,1.5778,1.6303,0.0,0.0,1.6402,1.621,1.6675,1.8276,1.8297,1.8595,1.9953,1.9793,1.9569,1.9569,1.948,1.8699,1.6926,1.6945,0.0,0.0,0.0,1.4206,1.4541,1.4693,0.0,0.0,0.0,1.6098,0.0,0.0,0.0,0.0,1.5792,1.5886,0.0,0.0,0.0,0.0,0.0,0.0,0.0,0.0,0.0,0.0,0.0,0.0,0.0,0.0,0.0,0.0,0.8297,0.8584,0.8911,0.8958,0.9038,0.921,0.9526,0.9686,0.9686,0.9686,0.9699,0.9733,0.9733,0.9733,0.9733,0.0,0.0,0.0,0.0,0.9686,0.9686,0.9419,0.9406,0.9633,0.9666,0.982,1.0067,1.0067,1.0067,1.0053,0.976,0.9486,0.9183,0.915,0.9058,0.8831,0.8537,0.8577,0.8804,0.8804,0.8831,0.0,0.8858,0.0,0.0,0.9011,0.9415,1.0031,1.0593,1.1242,1.1987,1.2996,1.3296,1.3497,1.4115,1.4561,1.4853,1.4853,1.4853,1.5177,1.6229,1.6439,1.6661,1.7706,1.8093,1.8103,1.7488,1.6524,1.6486,1.8563,1.8436,0.0,2.0258,1.9978,1.965,1.9727,0.0,0.0,1.7432,1.7829,1.7229,1.5101,1.5658,1.6216,1.6622,1.6689,1.7483,1.9087,1.714,1.6658,1.7766,1.6315,1.6065,1.6969,1.7031,1.6989,0.0,0.0,0.0,0.0,0.0,0.0,0.0,0.0,0.0,0.0,0.0,0.0,0.0,0.0,0.0,0.8838,0.8977,0.9259,0.9786,0.986,0.98,0.9619,0.9653,0.9686,0.9686,0.9686,0.978,1.0013,1.0033,1.0033,1.0033,1.0033,1.0033,1.0033,0.9806,0.9686,0.9686,0.9626,0.9506,0.9269,0.0,0.0,0.9766,0.9766,0.9766,0.9753,0.9452,0.9236,0.9163,0.8985,0.8991,0.907,0.8838,0.8758,0.8804,0.8804,0.8958,0.9103,0.9103,0.9312,0.962,1.0277,1.0606,1.0948,1.2226,1.2974,0.0,1.4231,1.4723,1.4994,1.5109,1.5225,1.5293,1.5293,1.5293,1.5486,1.6301,1.6938,1.7424,1.7847,1.8399,1.8555,1.7551,1.7197,1.7173,1.7445,1.7832,1.8317,1.8995,2.0242,2.1284,2.1761,2.239,2.2066,2.0424,2.025,1.9029,1.6176,1.5808,1.5838,1.6127,1.6714,1.7323,1.8,1.7568,1.7629,1.8181,1.7288,1.7043,1.7388,1.7081,1.7346,0.0,0.0,0.0,0.0,0.0,0.0,0.0,0.0,0.0,0.0,0.0,0.823,0.8479,0.0,0.9125,0.9412,0.9586,0.9833,1.0274,1.0468,1.0448,1.016,1.012,1.012,1.012,1.012,1.018,1.0327,1.0341,1.0341,1.0341,1.0341,1.0274,1.012,0.9973,0.9833,0.9686,0.9686,0.9613,0.9466,0.976,0.99,0.99,0.99,0.99,0.9873,0.9432,0.9183,0.9212,0.9284,0.9286,0.9225,0.9451,0.9335,0.9005,0.8858,0.8991,0.9183,0.9183,0.9701,1.0351,1.0793,1.1407,1.2167,1.3155,1.3867,1.4421,1.4982,1.5254,1.541,1.541,1.541,1.541,1.541,1.569,1.614,1.6866,1.7633,1.8312,1.8745,1.9143,1.9158,1.8342,1.7978,1.7747,1.7595,1.7611,1.7857,1.8594,2.0221,2.1252,2.1219,2.2344,2.2565,2.1242,2.0361,1.9117,1.7364,1.7028,1.6851,1.6747,1.7524,1.8109,1.8437,1.8149,1.8402,1.9201,1.8467,1.8385,1.8958,1.8755,1.8668,0.0,0.0,0.0,0.0,0.0,0.0,0.0,0.7406,0.7816,0.8123,0.8611,0.9045,0.9279,0.9659,0.992,0.986,1.014,1.0434,1.0678,1.0842,1.0909,1.0675,1.0705,1.0705,1.0705,1.0705,1.0668,1.0722,1.0739,1.0705,1.0705,1.0598,1.0367,1.0127,1.006,0.992,0.9686,0.9686,0.9713,0.9773,1.0007,1.0147,1.02,1.02,1.02,1.0167,0.9687,0.9486,0.957,0.994,0.9892,0.9591,1.0185,1.0027,0.9514,0.9119,0.9234,0.9549,0.9603,1.0378,1.1326,1.1498,1.2352,1.3432,1.393,1.4497,1.498,1.5312,1.541,1.541,1.541,1.541,1.541,1.541,1.5803,1.6434,1.739,1.7989,1.8649,1.9619,1.9798,1.9635,1.912,1.8656,1.8214,1.7828,1.7397,1.7385,1.8091,1.978,2.0701,2.0252,2.1462,2.2006,2.1271,1.9823,1.8756,1.8218,1.809,1.7815,1.7361,1.819,1.8797,1.9124,1.8806,1.9151,2.0192,1.9575,1.969,2.0429,2.0583,2.0231,0.6752,0.6257,0.6111,0.5585,0.6433,0.7359,0.0,0.7901,0.8744,0.8977,0.9359,0.9593,0.9626,1.0301,1.0762,1.0571,1.0922,1.1202,1.0975,1.0969,1.0982,1.0949,1.0949,1.0949,1.0949,1.0949,1.1049,1.1309,1.1089,1.0949,1.0949,1.0448,1.0147,1.0114,0.9866,0.9719,0.9686,0.9686,0.9813,1.0067,1.01,1.0254,1.0514,1.0514,1.0514,1.0537,1.0514,1.0627,1.0767,1.1126,1.1082,1.0741,1.079,1.079,1.0627,0.9873,1.0044,1.0721,1.1004,1.1802,1.2885,1.3595,1.3951,1.4205,1.4974,1.5284,1.5352,1.54,1.541,1.541,1.541,1.541,1.541,1.541,1.5184,1.5447,1.7203,1.7404,1.7699,1.9441,1.9798,1.9635,1.912,1.8933,1.8346,1.6756,1.6831,1.6931,1.6463,1.8578,2.0333,2.0925,2.1761,2.2006,2.1271,2.0,1.8918,1.8155,1.7724,1.7274,1.682,1.7636,1.8323,1.883,1.9542,2.0076,2.0453,2.036,2.0387,2.0511,2.1218,2.1463,0.7158,0.7072,0.7263,0.631,0.7266,0.8313,0.7716,0.8477,0.9452,0.9913,1.0374,1.0648,1.0474,1.1029,1.1349,0.0,1.1156,1.1443,1.1496,1.1356,1.1182,1.1015,1.0995,1.0995,1.0995,1.0995,1.1109,1.1403,1.1156,1.0922,1.0755,1.0508,1.0221,0.9873,0.9913,0.9933,0.9933,0.9933,1.008,1.0374,1.0374,1.0441,1.0624,1.0624,1.0461,1.0349,1.0842,1.0965,1.0948,1.1517,1.1376,1.0899,1.0793,1.0673,1.0531,1.045,1.1035,1.192,1.1998,1.2754,1.3726,1.4085,1.451,1.4932,1.5294,1.541,1.541,1.541,1.541,1.541,1.541,1.5234,1.5049,1.5049,1.5029,1.5456,1.6946,1.7473,1.8057,1.9531,1.9798,1.9569,1.8934,1.8578,1.791,1.6507,1.6809,1.7101,1.6947,1.8161,1.9719,2.138,2.1061,2.0973,2.1618,2.0358,1.9257,1.86,1.802,1.7467,1.6958,1.7426,1.8041,1.8792,1.9779,2.0597,2.1251,2.1777,2.198,2.1958,2.2265,2.263,0.7301,0.7562,0.7947,0.7236,0.823,0.931,0.8699,0.9386,1.0307,1.0815,1.1189,1.1336,1.1049,1.1403,1.1577,1.1076,1.1303,1.1623,1.1837,1.1617,1.1316,1.1029,1.0848,1.0788,1.0868,1.0949,1.1109,1.1403,1.1156,1.0902,1.0688,1.0528,1.0241,0.982,1.0007,1.0114,1.0114,1.02,1.0347,1.0624,1.0624,1.0624,1.0624,1.0807,1.0802,1.058,1.1396,1.1692,1.1647,1.1947,1.1644,1.105,1.0812,1.0703,1.067,1.105,1.1858,1.2743,1.2845,1.3588,1.451,1.451,1.4932,1.541,1.541,1.541,1.541,1.541,1.541,1.5381,1.5264,1.501,1.4756,1.4629,1.4677,1.5112,1.6403,1.7168,1.7942,1.8964,1.9371,1.9254,1.8501,1.8078,1.7443,1.6452,1.6794,1.7126,1.7044,1.7894,1.9128,2.0788,2.016,2.0005,2.0964,2.0136,1.929,1.8693,1.8057,1.7479,1.691,1.7301,1.7845,1.8544,2.0009,2.1121,2.1826,2.2689,2.3062,2.2998,2.3153,2.3547,0.699,0.7248,0.7622,0.8039,0.9118,1.0122,1.0276,1.0878,1.1463,1.1764,1.1617,1.1336,1.1049,1.1236,1.1343,1.1042,1.1476,1.1857,1.187,1.1617,1.1316,1.1029,1.0488,1.0254,0.0,1.0828,1.1109,1.1403,1.1156,1.0989,1.0982,1.0441,1.012,1.0107,1.0114,1.0114,1.0114,1.0401,1.0618,1.0624,1.0624,1.0624,1.0624,1.1413,1.1764,1.1781,1.2518,1.3099,1.3441,1.2788,1.2088,1.1469,1.105,1.1138,1.1514,1.1762,1.241,1.3104,1.3435,1.4361,1.5352,1.5352,1.5352,1.541,1.541,1.541,1.541,1.541,1.541,1.5322,1.4912,1.4795,1.4678,1.4248,1.3828,1.3999,1.5583,1.6225,1.6707,1.7497,1.8221,1.8501,1.7731,1.7622,1.7274,1.6351,1.6729,1.6789,1.5966,1.757,1.8751,1.8625,1.925,1.9394,1.8667,1.8982,1.8889,1.8078,1.7576,1.7028,1.6345,1.7149,1.7703,1.7916,2.0441,2.1808,2.1894,2.2703,2.3062,2.3017,2.3728,2.4088,0.7383,0.811,0.8961,0.8951,0.9977,1.0909,1.0618,1.1147,1.175,1.185,1.1483,1.1049,1.0755,1.0788,1.0882,1.0982,1.1483,1.187,1.187,1.1784,1.147,1.0788,1.0701,0.0,0.0,0.0,0.0,1.1376,1.0982,1.0701,1.0701,1.0521,1.0321,1.0127,1.0307,1.0414,1.0414,1.0571,1.0863,1.1406,1.1406,1.1406,1.1413,1.171,1.1645,1.1428,1.2785,1.33,1.3101,1.2896,1.2298,1.1428,1.0747,1.0747,1.1063,1.1135,1.229,1.3812,1.4231,1.483,1.541,1.541,1.541,1.541,1.541,1.541,1.541,1.541,1.5215,1.4961,1.4824,1.4365,1.3906,1.375,1.3398,1.3661,1.5763,1.6311,1.6786,1.8089,1.8555,1.8328,1.709,1.6866,1.671,1.6169,1.6335,1.6537,1.6398,1.783,1.9165,1.9937,1.9394,1.9541,2.0908,1.962,1.8664,1.8491,1.8364,1.8225,1.8098,1.8455,1.9234,2.0469,2.1918,2.2948,2.3485,2.429,2.4667,2.4587,2.4667,2.4703,0.7907,0.8871,0.988,1.0045,1.0818,1.1517,1.1225,1.1579,1.1837,1.173,1.1162,1.0595,1.0301,0.9993,0.9947,1.0448,1.0755,1.1116,1.1637,1.1536,1.1269,1.0909,1.0855,1.0688,0.0,0.0,0.0,1.1056,1.0768,1.0624,1.0624,1.0624,1.0474,1.0281,1.0461,1.0624,1.0624,1.0624,1.0982,1.1834,1.2081,1.2205,1.2258,1.2377,1.2254,1.2022,1.3097,1.3395,1.3083,1.2662,1.2123,1.1515,1.0621,1.0533,1.0937,1.1115,1.2298,1.3975,1.4404,1.4932,1.541,1.541,1.541,1.541,1.541,1.541,1.541,1.541,1.5215,1.4941,1.4629,1.4141,1.3743,1.3882,1.3681,1.4058,1.6142,1.6814,1.7208,1.7801,1.8124,1.7841,1.6368,1.5863,1.5807,1.6249,1.612,1.625,1.7036,1.8317,1.9459,2.0285,1.9844,1.9908,2.0884,1.9517,1.8507,1.8283,1.8666,1.8943,1.9002,1.9678,2.0585,2.1718,2.2889,2.3758,2.4271,2.5075,2.5409,2.5286,2.5086,2.5126,0.866,0.9519,1.0388,1.1256,1.1683,1.1957,1.2218,1.2044,1.1737,1.1423,1.0648,0.9947,0.9724,0.8985,0.8664,0.9559,0.9492,0.9767,1.1249,1.0989,1.0842,1.1363,1.0955,1.0678,0.0,0.0,0.0,1.0584,0.0,1.0591,1.0624,1.0624,1.0624,1.0624,1.0624,1.0624,1.0624,1.0681,1.1108,1.195,1.2696,1.3061,1.3028,1.345,1.3552,1.3528,1.3532,1.3496,1.3387,1.2286,1.1805,1.1653,1.066,1.0612,1.1208,1.1661,1.2548,1.3616,1.4067,1.4707,1.541,1.541,1.541,1.541,1.541,1.541,1.541,1.541,1.5391,1.5243,1.4429,1.4204,1.4288,1.4597,1.469,1.5135,1.6703,1.7594,1.7798,1.6781,1.7146,1.7079,1.5633,1.4767,1.4846,1.6541,1.6009,1.6026,1.7737,1.8949,1.9649,1.9679,2.0521,2.0433,1.8882,1.8788,1.8479,1.77,1.8595,1.916,1.9138,2.0767,2.1698,2.1714,2.3411,2.4253,2.4248,2.5014,2.5313,2.5149,2.5077,2.5403,0.9633,1.0421,1.1249,1.1911,1.2131,1.2151,1.2011,1.1583,1.1201,1.1038,0.9852,0.8949,0.9268,0.8823,0.8731,0.9826,1.0307,1.0828,1.1643,1.1817,1.175,1.1456,1.149,1.1363,1.0922,1.0748,0.0,0.0,1.0154,1.01,1.0604,1.0624,1.0624,1.0624,1.0624,1.0624,1.0624,1.1787,1.2818,1.3597,1.3786,1.3764,1.3424,1.3557,1.3255,1.2636,1.3233,1.333,1.3027,1.2763,1.2117,1.1325,1.1036,1.0871,1.084,1.1513,1.2868,1.4437,1.5173,1.5447,1.541,1.541,1.541,1.541,1.541,1.541,1.541,1.541,1.5565,1.5742,1.5504,1.5626,1.5862,1.5931,1.5959,1.6266,1.7557,1.7966,1.8108,1.8128,1.7413,1.6482,1.5584,1.5173,1.5377,1.659,1.6153,1.6425,1.8464,1.9541,2.0311,2.0797,2.0652,2.0589,2.0831,1.9674,1.9146,1.9635,1.9863,2.0267,2.0841,2.2001,2.2872,2.3376,2.4559,2.5132,2.5092,2.515,2.5427,2.59,2.5642,2.5939,1.051,1.1236,1.1891,1.2218,1.2305,1.2158,1.161,1.1136,1.0681,1.0105,0.9015,0.8234,0.8419,0.8098,0.8123,0.9178,0.974,1.0374,1.1349,1.1623,1.1703,1.163,1.165,1.1496,1.1035,1.0875,1.0735,0.0,1.0315,1.0214,1.0604,1.0624,1.0501,1.0367,1.0367,1.0547,1.0897,1.2169,1.3271,1.4204,1.4394,1.4372,1.4138,1.3718,1.3308,1.2818,0.0,1.3096,1.2881,1.2881,1.2416,1.1612,1.1426,1.1391,1.1543,1.2433,1.3703,1.5165,1.6276,1.652,1.6358,1.6358,1.6358,1.6301,1.5979,1.5864,1.5864,1.5864,1.6012,1.6208,1.6321,1.6494,1.6718,1.7074,1.7124,1.7467,1.8602,1.8878,1.8797,1.8708,1.7797,1.6802,1.6154,1.5633,1.5718,1.7032,1.6463,1.6697,1.9125,1.9801,2.0389,2.1219,2.1037,2.0914,2.1025,1.9809,1.908,1.9129,1.9799,2.0371,2.0749,2.1991,2.303,2.3765,2.433,2.4966,2.5653,2.5554,2.5842,2.651,2.6135,2.635,1.1276,1.1944,1.2405,1.2325,1.2305,1.2064,1.1142,1.0621,1.0073,0.9025,0.8239,0.7728,0.7671,0.7314,0.7388,0.843,0.8783,0.9432,1.0902,1.1109,1.1296,1.181,1.1637,1.1356,1.1022,1.0768,1.0665,1.0624,1.0624,1.0624,1.0624,1.0584,1.0367,1.0067,1.006,1.046,1.1381,1.2157,1.3081,1.4168,1.4525,1.4668,1.459,1.3848,1.3477,1.3408,0.0,0.0,1.2881,1.2881,1.2627,1.2187,1.1797,1.2068,1.2733,1.3712,1.4781,1.5984,1.73,1.7797,1.7841,1.7677,1.7578,1.7468,1.681,1.6652,1.6652,1.6652,1.6708,1.6881,1.7266,1.7415,1.7687,1.8304,1.8469,1.8692,1.9595,1.9798,1.9579,1.8821,1.8178,1.7596,1.7104,1.6307,1.6268,1.7891,1.7079,1.7203,1.9752,1.9901,2.0107,2.1069,2.1429,2.1252,2.0375,1.9759,1.8958,1.7901,1.9243,1.9964,1.9786,2.1293,2.2514,2.3285,2.3558,2.4431,2.6004,2.6086,2.6424,2.6971,2.6597,2.6731,1.175,1.2412,1.2933,1.2432,1.2305,1.2011,1.0889,0.9846,0.9018,0.879,0.7704,0.7161,0.8273,0.7903,0.7941,0.9528,0.9667,1.0047,1.151,1.1717,1.1757,1.1857,1.1824,1.1583,1.1042,1.0949,0.0,0.0,1.0624,1.0624,1.0624,1.0327,1.006,0.9766,0.976,1.043,1.176,1.1937,1.2753,1.4128,1.4169,1.4062,1.3721,1.3574,1.332,1.2988,1.291,0.0,1.2881,1.2881,1.2627,1.218,1.2102,1.2544,1.3254,1.419,1.5616,1.7265,1.8166,1.8927,1.9202,1.8015,1.7578,1.7578,1.7468,1.7413,1.7413,1.7413,1.7852,1.8466,1.9083,1.9699,2.0178,2.0291,2.0341,2.0217,1.9876,1.9798,1.9579,1.8821,1.8608,1.8442,1.8331,1.7885,1.8093,1.9628,1.8931,1.8776,2.0365,1.9934,1.9726,2.0399,2.1152,2.1245,2.0377,2.0736,2.0603,1.9706,1.9783,1.9797,1.9649,2.0703,2.1613,2.2237,2.3771,2.5035,2.6004,2.65,2.697,2.738,2.7167,2.7302,1.2318,1.2639,1.2899,1.2605,1.2184,1.1543,1.0367,0.9432,0.8602,0.7955,0.7278,0.7018,0.7694,0.7652,0.7895,0.905,0.9248,0.9686,1.1068,1.1189,1.131,1.1396,1.141,1.1243,1.0808,1.0768,1.0715,1.0631,1.0414,1.0327,1.0327,0.976,0.9439,0.9452,0.9158,0.9879,1.1668,1.1668,1.2483,1.4077,1.3916,1.3701,1.3496,1.3281,1.3066,1.2881,1.2881,0.0,1.2881,1.2881,1.2627,1.2161,1.1973,1.281,1.4192,1.4691,1.6324,1.8388,1.9049,1.9475,1.9683,1.898,1.8715,1.8661,1.8286,1.8167,1.8167,1.8167,1.8447,1.8915,2.0004,2.0521,2.0894,2.121,2.1245,2.1197,2.0855,2.0805,2.0693,2.0306,2.0256,2.0152,1.9829,1.9127,1.8995,2.0208,1.9657,1.945,2.0553,2.0546,2.0423,2.0353,2.1134,2.1257,2.0289,2.1327,2.1402,1.9931,2.0138,2.0065,1.9475,2.0317,2.1135,2.1877,2.3198,2.4664,2.6303,2.6401,2.6976,2.7961,2.7496,2.7366,1.2681,1.2916,1.2906,1.2856,1.2124,1.1196,0.9967,0.9132,0.8317,0.7198,0.6974,0.6989,0.714,0.7301,0.7634,0.8454,0.8666,0.9145,1.045,1.0624,1.0668,1.0955,1.0995,1.0875,1.0651,1.0564,0.0,1.0461,1.0134,0.0,0.9927,0.9279,0.8978,0.909,0.8704,0.9336,1.1137,1.1295,1.2132,1.3638,1.3474,1.3369,1.3359,1.3027,1.2881,1.2881,1.2881,0.0,0.0,1.2783,1.2683,1.25,1.2233,1.3382,1.5246,1.5487,1.7003,1.9033,1.9497,1.971,1.9798,1.9798,1.9798,1.9695,1.9097,1.8855,1.8794,1.8903,1.8948,1.929,2.0644,2.1077,2.1321,2.1805,2.1805,2.1697,2.1697,2.1777,2.1857,2.1857,2.1983,2.1921,2.1544,2.0797,2.0491,2.1167,2.0961,2.0859,2.1278,2.1711,2.1621,2.074,2.1268,2.1336,2.0413,2.1695,2.185,2.0206,2.0674,2.0655,1.9874,2.0446,2.118,2.2042,2.2777,2.4238,2.6469,2.626,2.6856,2.8166,2.7572,2.7255,1.2735,1.3146,1.3427,1.2879,1.2358,1.1456,1.0013,0.8818,0.7775,0.7118,0.6814,0.6874,0.7653,0.7384,0.7517,0.8895,0.8734,0.8918,1.0416,1.0624,1.0668,1.0955,1.0995,1.0875,1.0651,1.0314,1.016,1.016,0.9639,0.0,0.9263,0.919,0.9037,0.8851,0.8798,0.9145,0.9962,1.0565,1.1234,1.2022,1.2635,1.2939,1.2939,1.29,1.2881,1.2881,1.2881,0.0,0.0,1.2451,1.2799,1.3658,1.3767,1.4795,1.6314,1.6896,1.7898,1.8983,1.9083,1.9409,1.9798,1.9798,1.9798,1.9798,1.9695,1.937,1.9096,1.9558,1.9773,2.0157,2.1336,2.2067,2.2558,2.2603,2.2146,2.1697,2.1697,2.2094,2.2417,2.2417,2.2805,2.3182,2.3256,2.3658,2.3958,2.379,2.4441,2.458,2.3562,2.3666,2.322,2.1571,2.1579,2.1548,2.112,2.1903,2.2254,2.1816,2.1736,2.1673,2.1582,2.1656,2.2061,2.2887,2.3388,2.4418,2.6056,2.6496,2.6954,2.7409,2.7317,2.7115,1.2251,1.2786,1.3046,1.2882,1.177,1.0568,0.9626,0.8504,0.7482,0.688,0.6807,0.6928,0.7301,0.7154,0.7298,0.8262,0.8085,0.8277,0.9586,0.9619,0.9746,1.0388,1.0468,1.0488,1.0618,0.0,0.9639,0.9105,0.8851,0.0,0.8413,0.84,0.8484,0.8544,0.8377,0.8934,1.0407,1.0933,1.1765,1.2821,1.3142,1.3389,1.3623,1.3369,1.3262,1.3262,1.3262,0.0,0.0,1.2695,1.3077,1.3794,1.3556,1.4674,1.6407,1.6404,1.7517,1.8933,1.8643,1.9095,1.9748,1.9434,1.9547,1.9798,1.9798,1.9899,1.9987,1.9849,2.0386,2.109,2.1547,2.2469,2.3246,2.3246,2.3039,2.2906,2.3274,2.3503,2.3864,2.4641,2.4953,2.5258,2.577,2.5738,2.5575,2.5264,2.5794,2.562,2.3912,2.4284,2.3863,2.1668,2.1926,2.1901,2.1101,2.1713,2.2074,2.1884,2.1837,2.1803,2.1803,2.2081,2.2369,2.2696,2.4055,2.5323,2.6427,2.6852,2.7357,2.7947,2.7274,2.7096,1.2054,1.2903,1.3426,1.3133,1.175,1.0283,0.9314,0.819,0.7194,0.6693,0.682,0.6979,0.6979,0.6979,0.7178,0.7782,0.7742,0.7983,0.903,0.8991,0.9072,0.9773,0.978,0.988,1.0261,0.9846,0.9185,0.831,0.8243,0.0,0.7636,0.7749,0.7929,0.8237,0.8043,0.8588,1.0062,1.0818,1.167,1.2735,1.3109,1.3545,1.3936,1.3516,1.3389,1.3496,1.3379,0.0,0.0,1.2778,1.3351,1.4258,1.4002,1.5039,1.6684,1.6581,1.7375,1.8505,1.8292,1.894,1.9825,1.9608,1.9937,2.037,2.037,2.0579,2.0655,1.9965,2.0555,2.1444,2.1889,2.2673,2.337,2.355,2.3709,2.3948,2.4307,2.4829,2.5512,2.6525,2.7033,2.7421,2.7797,2.7594,2.7202,2.6554,2.7157,2.6982,2.5075,2.5356,2.474,2.2113,2.2061,2.1827,2.096,2.1358,2.1792,2.2133,2.2152,2.2209,2.2356,2.2672,2.3034,2.3392,2.4678,2.5935,2.7181,2.7085,2.7446,2.8217,2.7165,2.7097,1.2172,1.3679,1.4744,1.389,1.2563,1.1017,0.9213,0.7882,0.6941,0.6653,0.682,0.6979,0.6979,0.6979,0.7178,0.7782,0.7882,0.818,0.9064,0.8991,0.8918,0.9157,0.8998,0.9051,0.9639,0.9419,0.8825,0.7955,0.0,0.0,0.7025,0.7308,0.7615,0.7875,0.7882,0.8076,0.8427,0.9719,1.0573,1.0821,1.2264,1.3105,1.3496,1.3076,1.3115,0.0,0.0,0.0,0.0,1.245,1.3561,1.5525,1.5712,1.6451,1.7451,1.799,1.7852,1.7476,1.8016,1.8973,2.0091,2.0611,2.121,2.1697,2.1697,2.1355,2.0837,2.0013,2.0233,2.1035,2.2322,2.2682,2.2847,2.3445,2.3991,2.4389,2.4389,2.5821,2.7201,2.7603,2.8699,2.942,2.8951,2.9367,2.9296,2.7806,2.8942,2.9351,2.7668,2.7298,2.6082,2.3188,2.1881,2.1097,2.0819,2.0811,2.1427,2.2887,2.2997,2.3214,2.366,2.3674,2.4257,2.5429,2.5157,2.61,2.8299,2.7198,2.708,2.7807,2.7046,2.7097,1.0141,1.1038,1.1564,1.149,1.0546,0.927,0.8187,0.7177,0.6445,0.635,0.6526,0.6787,0.6987,0.6979,0.7148,0.7548,0.7615,0.7856,0.855,0.8738,0.8991,0.9486,0.982,0.984,0.0,0.0,0.8577,0.7682,0.0,0.0,0.6992,0.7108,0.7301,0.7602,0.7615,0.8158,0.9267,1.0018,1.1011,1.2255,1.2676,1.2991,1.3218,1.3292,1.2962,0.0,0.0,0.0,0.0,1.2218,1.2922,1.3941,1.4619,1.5154,1.5602,1.6056,1.6433,1.6684,1.649,1.7705,1.945,2.0112,2.0921,2.1862,2.2804,2.2592,2.204,2.1741,2.186,2.2178,2.2602,2.2996,2.3355,2.355,2.3991,2.4511,2.4871,2.629,2.7824,2.8801,2.9981,3.0944,3.1287,3.1515,3.1389,3.0597,3.079,3.044,2.881,2.7612,2.5886,2.3192,2.2215,2.1386,2.0477,1.9892,2.0327,2.2079,2.1953,2.2146,2.2842,2.3147,2.3485,2.3842,2.5071,2.6284,2.749,2.8024,2.8383,2.8619,2.8907,2.9161,0.9116,1.033,1.0975,1.0593,0.9779,0.8752,0.7437,0.6579,0.6055,0.6169,0.6424,0.668,0.6967,0.6979,0.7121,0.7459,0.7569,0.7816,0.8303,0.8624,0.8945,0.9312,0.9873,0.0,0.0,0.8851,0.8437,0.758,0.0,0.0,0.6979,0.6979,0.7108,0.7295,0.7301,0.7923,0.9183,0.9719,1.0585,1.1694,1.1988,1.2143,1.2182,1.2159,1.1969,0.0,0.0,0.0,0.0,1.2167,1.2822,1.3761,1.4518,1.4873,1.5034,1.5478,1.5843,1.6133,1.6204,1.7801,1.9889,2.0516,2.1625,2.2918,2.3948,2.3515,2.2667,2.2857,2.2834,2.2775,2.2971,2.3505,2.4044,2.4298,2.474,2.521,2.5657,2.7167,2.8781,2.9986,3.123,3.2294,3.2961,3.2979,3.2744,3.2291,3.2088,3.1381,2.9726,2.8039,2.5976,2.3343,2.2482,2.1557,2.0181,1.9569,1.9884,2.1369,2.1252,2.1619,2.2676,2.3215,2.3727,2.4247,2.5709,2.694,2.7871,2.8636,2.9011,2.9045,2.9753,3.0108,0.0,1.0894,1.2158,1.0557,0.9834,0.8989,0.6997,0.6092,0.0,0.6129,0.6411,0.6653,0.6967,0.6979,0.7108,0.7432,0.7695,0.8003,0.8303,0.8651,0.8864,0.0,0.9339,0.0,0.843,0.8584,0.839,0.0,0.0,0.0,0.6979,0.6979,0.6979,0.6979,0.6979,0.7411,0.8275,0.8877,0.9344,0.9699,1.0383,1.0677,1.0522,1.0228,1.0567,0.0,0.0,0.0,0.0,1.2271,1.3184,1.4552,1.507,1.5274,1.5448,1.5892,1.5875,1.5745,1.6919,1.8986,2.1178,2.1746,2.3143,2.4692,2.5146,2.4142,2.2995,2.3493,2.3305,2.302,2.3606,2.4222,2.4882,2.5589,2.6013,2.6462,2.6787,2.8388,3.0074,3.1174,3.2429,3.3469,3.3971,3.3846,3.3536,3.311,3.2932,3.2229,3.049,2.8534,2.6281,2.3665,2.2779,2.168,1.9991,1.9831,2.0117,2.0834,2.0994,2.1655,2.3034,2.3773,2.4773,2.6038,2.6802,2.7856,2.9206,2.919,2.918,2.9144,2.9854,3.0192,0.0,0.0,0.8686,0.7967,0.7756,0.7381,0.0,0.5645,0.5558,0.6088,0.625,0.6451,0.6927,0.6979,0.7041,0.7114,0.7381,0.7682,0.7989,0.8864,0.0,0.911,0.9466,0.9252,0.8143,0.8096,0.7949,0.0,0.0,0.6979,0.6979,0.6979,0.6979,0.6979,0.6979,0.7307,0.7983,0.815,0.8609,0.9423,0.9977,1.0136,0.9956,1.083,1.0851,0.0,0.0,0.0,1.1253,1.2155,1.2891,1.3524,1.434,1.4493,1.4275,1.4686,1.511,1.5706,1.6953,1.8923,2.1324,2.3733,2.5419,2.6471,2.6094,2.5338,2.4561,2.4307,2.4476,2.4798,2.4979,2.5561,2.6205,2.6808,2.7356,2.7838,2.8266,2.9909,3.1477,3.2093,3.338,3.4392,3.4586,3.4548,3.4489,3.4376,3.3766,3.2775,3.124,2.8816,2.6408,2.4283,2.3494,2.2353,2.0421,2.0764,2.1016,2.0841,2.1744,2.2485,2.2922,2.4172,2.4834,2.4735,2.6449,2.7964,2.9206,3.0213,3.0666,3.0683,3.0852,3.0937,0.0,0.7128,0.7613,0.6853,0.6885,0.6822,0.591,0.5491,0.5484,0.6075,0.6196,0.6371,0.6914,0.6979,0.7068,0.7201,0.7482,0.0,0.0,0.8564,0.8918,0.9025,0.9065,0.8831,0.0,0.0,0.0,0.0,0.0,0.6979,0.6979,0.6979,0.6979,0.6979,0.6894,0.7298,0.8275,0.8275,0.8527,0.9048,0.934,0.9232,0.8913,0.9598,0.9922,0.0,0.0,0.0,1.1557,1.2139,1.2805,1.3489,1.4178,1.4374,1.4323,1.4969,1.5519,1.615,1.7629,1.9876,2.2498,2.4987,2.6181,2.6578,2.6089,2.5921,2.5811,2.5409,2.5534,2.6029,2.6639,2.7121,2.7562,2.8168,2.8477,2.886,2.961,3.0827,3.209,3.3006,3.4037,3.484,3.5125,3.5068,3.4981,3.498,3.4275,3.3099,3.1299,2.8935,2.6601,2.4464,2.4131,2.352,2.2264,2.3217,2.3196,2.1589,2.2184,2.2995,2.388,2.5044,2.5703,2.5804,2.7107,2.8281,2.9306,3.0222,3.0869,3.119,3.119,3.119,0.6222,0.6964,0.7632,0.6493,0.6543,0.6691,0.5964,0.5591,0.5605,0.6149,0.6256,0.6424,0.6927,0.7061,0.7174,0.7473,0.0,0.0,0.8644,0.8417,0.833,0.8697,0.8524,0.0,0.8116,0.0,0.0,0.0,0.0,0.6954,0.6954,0.6914,0.6887,0.6887,0.6726,0.7226,0.843,0.8479,0.8512,0.8512,0.8633,0.8504,0.816,0.8242,0.8964,0.0,0.0,0.0,1.2266,1.2417,1.3058,1.3999,1.443,1.4631,1.481,1.5875,1.6379,1.6834,1.8864,2.1393,2.4021,2.5693,2.6178,2.6059,2.5681,2.6201,2.6807,2.6586,2.6586,2.6973,2.8313,2.8719,2.895,2.9597,2.9699,2.9892,3.0999,3.1722,3.2569,3.393,3.4595,3.5058,3.5529,3.5416,3.522,3.5152,3.4507,3.3223,3.1004,2.8969,2.6821,2.4454,2.4658,2.4762,2.4253,2.5843,2.5795,2.3308,2.3157,2.388,2.552,2.6171,2.6898,2.776,2.8046,2.8554,2.9271,2.9741,3.0314,3.0918,3.1015,3.1055,0.5571,0.6415,0.7279,0.6086,0.6108,0.6373,0.6183,0.6088,0.6156,0.6492,0.6526,0.6627,0.6961,0.7228,0.7459,0.7506,0.0,0.9038,0.0,0.0,0.9172,0.8517,0.0,0.7976,0.0,0.0,0.0,0.0,0.0,0.6653,0.6653,0.6465,0.633,0.633,0.6605,0.6929,0.7269,0.7479,0.7617,0.7617,0.8396,0.8961,0.9279,0.9725,1.0078,0.0,0.0,1.1784,1.2497,1.3423,1.4094,1.4617,1.5176,1.5119,1.4822,1.594,1.6729,1.7642,2.0966,2.3377,2.5084,2.5911,2.6405,2.6489,2.5796,2.6556,2.7637,2.7597,2.7689,2.8152,2.9641,3.0041,3.026,3.1232,3.1428,3.1725,3.2991,3.3496,3.4018,3.4909,3.531,3.5529,3.566,3.5603,3.5378,3.4927,3.4428,3.3178,3.0707,2.8806,2.6821,2.4454,2.5167,2.5389,2.4301,2.6324,2.7452,2.6962,2.6504,2.6744,2.7829,2.7583,2.7735,2.8427,2.7887,2.7937,2.8654,2.9204,2.9576,2.9673,3.0208,3.0435,0.5621,0.5812,0.6188,0.6202,0.645,0.6678,0.6633,0.65,0.6473,0.676,0.682,0.6914,0.7208,0.7515,0.7869,0.835,0.0,0.9118,0.9345,0.9011,0.8584,0.0,0.0,0.0,0.0,0.0,0.0,0.0,0.0,0.0,0.6391,0.6263,0.6196,0.6196,0.6207,0.6328,0.6627,0.7017,0.7332,0.7502,0.8405,0.8898,0.9115,0.9392,1.0051,1.1074,0.0,1.2079,1.2837,1.3639,1.4291,1.4827,1.5392,1.5644,1.584,1.731,1.8618,1.9948,2.2005,2.3788,2.5294,2.6014,2.6614,2.6967,2.6625,2.7469,2.8476,2.8476,2.8766,2.9331,3.0768,3.1082,3.1206,3.2004,3.1971,3.2029,3.2957,3.3401,3.3839,3.4603,3.5209,3.5619,3.5632,3.55,3.5156,3.4472,3.35,3.2027,2.9769,2.8325,2.6824,2.5037,2.5679,2.627,2.6455,2.7744,2.8377,2.7977,2.8081,2.8414,2.8991,2.8422,2.8228,2.8592,2.822,2.8186,2.8511,2.9104,2.9406,2.9406,2.9673,2.9995,0.5641,0.5497,0.5626,0.6402,0.6707,0.6914,0.7261,0.7168,0.7094,0.7381,0.7442,0.7468,0.7555,0.7769,0.0,0.9044,0.9183,0.9132,0.8824,0.847,0.8161,0.8094,0.0,0.0,0.0,0.0,0.0,0.0,0.0,0.0,0.6088,0.6021,0.5954,0.5887,0.5889,0.5963,0.6072,0.6974,0.7474,0.7653,0.8362,0.8766,0.8858,0.8949,0.9857,1.1407,1.1692,1.2332,1.3125,1.3673,1.4198,1.4678,1.5348,1.6144,1.71,1.8545,2.0205,2.1805,2.2452,2.3819,2.5301,2.5986,2.6699,2.7299,2.72,2.8064,2.9089,2.9107,2.9741,3.0612,3.1533,3.188,3.2044,3.2222,3.2165,3.2184,3.286,3.3131,3.3526,3.4365,3.5001,3.5407,3.5411,3.5238,3.4823,3.4037,3.261,3.0937,2.9074,2.7807,2.6625,2.5288,2.605,2.7186,2.8499,2.902,2.9059,2.8639,2.9264,2.9636,2.9487,2.9038,2.8679,2.8592,2.8408,2.8286,2.8286,2.8764,2.8996,2.8996,2.9134,2.9496,0.5344,0.5812,0.6501,0.658,0.6438,0.6619,0.7963,0.8263,0.833,0.8617,0.0,0.0,0.0,0.7868,0.8167,0.9044,0.9183,0.9356,0.992,0.0,0.8991,0.0,0.0,0.0,0.0,0.0,0.0,0.0,0.0,0.0,0.5745,0.5491,0.5217,0.4907,0.5891,0.6125,0.5464,0.7363,0.8124,0.7797,0.8223,0.8639,0.8994,0.9382,0.9876,1.0551,1.1744,1.2644,1.33,1.3792,1.4004,1.4185,1.5245,1.6666,1.8185,1.8832,2.0205,2.1805,2.2452,2.3819,2.5281,2.5697,2.6506,2.7257,2.6936,2.7862,2.903,2.9089,3.0602,3.2138,3.1779,3.2444,3.2915,3.1918,3.2166,3.286,3.3725,3.3688,3.3832,3.4997,3.5027,3.4863,3.4849,3.4793,3.4494,3.3744,3.2177,3.055,2.9073,2.7543,2.601,2.4606,2.6262,2.7934,2.9233,2.9371,2.962,3.0103,3.0777,3.0671,2.9568,2.9438,2.9154,2.8592,2.797,2.766,2.766,2.771,2.771,2.776,2.8319,2.8873,0.5393,0.5499,0.5743,0.6645,0.6774,0.7034,0.8343,0.8644,0.8724,0.9018,0.9225,0.0,0.0,0.0,0.8692,0.8731,0.901,0.9196,0.9299,0.8958,0.0,0.0,0.0,0.0,0.0,0.0,0.0,0.0,0.0,0.0,0.4896,0.4796,0.4683,0.4542,0.4969,0.5272,0.5402,0.6168,0.6675,0.6941,0.7928,0.8499,0.8633,0.9053,0.9832,1.0871,1.1643,1.2438,1.3287,1.3828,1.4049,1.4148,1.4887,1.622,1.7827,1.8862,2.0268,2.1838,2.2905,2.3825,2.4628,2.5464,2.6316,2.7201,2.8227,2.9107,2.9995,3.1199,3.2247,3.2877,3.2253,3.2747,3.3184,3.2148,3.2351,3.2779,3.281,3.3316,3.3815,3.4072,3.4448,3.4642,3.435,3.4143,3.3725,3.2919,3.1315,2.9706,2.8163,2.7079,2.6132,2.5242,2.6919,2.8311,2.881,2.918,2.9496,2.9717,3.0326,3.0494,3.0069,2.9674,2.9181,2.8592,2.7919,2.7625,2.7625,2.7625,2.7625,2.7625,2.781,2.8448,0.5514,0.5373,0.534,0.6552,0.6954,0.7317,0.8651,0.8945,0.9105,0.9673,0.9485,0.8959,0.8178,0.0,0.0,0.0,0.8488,0.8705,0.8557,0.8357,0.0,0.0,0.0,0.0,0.0,0.0,0.0,0.0,0.0,0.0,0.0,0.4315,0.4269,0.4269,0.4479,0.4807,0.5266,0.5474,0.5858,0.6416,0.7324,0.7832,0.8018,0.8535,0.955,1.0934,1.1502,1.2318,1.3223,1.3647,1.3934,1.4123,1.45,1.5894,1.7828,1.892,2.044,2.2179,2.342,2.3955,2.428,2.5407,2.6038,2.6712,2.8492,2.9411,3.0207,3.2102,3.3004,3.3316,3.2898,3.3279,3.3498,3.2512,3.2489,3.2707,3.2571,3.3115,3.3614,3.3652,3.3964,3.4115,3.3802,3.3305,3.2732,3.1951,3.018,2.8518,2.7285,2.6375,2.5816,2.5899,2.7094,2.8084,2.848,2.8933,2.925,2.9421,3.0041,3.017,2.9801,2.9342,2.8856,2.8314,2.7814,2.7625,2.7625,2.7625,2.7625,2.7625,2.7625,2.8125,0.5631,0.5504,0.5498,0.6373,0.6814,0.737,0.8851,0.9183,0.9508,1.0735,0.9497,0.8233,0.8324,0.7517,0.0,0.7418,0.7729,0.7875,0.7875,0.0,0.0,0.0,0.0,0.0,0.0,0.0,0.0,0.0,0.0,0.0,0.0,0.414,0.3985,0.3992,0.4631,0.4979,0.4992,0.5652,0.6119,0.6396,0.6396,0.6641,0.7136,0.7914,0.9101,1.0521,1.1355,1.2258,1.3185,1.3185,1.3546,1.4072,1.4109,1.5841,1.8372,1.9073,2.0756,2.2875,2.4002,2.4257,2.4293,2.5482,2.5701,2.5778,2.7356,2.8374,2.9398,3.1288,3.2574,3.3486,3.3834,3.4118,3.4007,3.2866,3.2596,3.2768,3.3372,3.3238,3.3241,3.4027,3.3643,3.3214,3.3184,3.2292,3.1418,3.0959,2.8705,2.696,2.6525,2.5307,2.5023,2.6449,2.6572,2.7141,2.8472,2.8592,2.8822,2.9435,3.0118,2.9886,2.8573,2.8527,2.8238,2.761,2.7625,2.7625,2.7625,2.7625,2.7625,2.7625,2.7625,2.7894,0.5122,0.5168,0.5247,0.6241,0.7063,0.7996,0.9265,0.9232,0.8928,0.0,0.8616,0.7836,0.6592,0.6811,0.0,0.6344,0.703,0.7528,0.0,0.0,0.0,0.0,0.0,0.0,0.0,0.0,0.0,0.0,0.0,0.0,0.0,0.3181,0.3214,0.3647,0.385,0.4125,0.4511,0.4897,0.5226,0.5487,0.5487,0.5876,0.6631,0.7342,0.8305,0.9494,1.0588,1.1451,1.2102,1.2492,1.2743,1.2965,1.3672,1.552,1.7908,1.9185,2.1173,2.3359,2.399,2.4547,2.4929,2.444,2.5033,2.6164,2.7588,2.8625,2.9844,3.2467,3.3443,3.3898,3.4858,3.4554,3.3799,3.2888,3.2621,3.2712,3.3069,3.3508,3.3868,3.3924,3.3514,3.3105,3.2745,3.1811,3.0791,2.9835,2.8341,2.6793,2.525,2.4762,2.4689,2.5133,2.6033,2.6931,2.7799,2.7874,2.8381,2.9524,2.9327,2.8971,2.851,2.8976,2.8713,2.7625,2.7625,2.7625,2.7625,2.7625,2.7625,2.7625,2.7625,2.7894,0.4788,0.4952,0.5216,0.6145,0.725,0.8323,0.9145,0.9426,0.9405,0.0,0.8543,0.7891,0.6851,0.6812,0.0,0.615,0.6586,0.0,0.0,0.0,0.0,0.0,0.0,0.0,0.0,0.0,0.0,0.0,0.0,0.0,0.0,0.2616,0.2653,0.3128,0.315,0.3462,0.4138,0.4311,0.462,0.5108,0.5108,0.538,0.5908,0.6741,0.7812,0.9076,1.0505,1.129,1.1656,1.2341,1.2634,1.2775,1.4046,1.5964,1.8158,1.9662,2.1765,2.4053,2.4806,2.5296,2.5609,2.5306,2.5428,2.599,2.7326,2.8577,2.9982,3.2184,3.3544,3.4543,3.5377,3.4747,3.3851,3.3587,3.3152,3.2895,3.3236,3.3704,3.3986,3.3842,3.3314,3.2809,3.255,3.1261,2.9985,2.9003,2.7342,2.5784,2.4623,2.4476,2.4733,2.5327,2.6123,2.6961,2.7904,2.8218,2.8712,2.9535,2.9699,2.938,2.8549,2.895,2.8642,2.764,2.7625,2.7625,2.7625,2.7625,2.7625,2.7625,2.7625,2.781,0.4637,0.4891,0.5347,0.6222,0.7482,0.853,0.8824,0.9673,1.0301,0.9827,0.0,0.813,0.8145,0.7144,0.6393,0.652,0.0,0.0,0.0,0.0,0.0,0.0,0.0,0.0,0.0,0.0,0.0,0.0,0.0,0.0,0.0,0.2311,0.2305,0.2591,0.2594,0.2991,0.3817,0.3852,0.4257,0.0,0.4982,0.4991,0.5029,0.6129,0.752,0.9143,1.0739,1.1501,1.1687,1.2541,1.2947,1.3199,1.4883,1.6866,1.8906,2.0391,2.2528,2.4844,2.6048,2.6358,2.6384,2.7232,2.6602,2.5725,2.6881,2.8423,2.9967,3.1039,3.3177,3.5187,3.5403,3.4736,3.4085,3.4496,3.3818,3.32,3.3647,3.3762,3.3807,3.3734,3.3057,3.2484,3.2484,3.0774,2.9087,2.8167,2.5885,2.4299,2.4405,2.4441,2.5017,2.634,2.6557,2.7141,2.8487,2.9146,2.9564,2.9744,3.0821,3.0642,2.8846,2.8727,2.8338,2.7625,2.7625,2.7625,2.7625,2.7625,2.7625,2.7625,2.7625,2.7625,0.5008,0.5198,0.5617,0.6495,0.7864,0.9132,0.9426,0.9332,0.8803,0.7487,0.7505,0.7477,0.6336,0.6102,0.6058,0.5919,0.0,0.0,0.0,0.0,0.0,0.0,0.0,0.0,0.0,0.0,0.0,0.0,0.0,0.0,0.2285,0.2028,0.2103,0.2585,0.2591,0.2785,0.3193,0.3549,0.3836,0.0,0.4109,0.4187,0.4285,0.5522,0.7306,0.948,0.9858,1.0661,1.1683,1.1885,1.2429,1.3341,1.5051,1.7121,1.9308,2.1215,2.3293,2.5304,2.5834,2.6993,2.8057,2.7227,2.7343,2.7761,2.7557,2.8708,3.0316,3.1388,3.3112,3.4627,3.4452,3.4511,3.4337,3.3258,3.2999,3.3072,3.3276,3.3578,3.3707,3.339,3.2872,3.2484,3.2484,3.0774,2.8639,2.6381,2.4506,2.3623,2.4299,2.4387,2.4751,2.5711,2.6288,2.7141,2.8487,2.8727,2.9475,3.1016,3.0866,3.0537,3.0118,2.9624,2.8801,2.764,2.7625,2.7625,2.7625,2.7625,2.7625,2.7625,2.7625,2.7625,0.4599,0.4917,0.562,0.6811,0.8156,0.915,0.9085,0.8818,0.8283,0.7151,0.7369,0.7456,0.64,0.624,0.6102,0.0,0.0,0.0,0.0,0.0,0.0,0.0,0.0,0.0,0.0,0.0,0.0,0.0,0.0,0.2163,0.2105,0.1972,0.1999,0.2211,0.2219,0.2409,0.2799,0.3047,0.3354,0.3691,0.3774,0.4143,0.481,0.6094,0.757,0.9201,0.9909,1.0702,1.1535,1.1992,1.2854,1.4065,1.6197,1.8124,2.0009,2.215,2.3927,2.5428,2.638,2.754,2.8594,2.8399,2.8471,2.8536,2.7965,2.9282,3.0994,3.1177,3.3087,3.4925,3.4237,3.4426,3.4457,3.3058,3.2939,3.304,3.2906,3.3027,3.3136,3.2921,3.2484,3.2161,3.2161,3.0054,2.7561,2.528,2.3851,2.3416,2.4238,2.4627,2.5152,2.5965,2.6644,2.747,2.8502,2.8542,2.9212,3.0899,3.0909,3.0866,3.0944,3.0687,2.9744,2.8098,2.7739,2.7625,2.7625,2.7625,2.7625,2.7625,2.7625,2.7625,0.4257,0.4785,0.5701,0.7092,0.817,0.8811,0.8323,0.8266,0.8111,0.7547,0.7635,0.7669,0.7061,0.6713,0.6246,0.0,0.0,0.0,0.0,0.0,0.0,0.0,0.0,0.0,0.0,0.0,0.0,0.0,0.0,0.2294,0.2043,0.2033,0.1989,0.1875,0.1865,0.2082,0.2526,0.2526,0.2838,0.3448,0.3504,0.4219,0.5516,0.6791,0.792,0.8914,1.0167,1.1013,1.1571,1.2388,1.3555,1.5105,1.7409,1.9241,2.082,2.2856,2.419,2.5242,2.6668,2.7643,2.8449,2.9508,2.9518,2.8957,2.824,2.9707,3.1441,3.0623,3.266,3.4817,3.3776,3.4036,3.4223,3.2832,3.2785,3.2983,3.2583,3.2484,3.2484,3.2366,3.1969,3.1554,3.124,2.8876,2.6462,2.4652,2.3663,2.3365,2.4176,2.4851,2.5508,2.6229,2.6913,2.7632,2.8311,2.8307,2.8814,3.0238,3.0848,3.1227,3.1317,3.1407,3.0717,2.8966,2.8263,2.785,2.7625,2.7745,2.7679,2.7625,2.7625,2.7625,0.5131,0.5757,0.6488,0.6939,0.7395,0.7728,0.7647,0.7634,0.7533,0.0,0.7321,0.7348,0.6754,0.6445,0.6048,0.0,0.0,0.0,0.0,0.0,0.0,0.0,0.0,0.0,0.0,0.0,0.0,0.0,0.2403,0.2334,0.2185,0.2174,0.2164,0.2144,0.2144,0.2179,0.2249,0.2249,0.2306,0.2399,0.2694,0.3596,0.5033,0.6322,0.7793,0.9408,0.9839,1.0921,1.2372,1.2722,1.4071,1.6078,1.7789,1.9632,2.1406,2.2646,2.3667,2.4511,2.512,2.6378,2.7884,2.8965,2.9757,2.9997,2.8534,2.9372,3.0668,2.9801,3.0973,3.2346,3.1661,3.2565,3.3129,3.101,3.1582,3.2583,3.2517,3.2484,3.2384,3.1951,3.1408,3.053,2.9048,2.7459,2.5962,2.4547,2.3598,2.3365,2.4176,2.4408,2.4738,2.5453,2.6036,2.6649,2.7321,2.7815,2.8446,2.9377,3.0531,3.1008,3.063,3.121,3.112,3.0268,2.9624,2.8742,2.7625,2.8173,2.8158,2.7625,2.7625,2.7625,0.5197,0.5819,0.6377,0.6299,0.6633,0.6975,0.6814,0.6774,0.6734,0.6567,0.668,0.6639,0.6179,0.5865,0.5504,0.0,0.0,0.0,0.0,0.0,0.0,0.0,0.0,0.0,0.0,0.0,0.0,0.0,0.251,0.2451,0.2314,0.2314,0.2275,0.2205,0.2195,0.2164,0.2084,0.2084,0.224,0.2546,0.3415,0.4438,0.5595,0.6582,0.7788,0.9142,0.9948,1.1074,1.2356,1.2505,1.4154,1.666,1.7848,1.982,2.2077,2.3038,2.3995,2.4894,2.5601,2.6427,2.7315,2.8267,2.8813,2.8879,2.7713,2.888,3.0428,2.9623,3.0959,3.2373,3.1354,3.226,3.2993,3.1253,3.1894,3.2702,3.2016,3.1812,3.1603,3.1072,3.0761,2.9845,2.7611,2.6716,2.5731,2.4,2.3398,2.3245,2.3603,2.4002,2.4408,2.4738,2.5652,2.6486,2.7152,2.7257,2.7795,2.9083,2.9989,3.0668,3.0865,3.1649,3.1764,3.1091,3.0103,2.9101,2.8143,2.8457,2.8248,2.7625,2.7625,2.7625,0.524,0.5753,0.6034,0.5598,0.5942,0.632,0.592,0.0,0.5947,0.0,0.586,0.5731,0.5431,0.5324,0.5094,0.0,0.0,0.0,0.0,0.0,0.0,0.0,0.0,0.0,0.0,0.0,0.0,0.0,0.2598,0.2558,0.2452,0.2452,0.2402,0.2303,0.2303,0.2243,0.2104,0.2169,0.2473,0.302,0.4124,0.5187,0.6228,0.6929,0.7837,0.8907,1.0045,1.122,1.2362,1.2494,1.4337,1.7179,1.8289,2.0278,2.2633,2.3521,2.4319,2.5065,2.5706,2.6154,2.6611,2.7461,2.7719,2.7565,2.6972,2.8092,2.9491,2.9146,3.049,3.1881,3.1231,3.2012,3.2751,3.1776,3.2391,3.2883,3.1756,3.1072,3.0603,3.0344,2.9903,2.8894,2.6741,2.6058,2.519,2.3529,2.3157,2.3078,2.3078,2.379,2.4223,2.4223,2.5329,2.6277,2.6783,2.6733,2.7247,2.8691,2.9688,3.0495,3.102,3.2153,3.2377,3.1497,3.0582,2.9594,2.8607,2.8771,2.8412,2.7625,2.7625,2.7715,0.5521,0.5793,0.5736,0.5009,0.5408,0.5751,0.503,0.0,0.5244,0.4934,0.4874,0.4787,0.4529,0.4917,0.5116,0.0,0.0,0.0,0.0,0.0,0.0,0.0,0.0,0.0,0.0,0.0,0.0,0.0,0.2598,0.2598,0.2588,0.2588,0.2588,0.2578,0.2578,0.251,0.2383,0.2626,0.3029,0.3568,0.4213,0.5201,0.6496,0.7115,0.7965,0.9033,0.9928,1.1257,1.28,1.3133,1.4945,1.7731,1.9434,2.1236,2.2998,2.3927,2.4292,2.4344,2.4332,2.4873,2.5703,2.6516,2.6767,2.6767,2.6798,2.6898,2.7138,2.7877,2.857,2.9397,3.0591,3.1389,3.1899,3.1974,3.2618,3.2934,3.1969,3.048,2.951,3.0161,2.8794,2.7265,2.6474,2.5232,2.4092,2.3267,2.3113,2.3078,2.3078,2.3615,2.4016,2.4016,2.5012,2.5656,2.5681,2.6211,2.6958,2.8002,2.9854,3.0821,3.0559,3.2437,3.2841,3.1497,3.1407,3.0507,2.8607,2.922,2.8861,2.7625,2.7625,2.7919,0.5765,0.567,0.5588,0.5823,0.5665,0.5392,0.5218,0.5076,0.49,0.4603,0.4528,0.4469,0.4207,0.4321,0.4465,0.0,0.0,0.0,0.0,0.0,0.0,0.0,0.0,0.0,0.0,0.0,0.0,0.0,0.0,0.2598,0.2598,0.2598,0.2598,0.2598,0.2598,0.2663,0.2785,0.3428,0.386,0.4054,0.5222,0.6143,0.6857,0.7892,0.8689,0.9296,0.9898,1.1024,1.2419,1.2645,1.4652,1.7718,1.8943,2.0886,2.3013,2.3393,2.388,2.4275,2.3691,2.3708,2.4093,2.4901,2.5036,2.4995,2.5546,2.5986,2.6454,2.7268,2.8041,2.8966,3.0358,3.1017,3.1517,3.2169,3.2188,3.1994,3.1846,3.0813,2.9737,2.9141,2.815,2.6872,2.5315,2.4597,2.4002,2.3185,2.3078,2.3078,2.3078,2.364,2.4004,2.4004,2.4958,2.5598,2.5598,2.6126,2.7037,2.8357,2.9241,3.0101,3.0937,3.1289,3.1245,3.0718,2.9865,2.932,2.922,2.946,2.8891,2.7625,2.8023,2.8368,0.5794,0.0,0.5767,0.6071,0.5923,0.5577,0.5127,0.4831,0.4544,0.4236,0.3997,0.3871,0.3886,0.3701,0.366,0.4102,0.0,0.0,0.0,0.0,0.0,0.0,0.0,0.0,0.0,0.0,0.0,0.0,0.0,0.0,0.2529,0.2529,0.2558,0.2598,0.2683,0.287,0.3175,0.392,0.4439,0.4715,0.593,0.6795,0.7373,0.8426,0.9126,0.9529,1.0216,1.1191,1.233,1.2483,1.4743,1.8236,1.9157,2.1136,2.3478,2.3515,2.3904,2.4274,2.3344,2.3003,2.3095,2.3876,2.3788,2.3539,2.4526,2.4999,2.5435,2.6709,2.7689,2.8745,3.0349,3.1162,3.173,3.2349,3.2223,3.1898,3.1845,3.0656,2.9394,2.8451,2.745,2.6165,2.4329,2.3929,2.3644,2.2946,2.2952,2.314,2.3401,2.3916,2.4418,2.4782,2.546,2.5963,2.6151,2.6339,2.7003,2.8277,2.8964,2.9834,3.0845,3.1006,3.0802,3.0329,2.9355,2.9083,2.9478,2.9311,2.8753,2.7934,2.8607,2.9041,0.0,0.0,0.0,0.0,0.0,0.0,0.4722,0.0,0.4203,0.3797,0.3233,0.3,0.3565,0.3085,0.2853,0.3557,0.0,0.0,0.0,0.0,0.0,0.0,0.0,0.0,0.0,0.0,0.0,0.0,0.2293,0.2332,0.2403,0.2421,0.2489,0.2617,0.2898,0.3193,0.3529,0.406,0.4725,0.5507,0.6183,0.7034,0.8004,0.8627,0.9204,0.977,1.0812,1.1791,1.2668,1.2801,1.5374,1.9296,2.0194,2.2096,2.4364,2.439,2.4395,2.4249,2.3226,2.2801,2.2793,2.3526,2.3095,2.2534,2.3873,2.3899,2.3953,2.6169,2.74,2.8524,3.0564,3.1768,3.2484,3.2451,3.2703,3.2703,3.1908,2.9935,2.8294,2.828,2.6703,2.4984,2.3599,2.3205,2.2949,2.2397,2.2786,2.3339,2.3916,2.4469,2.5209,2.6302,2.6483,2.6628,2.7168,2.6728,2.6837,2.7696,2.9127,3.0101,3.0341,3.1662,3.1752,3.0283,3.024,2.9878,2.9201,2.8685,2.8525,2.8652,2.931,2.9939,0.6089,0.0,0.0,0.0,0.0,0.0,0.0,0.0,0.488,0.4139,0.3628,0.3249,0.3084,0.3044,0.3037,0.3046,0.0,0.0,0.0,0.0,0.0,0.0,0.0,0.0,0.0,0.0,0.0,0.0,0.2083,0.2313,0.2539,0.2914,0.3099,0.3034,0.3717,0.4129,0.4228,0.4853,0.5283,0.552,0.6369,0.7132,0.7817,0.8606,0.9292,0.9863,1.0302,1.1713,1.3722,1.4357,1.6414,1.9338,2.0798,2.2207,2.3457,2.4043,2.42,2.3934,2.2737,2.2193,2.2136,2.2685,2.2572,2.241,2.3431,2.3531,2.3765,2.6087,2.6907,2.7665,3.0106,3.1303,3.1688,3.106,3.1247,3.1283,3.0274,2.9169,2.8225,2.7603,2.6376,2.4817,2.2948,2.2879,2.2949,2.2397,2.2786,2.3339,2.3916,2.413,2.4494,2.5209,2.5272,2.5335,2.5498,2.5699,2.6569,2.8303,2.8745,2.9734,3.1545,3.0892,3.02,2.9393,2.8387,2.7696,2.7395,2.8528,2.9156,2.9325,2.9953,3.0612,0.0,0.0,0.0,0.0,0.0,0.0,0.6439,0.5791,0.5047,0.0,0.3491,0.3023,0.2974,0.2865,0.277,0.2722,0.0,0.0,0.0,0.0,0.0,0.0,0.0,0.0,0.0,0.1185,0.1127,0.2006,0.2256,0.2228,0.1903,0.2855,0.3552,0.3868,0.4388,0.4761,0.4964,0.5433,0.5808,0.6094,0.67,0.7359,0.8097,0.8803,0.9436,1.0028,1.0913,1.2553,1.4726,1.5898,1.7711,1.9878,2.1181,2.2408,2.3465,2.3919,2.3879,2.3513,2.271,2.2083,2.1735,2.2395,2.23,2.207,2.2524,2.2648,2.3041,2.4931,2.6306,2.7706,2.9797,3.0504,3.0547,3.0031,3.0363,3.0429,2.9182,2.8655,2.8143,2.7041,2.5805,2.438,2.2629,2.2774,2.2949,2.2397,2.2987,2.3703,2.4268,2.4531,2.4883,2.5448,2.4942,2.4583,2.4583,2.4853,2.5654,2.7125,2.8014,2.9187,3.0672,3.0221,2.9491,2.8567,2.7786,2.729,2.7143,2.8277,2.9392,3.0402,3.0761,3.115,0.0,0.0,0.0,0.0,0.0,0.0,0.626,0.5664,0.5078,0.0,0.3316,0.2778,0.3232,0.2772,0.2423,0.2751,0.258,0.0,0.0,0.0,0.0,0.0,0.0,0.0,0.2314,0.0908,0.0701,0.2386,0.2539,0.2109,0.1097,0.2532,0.381,0.4773,0.4878,0.5169,0.5666,0.5901,0.6324,0.6924,0.7111,0.7759,0.8792,0.9169,0.967,1.0341,1.1946,1.369,1.5518,1.7097,1.8839,2.0577,2.1457,2.2641,2.3848,2.3928,2.3629,2.3172,2.2841,2.2134,2.1468,2.2104,2.1907,2.1404,2.1354,2.1529,2.1994,2.3471,2.5786,2.8127,2.9492,2.944,2.9041,2.9041,2.9563,2.9658,2.8258,2.8047,2.7712,2.6332,2.5093,2.3877,2.2513,2.2774,2.2949,2.2397,2.3276,2.4192,2.4745,2.5172,2.5636,2.6214,2.5056,2.4126,2.4046,2.4106,2.4393,2.5073,2.7043,2.8305,2.8753,2.9456,2.9251,2.7968,2.7892,2.7786,2.767,2.8089,2.9348,3.1351,3.1278,3.1278,0.0,0.0,0.0,0.0,0.0,0.0,0.7374,0.6995,0.6438,0.0,0.4633,0.4094,0.4097,0.35,0.3254,0.4011,0.3505,0.0,0.0,0.0,0.0,0.0,0.0,0.0,0.0508,0.0195,0.0543,0.1851,0.2152,0.2175,0.1965,0.2763,0.3719,0.4773,0.5025,0.5446,0.6081,0.6503,0.6816,0.708,0.7577,0.857,0.9956,0.9612,1.0102,1.1249,1.1539,1.3063,1.5396,1.637,1.8216,2.055,2.1893,2.2607,2.2977,2.3888,2.4062,2.3621,2.2182,2.1457,2.1019,2.017,1.9718,1.9628,2.0273,2.0416,2.0985,2.4035,2.6125,2.7617,2.8433,2.7783,2.6916,2.6916,2.7041,2.6954,2.6111,2.5897,2.5646,2.4862,2.4496,2.3877,2.2513,2.2774,2.2949,2.2397,2.3276,2.4192,2.4745,2.4519,2.4519,2.5084,2.4028,2.3096,2.2456,2.2774,2.3418,2.4405,2.5317,2.6653,2.8491,2.8278,2.8063,2.7761,2.7128,2.7113,2.767,2.8434,2.9454,3.0524,2.9827,2.9889,0.0,0.0,0.0,0.7598,0.0,0.0,0.0,0.707,0.6496,0.558,0.4924,0.4466,0.4406,0.3924,0.3749,0.4395,0.3765,0.321,0.0,0.0,0.0,0.0,0.0,0.0,0.0051,0.0781,0.1432,0.1771,0.1927,0.1999,0.1999,0.2283,0.2886,0.3825,0.4899,0.5728,0.6294,0.697,0.746,0.7755,0.8233,0.9206,1.0578,0.9936,1.0311,1.1478,1.181,1.3156,1.5196,1.6445,1.8186,2.0265,2.1914,2.2383,2.2306,2.3659,2.3817,2.3262,2.2547,2.1758,2.0868,1.9841,1.9081,1.8585,1.8698,1.9316,2.0497,2.3163,2.4652,2.5688,2.6608,2.6352,2.5847,2.5847,2.5869,2.5714,2.5018,2.478,2.455,2.3819,2.3708,2.3513,2.282,2.289,2.2977,2.2761,2.3452,2.4104,2.4381,2.4406,2.4406,2.4406,2.3504,2.2601,2.1963,2.2667,2.343,2.4261,2.5265,2.6515,2.7998,2.7525,2.7222,2.7222,2.6764,2.6714,2.7095,2.7537,2.8427,2.9628,2.9192,2.9442,0.0,0.0,0.0,0.0,0.0,0.7608,0.0,0.0,0.0,0.5712,0.0,0.0,0.0,0.0,0.0,0.0,0.0,0.0,0.0,0.0,0.0,0.0,0.0,0.0,0.0,0.1827,0.241,0.1927,0.2008,0.1968,0.1739,0.1794,0.2252,0.3157,0.4796,0.5927,0.6462,0.742,0.81,0.8516,0.8833,0.9657,1.0882,1.0148,1.0376,1.1401,1.2113,1.3341,1.4955,1.6602,1.8205,1.9813,2.1462,2.1929,2.181,2.3068,2.3137,2.259,2.2574,2.1683,2.0368,1.9425,1.8504,1.7726,1.7381,1.8588,2.044,2.2311,2.3188,2.3806,2.5067,2.5175,2.4951,2.4951,2.4951,2.4781,2.4221,2.406,2.3884,2.3245,2.3078,2.304,2.2927,2.3002,2.304,2.2927,2.3565,2.4004,2.4004,2.4481,2.4607,2.4054,2.3401,2.2651,2.1987,2.281,2.3525,2.3986,2.5178,2.6287,2.7168,2.6934,2.6739,2.6635,2.6642,2.6634,2.6533,2.6533,2.7297,2.8748,2.8748,2.9129,0.0,0.0,0.0,0.0,0.7695,0.0,0.0,0.0,0.7415,0.6986,0.0,0.0,0.0,0.0,0.0,0.0,0.0,0.0,0.4473,0.4039,0.0,0.0,0.0,0.0,0.0,0.2734,0.2499,0.2262,0.2731,0.258,0.1502,0.2003,0.2915,0.4198,0.5076,0.5926,0.6743,0.7967,0.8699,0.8939,0.9152,0.9858,1.0956,1.0151,1.0325,1.1254,1.189,1.3057,1.4648,1.6152,1.7688,1.9181,2.0243,2.1009,2.1552,2.1786,2.1987,2.1984,2.079,1.9636,1.8485,1.7145,1.6697,1.6752,1.7006,1.8824,2.1097,2.3022,2.3478,2.3657,2.5053,2.4381,2.3365,2.3365,2.3365,2.3365,2.3245,2.3258,2.3185,2.3138,2.3078,2.2975,2.2485,2.2811,2.2915,2.2472,2.3314,2.4004,2.4004,2.4481,2.4607,2.4054,2.3929,2.3306,2.1987,2.2476,2.2834,2.2893,2.346,2.4432,2.5794,2.6728,2.6993,2.6501,2.6974,2.6954,2.6533,2.6533,2.6973,2.7855,2.7855,2.792,0.0,0.0,0.0,0.0,0.0,0.0,0.7754,0.0,0.7598,0.0,0.0,0.0,0.0,0.0,0.0,0.0,0.5662,0.0,0.0,0.0,0.4092,0.0,0.0,0.0,0.0,0.0,0.0,0.0,0.2652,0.2578,0.1961,0.2486,0.3094,0.3738,0.5037,0.5979,0.6509,0.8124,0.9018,0.9181,0.946,1.0034,1.0872,1.044,1.0651,1.1342,1.1794,1.2534,1.3549,1.4745,1.6075,1.7374,1.7918,1.916,2.0682,2.1139,2.1525,2.1628,2.0418,1.9457,1.834,1.6017,1.5753,1.6507,1.7107,1.863,2.0581,2.2392,2.2792,2.293,2.3832,2.359,2.3078,2.3078,2.3389,2.354,2.3213,2.3401,2.354,2.314,2.3078,2.2862,2.1983,2.256,2.2949,2.2397,2.2987,2.3615,2.3954,2.4205,2.4255,2.4017,2.4004,2.3767,2.3145,2.3329,2.3599,2.3907,2.4423,2.5016,2.5586,2.6377,2.6703,2.6533,2.6691,2.6691,2.6533,2.6533,2.6658,2.6973,2.6973,2.7229,0.8682,0.0,0.0,0.0,0.0,0.0,0.0,0.0,0.0,0.0,0.0,0.0,0.0,0.0,0.0,0.0,0.0,0.0,0.0,0.0,0.0,0.0,0.0,0.0,0.0,0.0,0.0,0.241,0.2613,0.2674,0.2471,0.2834,0.327,0.3751,0.5239,0.6292,0.6816,0.8414,0.9238,0.9299,0.9444,0.9787,1.0279,1.0033,1.0126,1.0528,1.0995,1.148,1.2063,1.3099,1.4316,1.5563,1.5659,1.7013,1.8998,1.9896,2.0484,2.0763,2.0215,1.9395,1.8185,1.5387,1.5313,1.6439,1.7169,1.8631,2.0404,2.2153,2.2584,2.2682,2.3263,2.3245,2.3115,2.3339,2.369,2.3891,2.3464,2.3703,2.3828,2.3251,2.3078,2.2786,2.1681,2.2397,2.2899,2.2184,2.2686,2.3339,2.3916,2.413,2.4167,2.4017,2.4255,2.4255,2.3803,2.3841,2.3988,2.4236,2.4953,2.5448,2.5586,2.6302,2.6747,2.6747,2.6747,2.6684,2.6533,2.6533,2.6533,2.6533,2.6714,2.704,0.0,0.0,0.0,0.8393,0.0,0.0,0.0,0.0,0.7695,0.0,0.0,0.0,0.0,0.0,0.0,0.0,0.0,0.0,0.0,0.0,0.0,0.0,0.0,0.0,0.0,0.0,0.0,0.2627,0.2956,0.3087,0.2893,0.2896,0.3537,0.4898,0.5889,0.6949,0.8127,0.9035,0.943,0.9292,0.8972,0.8876,0.8945,0.8424,0.8193,0.8257,0.903,0.9684,1.0269,1.1327,1.2726,1.4126,1.3813,1.4684,1.6268,1.7534,1.8435,1.9068,1.9741,1.8998,1.7387,1.5213,1.5313,1.6439,1.7169,1.8907,2.1082,2.2844,2.3244,2.3292,2.406,2.3708,2.3276,2.3841,2.3979,2.3991,2.3979,2.3979,2.3828,2.3251,2.3078,2.2786,2.1681,2.2397,2.2761,2.1681,2.2435,2.3339,2.3916,2.4469,2.4594,2.4054,2.4921,2.4895,2.3301,2.3356,2.3275,2.2786,2.4057,2.5071,2.5573,2.6666,2.7256,2.7256,2.7256,2.6992,2.6533,2.6533,2.6533,2.6521,2.7284,2.7297,0.0,0.0,1.0059,0.9442,0.0,0.0,0.0,0.0,0.0,0.0,0.0,0.0,0.0,0.0,0.0,0.0,0.0,0.0,0.0,0.0,0.0,0.0,0.0,0.0,0.0,0.0,0.0,0.2622,0.2565,0.2602,0.0,0.2977,0.3701,0.5017,0.6098,0.7178,0.8265,0.8775,0.8973,0.8824,0.8325,0.8115,0.8163,0.8123,0.8107,0.813,0.8802,0.9139,0.924,0.9988,1.1184,1.253,1.2781,1.3757,1.517,1.6652,1.7853,1.8778,1.8905,1.8408,1.7391,1.5609,1.6345,1.8009,1.835,1.9761,2.1499,2.2814,2.3153,2.3125,2.3424,2.3966,2.4528,2.4736,2.5374,2.585,2.5668,2.544,2.5123,2.4682,2.4221,2.3521,2.2408,2.2732,2.2761,2.1656,2.2749,2.3904,2.4469,2.5008,2.5259,2.5071,2.5071,2.4858,2.4293,2.399,2.3885,2.4057,2.4514,2.5398,2.6653,2.6728,2.708,2.7808,2.7105,2.6829,2.7005,2.664,2.6533,2.6533,2.6782,2.6782,0.977,1.039,0.0,0.997,0.9894,0.0,0.8996,0.0,0.0,0.0,0.0,0.0,0.0,0.0,0.0,0.0,0.0,0.0,0.0,0.5806,0.0,0.0,0.0,0.0,0.0,0.0,0.2691,0.2603,0.235,0.2309,0.0,0.0,0.3774,0.5135,0.6084,0.7147,0.8293,0.8465,0.8468,0.8305,0.7688,0.7402,0.7473,0.7354,0.7306,0.7322,0.7946,0.8087,0.7938,0.8622,0.9747,1.1027,1.1363,1.2434,1.3993,1.5641,1.7155,1.8282,1.7693,1.7595,1.7461,1.5875,1.6817,1.8565,1.8923,2.0049,2.138,2.2297,2.2548,2.2644,2.3068,2.3878,2.4713,2.5418,2.6116,2.6587,2.6359,2.619,2.5867,2.5479,2.5007,2.4359,2.342,2.3619,2.338,2.1756,2.2924,2.4192,2.4745,2.5272,2.5523,2.5335,2.5184,2.4803,2.4082,2.3816,2.3792,2.402,2.4514,2.5385,2.6628,2.6728,2.718,2.8084,2.7218,2.703,2.757,2.7017,2.6753,2.6753,2.6753,2.6854]}]]